ftp/pub/palmer/observations_modified/2019/June/AR190614_BASE.txt

Download

Sample DateTime	Unit Id	WS Avg 2min	WD Avg 2min	WGS 10min	WGD 10min	Air Temp	Rel Humidity	Dew Point	Pyranometer	Quantum	Air Pressure	Snow Level	Rainfall	PW Current	Visibility	CBase 1	CBase 2	CBase 3	Vert Vis
2019/06/14  00:00:00  BASE  4.7334   341  5.2038   337  -3.1  86    -5.2  0     0     1002.2   NA       0.0000   9999     4300  0     0    
2019/06/14  00:01:00  BASE  4.71576  340  5.2038   337  -3.1  86    -5.1  0     0     1002.2   NA       0.0000   9999     4330  0     0    
2019/06/14  00:02:00  BASE  4.851    340  5.2038   340  -3.1  86    -5.1  0     0     1002.3   NA       0.0000   9999     4330  4720  0    
2019/06/14  00:03:00  BASE  5.09208  339  5.41548  340  -3.1  86    -5.0  0     0     1002.3   NA       0.0000   9999     4270  0     0    
2019/06/14  00:04:00  BASE  5.06268  340  5.41548  340  -3.0  86    -5.0  0     0     1002.3   NA       0.0000   9999     4230  0     0    
2019/06/14  00:05:00  BASE  4.851    341  5.41548  340  -3.0  87    -4.9  0     0     1002.3   NA       0.0000   9999     4200  0     0    
2019/06/14  00:06:00  BASE  4.66872  342  5.41548  340  -3.0  87    -4.9  0     0     1002.3   NA       0.0000   9999     4230  0     0    
2019/06/14  00:07:00  BASE  4.6452   342  5.41548  340  -3.0  87    -4.8  0     0     1002.3   NA       0.0000   9999     4200  0     0    
2019/06/14  00:08:00  BASE  4.66284  340  5.41548  340  -2.9  87    -4.7  0     0     1002.3   NA       0.0000   9999     4170  0     0    
2019/06/14  00:09:00  BASE  4.5276   341  5.41548  340  -2.9  88    -4.6  0     0     1002.3   NA       0.0000   9999     4130  0     0    
2019/06/14  00:10:00  BASE  4.36884  341  5.41548  340  -2.9  88    -4.5  0     0     1002.3   NA       0.0000   9999     4170  0     0    
2019/06/14  00:11:00  BASE  4.28064  340  5.41548  340  -2.8  89    -4.4  0     0     1002.3   NA       0.0000   9999     4100  0     0    
2019/06/14  00:12:00  BASE  4.1748   340  5.41548  340  -2.8  89    -4.4  0     0     1002.3   NA       0.0000   9999     4130  0     0    
2019/06/14  00:13:00  BASE  4.116    340  5.41548  340  -2.8  89    -4.3  0     0     1002.3   NA       0.0000   9999     4000  0     0    
2019/06/14  00:14:00  BASE  4.06308  340  5.41548  340  -2.8  89    -4.3  0     0     1002.3   NA       0.0000   9999     4100  0     0    
2019/06/14  00:15:00  BASE  4.12188  339  5.41548  340  -2.8  90    -4.3  0     0     1002.3   NA       0.0000   9999     4100  0     0    
2019/06/14  00:16:00  BASE  4.2336   339  5.41548  340  -2.8  90    -4.2  0     0     1002.2   NA       0.0000   9999     4070  0     0    
2019/06/14  00:17:00  BASE  4.1748   341  4.89804  339  -2.8  90    -4.1  0     0     1002.3   NA       0.0000   9999     4040  4590  0    
2019/06/14  00:18:00  BASE  4.05132  343  4.59816  338  -2.7  91    -4.0  0     0     1002.2   NA       0.0000   9999     4000  4560  0    
2019/06/14  00:19:00  BASE  4.15128  344  4.59816  338  -2.7  91    -4.0  0     0     1002.2   NA       0.0000   9999     4000  4560  0    
2019/06/14  00:20:00  BASE  4.22184  344  4.47468  336  -2.7  92    -3.9  0     0     1002.2   NA       0.0000   9999     4000  4530  5280 
2019/06/14  00:21:00  BASE  3.8808   346  4.47468  336  -2.7  92    -3.8  0     0     1002.2   NA       0.0000   9999     3940  4460  5280 
2019/06/14  00:22:00  BASE  3.48096  349  4.47468  336  -2.7  92    -3.8  0     0     1002.2   NA       0.0000   9999     4000  4990  0    
2019/06/14  00:23:00  BASE  3.50448  347  4.47468  336  -2.7  92    -3.8  0     0     1002.2   NA       0.0000   9999     4300  4950  0    
2019/06/14  00:24:00  BASE  3.66912  346  4.47468  336  -2.7  92    -3.9  0     0     1002.2   NA       0.0000   9999     4300  4890  0    
2019/06/14  00:25:00  BASE  3.7338   350  4.41588  340  -2.8  92    -3.9  0     0     1002.2   NA       0.0000   9999     4300  4990  0    
2019/06/14  00:26:00  BASE  3.89844  350  4.38648  343  -2.8  92    -4.0  0     0     1002.1   NA       0.0000   9999     4330  4820  0    
2019/06/14  00:27:00  BASE  3.94548  350  4.38648  343  -2.8  91    -4.1  0     0     1002.1   NA       0.0000   9999     4300  5090  0    
2019/06/14  00:28:00  BASE  3.73968  356  4.38648  343  -2.8  91    -4.1  0     0     1002.1   NA       0.0000   9999     4200  4630  5020 
2019/06/14  00:29:00  BASE  3.69852  355  4.38648  343  -2.8  90    -4.2  0     0     1002.1   NA       0.0000   9999     4460  5050  0    
2019/06/14  00:30:00  BASE  3.86316  352  4.2336   353  -2.9  90    -4.3  0     0     1002.1   NA       0.0000   9999     4400  0     0    
2019/06/14  00:31:00  BASE  3.9396   356  4.2336   353  -2.9  89    -4.4  0     0     1002.1   NA       0.0000   9999     4300  5020  0    
2019/06/14  00:32:00  BASE  3.77496  358  4.2336   353  -2.8  88    -4.5  0     0     1002.1   NA       0.0000   9999     4230  0     0    
2019/06/14  00:33:00  BASE  3.7338   354  4.2336   353  -2.8  88    -4.6  0     0     1002.1   NA       0.0000   9999     4170  0     0    
2019/06/14  00:34:00  BASE  3.85728  346  4.2336   353  -2.8  87    -4.7  0     0     1002.1   NA       0.0000   9999     4100  0     0    
2019/06/14  00:35:00  BASE  3.66912  342  4.2336   353  -2.8  87    -4.7  0     0     1002.1   NA       0.0000   9999     4070  0     0    
2019/06/14  00:36:00  BASE  3.4398   347  4.2042   350  -2.8  86    -4.8  0     0     1002.1   NA       0.0000   9999     4000  0     0    
2019/06/14  00:37:00  BASE  3.55152  347  4.2042   350  -2.8  86    -4.8  0     0     1002.1   NA       0.0000   9999     4000  0     0    
2019/06/14  00:38:00  BASE  3.68088  344  4.2042   350  -2.8  85    -4.9  0     0     1002.1   NA       0.0000   9999     4040  0     0    
2019/06/14  00:39:00  BASE  3.56328  345  4.1748   360  -2.7  85    -4.9  0     0     1002.1   NA       0.0000   9999     4040  0     0    
2019/06/14  00:40:00  BASE  4.01016  347  5.2038   333  -2.7  85    -4.9  0     0     1002.0   NA       0.0000   9999     4000  0     0    
2019/06/14  00:41:00  BASE  4.39236  348  5.2038   333  -2.7  84    -5.0  0     0     1002.0   NA       0.0000   9999     4000  0     0    
2019/06/14  00:42:00  BASE  4.88628  350  6.05052  352  -2.7  84    -5.1  0     0     1002.0   NA       0.0000   9999     4000  0     0    
2019/06/14  00:43:00  BASE  5.47428  351  6.321    349  -2.7  83    -5.2  0     0     1002.0   NA       0.0000   9999     4070  0     0    
2019/06/14  00:44:00  BASE  5.439    351  6.321    349  -2.7  82    -5.3  0     0     1002.0   NA       0.0000   9999     4070  0     0    
2019/06/14  00:45:00  BASE  5.33904  349  6.321    349  -2.7  81    -5.4  0     0     1002.0   NA       0.0000   9999     4040  0     0    
2019/06/14  00:46:00  BASE  5.72124  359  7.02072  3    -2.6  80    -5.5  0     0     1001.9   NA       0.0000   9999     4000  0     0    
2019/06/14  00:47:00  BASE  6.2622   4    7.02072  3    -2.6  80    -5.7  0     0     1001.9   NA       0.0000   9999     3940  0     0    
2019/06/14  00:48:00  BASE  6.57384  1    7.4088   2    -2.6  79    -5.7  0     0     1001.9   NA       0.0000   9999     3940  0     0    
2019/06/14  00:49:00  BASE  6.75612  357  7.4088   2    -2.6  78    -5.8  0     0     1001.9   NA       0.0000   9999     3970  0     0    
2019/06/14  00:50:00  BASE  6.83256  353  7.47348  354  -2.6  78    -5.9  0     0     1001.8   NA       0.0000   9999     3900  0     0    
2019/06/14  00:51:00  BASE  6.79728  352  7.47348  354  -2.6  77    -6.0  0     0     1001.8   NA       0.0000   9999     3970  0     0    
2019/06/14  00:52:00  BASE  6.42684  354  7.47348  354  -2.6  77    -6.1  0     0     1001.9   NA       0.0000   9999     3870  0     0    
2019/06/14  00:53:00  BASE  6.16224  352  7.47348  354  -2.5  77    -6.1  0     0     1001.9   NA       0.0000   9999     3900  0     0    
2019/06/14  00:54:00  BASE  5.96232  356  7.47348  354  -2.5  76    -6.1  0     0     1001.9   NA       0.0000   9999     3970  0     0    
2019/06/14  00:55:00  BASE  6.15048  359  7.47348  354  -2.4  76    -6.0  0     0     1001.8   NA       0.0000   9999     3840  0     0    
2019/06/14  00:56:00  BASE  6.67968  355  7.47348  354  -2.4  77    -5.9  0     0     1001.7   NA       0.0000   9999     3770  0     0    
2019/06/14  00:57:00  BASE  6.8502   349  7.47348  354  -2.3  77    -5.8  0     0     1001.7   NA       0.0000   9999     3810  0     0    
2019/06/14  00:58:00  BASE  6.79728  352  7.74396  360  -2.2  77    -5.8  0     0     1001.7   NA       0.0000   9999     3740  0     0    
2019/06/14  00:59:00  BASE  6.72084  358  7.74396  360  -2.2  76    -5.9  0     0     1001.7   NA       0.0000   9999     3640  0     0    
2019/06/14  01:00:00  BASE  6.15636  352  7.74396  360  -2.1  74    -6.0  0     0     1001.7   NA       0.0000   9999     3640  0     0    
2019/06/14  01:01:00  BASE  5.7918   351  7.74396  360  -2.0  73    -6.3  0     0     1001.7   NA       0.0000   9999     3710  0     0    
2019/06/14  01:02:00  BASE  5.72712  350  7.74396  360  -2.0  71    -6.6  0     0     1001.7   NA       0.0000   9999     3640  0     0    
2019/06/14  01:03:00  BASE  5.65068  348  7.74396  360  -1.9  69    -6.8  0     0     1001.7   NA       0.0000   9999     3580  0     0    
2019/06/14  01:04:00  BASE  6.2916   350  7.74396  360  -1.9  68    -7.0  0     0     1001.6   NA       0.0000   9999     3610  0     0    
2019/06/14  01:05:00  BASE  6.54444  351  7.74396  360  -1.8  67    -7.2  0     0     1001.6   NA       0.0000   9999     3480  0     0    
2019/06/14  01:06:00  BASE  5.90352  350  7.74396  360  -1.8  65    -7.5  0     0     1001.7   NA       0.0000   9999     3380  0     0    
2019/06/14  01:07:00  BASE  5.7918   348  7.74396  360  -1.7  64    -7.8  0     0     1001.7   NA       0.0000   9999     3310  0     0    
2019/06/14  01:08:00  BASE  5.6448   347  7.47348  2    -1.7  62    -8.1  0     0     1001.7   NA       0.0000   9999     3280  0     0    
2019/06/14  01:09:00  BASE  5.52132  348  7.16772  355  -1.6  61    -8.3  0     0     1001.7   NA       0.0000   9999     3180  0     0    
2019/06/14  01:10:00  BASE  6.04464  348  7.16772  355  -1.6  60    -8.4  0     0     1001.7   NA       0.0000   9999     3220  0     0    
2019/06/14  01:11:00  BASE  6.41508  350  7.47348  347  -1.6  59    -8.5  0     0     1001.6   NA       0.0000   9999     3050  0     0    
2019/06/14  01:12:00  BASE  6.07404  356  7.47348  347  -1.5  59    -8.6  0     0     1001.7   NA       0.0000   9999     3020  0     0    
2019/06/14  01:13:00  BASE  5.65656  360  7.47348  347  -1.5  58    -8.7  0     0     1001.7   NA       0.0000   9999     2820  0     0    
2019/06/14  01:14:00  BASE  5.5566   359  7.47348  347  -1.5  57    -8.8  0     0     1001.7   NA       0.0000   9999     2990  0     0    
2019/06/14  01:15:00  BASE  5.68596  355  7.47348  347  -1.5  57    -8.9  0     0     1001.7   NA       0.0000   9999     2720  0     0    
2019/06/14  01:16:00  BASE  6.2034   358  7.77336  6    -1.5  57    -8.9  0     0     1001.7   NA       0.0000   9999     2890  0     0    
2019/06/14  01:17:00  BASE  6.71496  1    7.86744  360  -1.5  58    -8.7  0     0     1001.6   NA       0.0000   9999     3120  0     0    
2019/06/14  01:18:00  BASE  6.83256  0    7.86744  360  -1.5  59    -8.5  0     0     1001.7   NA       0.0000   9999     3020  0     0    
2019/06/14  01:19:00  BASE  7.06188  3    8.07912  4    -1.5  60    -8.2  0     0     1001.7   NA       0.0000   9999     3020  0     0    
2019/06/14  01:20:00  BASE  7.09128  4    8.07912  4    -1.5  61    -8.1  0     0     1001.7   NA       0.0000   9999     2920  0     0    
2019/06/14  01:21:00  BASE  6.70908  357  8.07912  4    -1.5  61    -8.0  0     0     1001.7   NA       0.0000   9999     2890  0     0    
2019/06/14  01:22:00  BASE  6.46212  357  8.07912  4    -1.5  62    -7.8  0     0     1001.8   NA       0.0000   9999     3120  0     0    
2019/06/14  01:23:00  BASE  6.44448  2    8.07912  4    -1.6  63    -7.7  0     0     1001.8   NA       0.0000   9999     2850  0     0    
2019/06/14  01:24:00  BASE  6.30336  3    8.07912  4    -1.6  63    -7.6  0     0     1001.8   NA       0.0000   9999     2890  0     0    
2019/06/14  01:25:00  BASE  6.3798   4    8.07912  4    -1.6  64    -7.6  0     0     1001.8   NA       0.0000   9999     3050  0     0    
2019/06/14  01:26:00  BASE  6.59148  3    8.07912  4    -1.6  63    -7.7  0     0     1001.8   NA       0.0000   9999     0     0     0    
2019/06/14  01:27:00  BASE  6.4092   3    8.07912  4    -1.6  63    -7.7  0     0     1001.8   NA       0.0000   9999     0     0     0    
2019/06/14  01:28:00  BASE  6.83256  4    8.19672  10   -1.7  63    -7.7  0     0     1001.8   NA       0.0000   9999     560   0     0    
2019/06/14  01:29:00  BASE  7.1148   6    8.19672  10   -1.7  65    -7.5  0     0     1001.8   NA       0.0000   9999     690   0     0    
2019/06/14  01:30:00  BASE  6.98544  6    8.19672  10   -1.7  66    -7.2  0     0     1001.8   NA       0.0000   9999     0     0     0    
2019/06/14  01:31:00  BASE  6.84432  5    8.19672  10   -1.8  68    -6.9  0     0     1001.9   NA       0.0000   9999     0     0     0    
2019/06/14  01:32:00  BASE  6.468    4    8.19672  10   -1.8  70    -6.6  0     0     1001.9   NA       0.0000   9999     0     0     0    
2019/06/14  01:33:00  BASE  6.2328   4    8.19672  10   -1.8  71    -6.4  0     0     1001.9   NA       0.0000   9999     0     0     0    
2019/06/14  01:34:00  BASE  6.27396  4    8.19672  10   -1.9  72    -6.2  0     0     1001.9   NA       0.0000   9999     0     0     0    
2019/06/14  01:35:00  BASE  6.321    5    8.19672  10   -1.9  73    -6.1  0     0     1001.9   NA       0.0000   9999     0     0     0    
2019/06/14  01:36:00  BASE  6.3798   6    8.19672  10   -1.9  74    -5.9  0     0     1001.9   NA       0.0000   9999     0     0     0    
2019/06/14  01:37:00  BASE  6.27396  5    8.19672  10   -1.9  75    -5.7  0     0     1002.0   NA       0.0000   9999     0     0     0    
2019/06/14  01:38:00  BASE  6.2328   5    7.53228  360  -1.9  76    -5.6  0     0     1002.0   NA       0.0000   9999     0     0     0    
2019/06/14  01:39:00  BASE  6.63852  7    7.77336  10   -1.9  77    -5.5  0     0     1002.0   NA       0.0000   9999     0     0     0    
2019/06/14  01:40:00  BASE  6.5268   7    7.77336  10   -1.9  77    -5.3  0     0     1002.0   NA       0.0000   9999     0     0     0    
2019/06/14  01:41:00  BASE  6.04464  3    7.77336  10   -1.8  78    -5.2  0     0     1002.0   NA       0.0000   9999     0     0     0    
2019/06/14  01:42:00  BASE  5.66244  2    7.77336  10   -1.8  79    -5.0  0     0     1002.0   NA       0.0000   9999     0     0     0    
2019/06/14  01:43:00  BASE  5.62716  1    7.77336  10   -1.8  80    -4.8  0     0     1002.0   NA       0.0000   9999     0     0     0    
2019/06/14  01:44:00  BASE  5.89176  2    7.77336  10   -1.8  81    -4.6  0     0     1002.0   NA       0.0000   9999     0     0     0    
2019/06/14  01:45:00  BASE  5.73888  5    7.77336  10   -1.8  82    -4.5  0     0     1002.0   NA       0.0000   9999     0     0     0    
2019/06/14  01:46:00  BASE  5.91528  4    7.77336  10   -1.9  83    -4.4  0     0     1001.9   NA       0.0000   9999     0     0     0    
2019/06/14  01:47:00  BASE  5.76828  0    7.77336  10   -1.9  83    -4.3  0     0     1001.9   NA       0.0000   9999     330   0     0    
2019/06/14  01:48:00  BASE  4.88628  354  7.77336  10   -1.9  84    -4.2  0     0     1001.9   NA       0.0000   9999     360   0     0    
2019/06/14  01:49:00  BASE  4.90392  8    6.92664  1    -1.9  85    -4.1  0     0     1002.0   NA       0.0000   9999     850   0     0    
2019/06/14  01:50:00  BASE  5.77416  28   6.92664  1    -1.9  86    -4.0  0     0     1002.0   NA       0.0000   9999     0     0     0    
2019/06/14  01:51:00  BASE  6.2622   28   7.10892  27   -1.9  87    -3.8  0     0     1002.0   NA       0.0000   9999     0     0     0    
2019/06/14  01:52:00  BASE  6.2622   28   7.2618   30   -1.9  87    -3.8  0     0     1002.0   NA       0.0000   -SN      8000  0     0    
2019/06/14  01:53:00  BASE  6.48564  33   7.3794   34   -2.0  88    -3.7  0     0     1001.9   NA       0.0000   -SN      6000  300   0    
2019/06/14  01:54:00  BASE  6.97956  35   7.68516  34   -2.0  88    -3.7  0     0     1001.9   NA       0.0000   -SN      5000  260   0    
2019/06/14  01:55:00  BASE  6.80904  34   7.68516  34   -2.0  89    -3.6  0     0     1002.0   NA       0.0000   -SN      BR    4800  260  
2019/06/14  01:56:00  BASE  6.25632  38   7.68516  34   -2.0  89    -3.6  0     0     1002.0   NA       0.0000   -SN      BR    4500  0    
2019/06/14  01:57:00  BASE  6.1446   40   7.68516  34   -2.1  90    -3.5  0     0     1002.0   NA       0.0000   -SN      BR    3800  0    
2019/06/14  01:58:00  BASE  5.98584  40   7.68516  34   -2.1  90    -3.5  0     0     1001.9   NA       0.0000   -SN      BR    3400  0    
2019/06/14  01:59:00  BASE  5.65068  44   7.68516  34   -2.2  91    -3.5  0     0     1001.9   NA       0.0000   -SN      BR    3300  0    
2019/06/14  02:00:00  BASE  5.66244  46   7.68516  34   -2.3  91    -3.6  0     0     1002.0   NA       0.0000   -SN      BR    3300  0    
2019/06/14  02:01:00  BASE  5.82708  45   7.68516  34   -2.3  92    -3.5  0     0     1002.0   NA       0.0000   -SN      BR    3500  0    
2019/06/14  02:02:00  BASE  6.25632  45   7.68516  34   -2.3  92    -3.4  0     0     1001.9   NA       0.0000   -SN      BR    3800  0    
2019/06/14  02:03:00  BASE  6.80316  45   7.68516  34   -2.4  93    -3.4  0     0     1001.9   NA       0.0000   -SN      BR    3900  0    
2019/06/14  02:04:00  BASE  6.92664  45   7.35     27   -2.4  93    -3.3  0     0     1001.9   NA       0.0000   -SN      BR    4200  0    
2019/06/14  02:05:00  BASE  6.67968  44   7.3206   45   -2.4  93    -3.3  0     0     1002.0   NA       0.0000   -SN      BR    4400  0    
2019/06/14  02:06:00  BASE  6.47388  43   7.3794   41   -2.4  94    -3.3  0     0     1002.0   NA       0.0000   -SN      BR    4400  0    
2019/06/14  02:07:00  BASE  6.60912  45   7.3794   41   -2.4  94    -3.2  0     0     1002.0   NA       0.0000   -SN      BR    4000  0    
2019/06/14  02:08:00  BASE  6.57972  45   7.3794   41   -2.5  95    -3.2  0     0     1002.0   NA       0.0000   -SN      BR    3400  0    
2019/06/14  02:09:00  BASE  6.46212  45   7.3794   41   -2.5  95    -3.2  0     0     1002.0   NA       0.0000   -SN      BR    3300  0    
2019/06/14  02:10:00  BASE  6.321    44   7.3794   41   -2.5  96    -3.1  0     0     1002.0   NA       0.0000   -SN      BR    3300  0    
2019/06/14  02:11:00  BASE  6.21516  43   7.3794   41   -2.6  96    -3.1  0     0     1002.0   NA       0.0000   -SN      BR    3300  0    
2019/06/14  02:12:00  BASE  6.06816  42   7.3794   41   -2.6  97    -3.0  0     0     1001.9   NA       0.0000   -SN      BR    3500  0    
2019/06/14  02:13:00  BASE  5.59776  40   7.3794   41   -2.6  97    -3.0  0     0     1002.0   NA       0.0000   -SN      BR    3500  0    
2019/06/14  02:14:00  BASE  4.94508  36   7.3794   41   -2.6  98    -2.9  0     0     1002.0   NA       0.0000   -SN      BR    3400  0    
2019/06/14  02:15:00  BASE  5.35668  37   7.3794   41   -2.5  99    -2.7  0     0     1001.9   NA       0.0000   -SN      BR    3500  0    
2019/06/14  02:16:00  BASE  5.9976   39   7.13832  37   -2.5  99    -2.6  0     0     1001.9   NA       0.0000   -SN      BR    3600  0    
2019/06/14  02:17:00  BASE  5.85648  39   7.13832  37   -2.4  100   -2.5  0     0     1001.9   NA       0.0000   -SN      BR    3700  260  
2019/06/14  02:18:00  BASE  5.77416  38   7.13832  37   -2.4  100   -2.4  0     0     1001.8   NA       0.0000   -SN      BR    4100  260  
2019/06/14  02:19:00  BASE  5.4684   35   7.13832  37   -2.3  100   -2.3  0     0     1001.8   NA       0.0000   -SN      BR    3900  0    
2019/06/14  02:20:00  BASE  5.50368  31   7.13832  37   -2.3  100   -2.3  0     0     1001.8   NA       0.0000   -SN      BR    4200  300  
2019/06/14  02:21:00  BASE  5.439    24   7.13832  37   -2.2  100   -2.2  0     0     1001.8   NA       0.0000   -SN      BR    4700  300  
2019/06/14  02:22:00  BASE  5.38608  19   7.13832  37   -2.2  100   -2.2  0     0     1001.8   NA       0.0000   -SN      BR    6000  300  
2019/06/14  02:23:00  BASE  5.71536  14   7.13832  37   -2.0  100   -2.0  0     0     1001.7   NA       0.0000   -SN      BR    8000  0    
2019/06/14  02:24:00  BASE  5.95644  15   7.3206   13   -1.9  100   -1.9  0     0     1001.7   NA       0.0000   -SN      BR    9999  0    
2019/06/14  02:25:00  BASE  6.30336  18   7.3206   13   -1.7  100   -1.7  0     0     1001.7   NA       0.2540   -SN      BR    9999  0    
2019/06/14  02:26:00  BASE  6.35628  17   7.50288  12   -1.5  100   -1.5  0     0     1001.6   NA       0.0000   -SN      BR    9999  360  
2019/06/14  02:27:00  BASE  6.47976  17   7.59108  19   -1.4  100   -1.4  0     0     1001.6   NA       0.0000   -SN      BR    9999  0    
2019/06/14  02:28:00  BASE  6.72672  14   8.3202   4    -1.3  100   -1.3  0     0     1001.6   NA       0.0000   -SN      BR    9999  0    
2019/06/14  02:29:00  BASE  6.62088  11   8.3202   4    -1.2  100   -1.2  0     0     1001.5   NA       0.0000   -SN      BR    9999  0    
2019/06/14  02:30:00  BASE  6.57384  13   8.3202   4    -1.2  100   -1.2  0     0     1001.6   NA       0.0000   -SN      BR    9999  0    
2019/06/14  02:31:00  BASE  6.59148  10   8.3202   4    -1.2  100   -1.2  0     0     1001.5   NA       0.0000   -SN      9999  0     0    
2019/06/14  02:32:00  BASE  6.10344  4    8.3202   4    -1.2  100   -1.2  0     0     1001.5   NA       0.0000   -SN      9999  0     0    
2019/06/14  02:33:00  BASE  5.69184  358  8.3202   4    -1.1  100   -1.1  0     0     1001.5   NA       0.0000   -SN      9999  0     0    
2019/06/14  02:34:00  BASE  5.8212   360  8.3202   4    -1.1  100   -1.1  0     0     1001.5   NA       0.0000   -SN      9999  0     0    
2019/06/14  02:35:00  BASE  6.1446   11   8.3202   4    -1.1  100   -1.1  0     0     1001.5   NA       0.0000   -SN      9999  0     0    
2019/06/14  02:36:00  BASE  6.29748  19   8.3202   4    -1.1  100   -1.1  0     0     1001.4   NA       0.0000   -SN      9999  0     0    
2019/06/14  02:37:00  BASE  5.95056  16   8.3202   4    -1.1  100   -1.1  0     0     1001.4   NA       0.0000   -SN      9999  0     0    
2019/06/14  02:38:00  BASE  5.55072  17   7.2912   353  -1.1  100   -1.1  0     0     1001.4   NA       0.0000   -SN      9000  0     0    
2019/06/14  02:39:00  BASE  5.66244  21   7.2912   353  -1.1  100   -1.1  0     0     1001.4   NA       0.0000   -SN      9999  0     0    
2019/06/14  02:40:00  BASE  5.36256  17   7.2912   353  -1.1  100   -1.1  0     0     1001.5   NA       0.0000   -SN      9999  0     0    
2019/06/14  02:41:00  BASE  5.08032  18   7.19712  1    -1.1  100   -1.1  0     0     1001.5   NA       0.0000   -SN      9999  0     0    
2019/06/14  02:42:00  BASE  5.95644  19   7.35     24   -1.1  100   -1.1  0     0     1001.4   NA       0.0000   -SN      9000  0     0    
2019/06/14  02:43:00  BASE  6.15048  16   7.35     24   -1.0  100   -1.0  0     0     1001.4   NA       0.0000   -SN      8000  0     0    
2019/06/14  02:44:00  BASE  5.77416  16   7.35     24   -1.0  100   -1.0  0     0     1001.5   NA       0.0000   -SN      9999  0     0    
2019/06/14  02:45:00  BASE  5.92704  20   7.4088   9    -1.0  100   -1.0  0     0     1001.4   NA       0.0000   -SN      9999  330   0    
2019/06/14  02:46:00  BASE  5.69184  22   7.4088   9    -0.9  100   -0.9  0     0     1001.5   NA       0.0000   -SN      BR    9000  300  
2019/06/14  02:47:00  BASE  5.49192  20   7.4088   9    -0.9  100   -0.9  0     0     1001.5   NA       0.0000   -SN      BR    8000  300  
2019/06/14  02:48:00  BASE  5.50956  16   7.4088   9    -0.9  100   -0.9  0     0     1001.5   NA       0.0000   -SN      BR    9000  300  
2019/06/14  02:49:00  BASE  5.3802   8    7.4088   9    -0.9  100   -0.9  0     0     1001.5   NA       0.2540   -SN      BR    9999  260  
2019/06/14  02:50:00  BASE  4.38648  331  7.4088   9    -0.9  100   -0.9  0     0     1001.6   NA       0.0000   -SN      9999  260   0    
2019/06/14  02:51:00  BASE  2.72832  296  7.4088   9    -0.9  100   -0.9  0     0     1001.6   NA       0.0000   -SN      BR    9000  260  
2019/06/14  02:52:00  BASE  1.83456  291  7.4088   9    -1.0  100   -1.0  0     0     1001.6   NA       0.0000   -SN      BR    5000  0    
2019/06/14  02:53:00  BASE  1.12896  283  7.4088   9    -1.1  100   -1.1  0     0     1001.6   NA       0.0000   -SN      BR    4200  0    
2019/06/14  02:54:00  BASE  0.88788  254  7.4088   9    -1.3  100   -1.3  0     0     1001.6   NA       0.0000   -SN      BR    3400  0    
2019/06/14  02:55:02  BASE  1.34064  216  6.74436  6    -1.4  100   -1.4  0     0     1001.6   NA       0.0000   -SN      BR    3300  0    
2019/06/14  02:56:00  BASE  1.31124  164  6.74436  6    -1.5  100   -1.5  0     0     1001.6   NA       0.0000   -SN      BR    3400  0    
2019/06/14  02:57:00  BASE  1.2936   133  6.41508  7    -1.6  100   -1.6  0     0     1001.6   NA       0.0000   -SN      BR    3500  0    
2019/06/14  02:58:00  BASE  1.12896  127  6.41508  7    -1.7  100   -1.7  0     0     1001.6   NA       0.0000   -SN      BR    3800  0    
2019/06/14  02:59:00  BASE  1.37592  119  4.50996  320  -1.7  100   -1.7  0     0     1001.6   NA       0.0000   -SN      BR    3600  230  
2019/06/14  03:00:00  BASE  2.34612  145  3.41628  171  -1.8  100   -1.8  0     0     1001.6   NA       0.0000   -SN      BR    3400  260  
2019/06/14  03:01:00  BASE  2.5284   165  3.41628  171  -1.8  100   -1.8  0     0     1001.6   NA       0.0000   -SN      BR    3600  260  
2019/06/14  03:02:00  BASE  2.39904  154  3.41628  171  -1.8  100   -1.8  0     0     1001.6   NA       0.0000   -SN      BR    3700  300  
2019/06/14  03:03:00  BASE  3.38688  137  5.02152  124  -1.8  100   -1.8  0     0     1001.6   NA       0.0000   -SN      BR    3700  330  
2019/06/14  03:04:00  BASE  4.2336   123  5.02152  124  -1.9  100   -1.9  0     0     1001.6   NA       0.0000   -SN      BR    3800  2230 
2019/06/14  03:05:00  BASE  4.0572   119  5.02152  124  -2.1  100   -2.1  0     0     1001.6   NA       0.0000   -SN      BR    2700  330  
2019/06/14  03:06:00  BASE  3.89256  120  5.02152  124  -2.2  100   -2.2  0     0     1001.6   NA       0.0000   -SN      BR    1900  330  
2019/06/14  03:07:00  BASE  3.38688  123  5.02152  124  -2.3  100   -2.3  0     0     1001.6   NA       0.0000   -SN      BR    2400  330  
2019/06/14  03:08:00  BASE  2.9694   122  5.02152  124  -2.4  100   -2.4  0     0     1001.5   NA       0.0000   -SN      BR    4100  330  
2019/06/14  03:09:00  BASE  3.19872  120  5.02152  124  -2.3  100   -2.3  0     0     1001.6   NA       0.0000   -SN      BR    4100  300  
2019/06/14  03:10:00  BASE  3.51036  122  5.02152  124  -2.3  100   -2.3  0     0     1001.6   NA       0.0000   -SN      BR    4000  0    
2019/06/14  03:11:00  BASE  3.53388  125  5.02152  124  -2.2  100   -2.2  0     0     1001.6   NA       0.0000   -SN      BR    3900  0    
2019/06/14  03:12:00  BASE  3.32808  126  5.02152  124  -2.2  100   -2.2  0     0     1001.6   NA       0.0000   -SN      BR    3800  0    
2019/06/14  03:13:00  BASE  2.94588  125  4.59816  121  -2.1  100   -2.1  0     0     1001.5   NA       0.0000   -SN      BR    3600  0    
2019/06/14  03:14:00  BASE  2.84592  127  4.47468  120  -2.1  100   -2.1  0     0     1001.6   NA       0.0000   -SN      BR    3500  0    
2019/06/14  03:15:00  BASE  2.83416  129  4.47468  120  -2.1  100   -2.1  0     0     1001.6   NA       0.0000   -SN      BR    3400  300  
2019/06/14  03:16:00  BASE  2.8812   129  4.35708  120  -2.1  100   -2.1  0     0     1001.6   NA       0.0000   -SN      BR    3400  230  
2019/06/14  03:17:00  BASE  2.35788  120  4.35708  120  -2.1  100   -2.1  0     0     1001.6   NA       0.0000   -SN      BR    3300  0    
2019/06/14  03:18:00  BASE  1.37592  123  4.35708  120  -2.0  100   -2.0  0     0     1001.5   NA       0.0000   -SN      BR    3400  0    
2019/06/14  03:19:00  BASE  0.86436  136  4.35708  120  -1.9  100   -1.9  0     0     1001.5   NA       0.0000   -SN      BR    3600  0    
2019/06/14  03:20:00  BASE  0.68208  138  4.08072  124  -1.9  100   -1.9  0     0     1001.6   NA       0.0000   -SN      BR    3500  0    
2019/06/14  03:21:00  BASE  1.27596  131  3.72204  138  -1.8  100   -1.8  0     0     1001.5   NA       0.0000   -SN      BR    3700  0    
2019/06/14  03:22:00  BASE  2.27556  107  3.48096  90   -1.7  100   -1.7  0     0     1001.5   NA       0.0000   -SN      BR    3900  0    
2019/06/14  03:23:00  BASE  2.62836  102  3.48096  90   -1.6  100   -1.6  0     0     1001.5   NA       0.0000   -SN      BR    2600  300  
2019/06/14  03:24:00  BASE  3.03408  115  4.96272  143  -1.7  100   -1.7  0     0     1001.5   NA       0.0000   -SN      BR    1700  260  
2019/06/14  03:25:00  BASE  2.87532  131  4.96272  143  -1.7  100   -1.7  0     0     1001.5   NA       0.0000   -SN      BR    1700  0    
2019/06/14  03:26:00  BASE  1.95804  113  4.96272  143  -1.8  100   -1.8  0     0     1001.4   NA       0.0000   -SN      BR    2200  300  
2019/06/14  03:27:00  BASE  1.8228   94   4.96272  143  -1.8  100   -1.8  0     0     1001.4   NA       0.0000   -SN      BR    3800  0    
2019/06/14  03:28:00  BASE  2.53428  112  4.96272  143  -1.8  100   -1.8  0     0     1001.5   NA       0.0000   -SN      BR    4200  330  
2019/06/14  03:29:00  BASE  3.36924  133  4.96272  143  -1.9  100   -1.9  0     0     1001.4   NA       0.0000   -SN      BR    4300  300  
2019/06/14  03:30:00  BASE  3.1164   143  4.96272  143  -1.9  100   -1.9  0     0     1001.4   NA       0.0000   -SN      BR    2600  300  
2019/06/14  03:31:00  BASE  3.1458   129  4.96272  143  -1.9  100   -1.9  0     0     1001.4   NA       0.0000   -SN      BR    2400  300  
2019/06/14  03:32:00  BASE  3.72792  120  4.96272  143  -2.0  100   -2.0  0     0     1001.4   NA       0.0000   -SN      BR    2800  330  
2019/06/14  03:33:00  BASE  3.528    135  4.96272  145  -2.0  100   -2.0  0     0     1001.3   NA       0.0000   -SN      BR    1900  300  
2019/06/14  03:34:00  BASE  3.1458   145  4.96272  145  -2.0  100   -2.0  0     0     1001.3   NA       0.0000   -SN      BR    1900  260  
2019/06/14  03:35:00  BASE  2.54016  144  4.96272  145  -2.0  100   -2.0  0     0     1001.3   NA       0.0000   -SN      BR    1900  260  
2019/06/14  03:36:00  BASE  1.76988  130  4.96272  145  -1.9  100   -1.9  0     0     1001.3   NA       0.0000   -SN      BR    2400  230  
2019/06/14  03:37:00  BASE  2.18736  70   4.96272  145  -1.8  100   -1.8  0     0     1001.3   NA       0.0000   -SN      BR    5000  0    
2019/06/14  03:38:00  BASE  3.37512  39   4.96272  145  -1.6  100   -1.6  0     0     1001.3   NA       0.0000   -SN      BR    5000  0    
2019/06/14  03:39:00  BASE  2.84004  43   4.96272  145  -1.4  100   -1.4  0     0     1001.3   NA       0.0000   -SN      BR    4300  0    
2019/06/14  03:40:00  BASE  2.15208  90   4.96272  145  -1.3  100   -1.3  0     0     1001.4   NA       0.0000   -SN      BR    3700  0    
2019/06/14  03:41:00  BASE  2.64012  129  4.96272  145  -1.3  100   -1.3  0     0     1001.4   NA       0.2540   -SN      BR    3300  0    
2019/06/14  03:42:00  BASE  2.25204  137  4.96272  145  -1.4  100   -1.4  0     0     1001.3   NA       0.0000   -SN      BR    2000  0    
2019/06/14  03:43:00  BASE  0.97608  109  4.68636  26   -1.5  100   -1.5  0     0     1001.3   NA       0.0000   -SN      BR    1900  0    
2019/06/14  03:44:00  BASE  0.14112  99   4.68636  26   -1.7  100   -1.7  0     0     1001.3   NA       0.0000   -SN      BR    3600  0    
2019/06/14  03:45:00  BASE  0.03528  118  4.68636  26   -1.7  100   -1.7  0     0     1001.3   NA       0.0000   -SN      BR    3600  0    
2019/06/14  03:46:00  BASE  0.29988  28   4.68636  26   -1.6  100   -1.6  0     0     1001.3   NA       0.0000   -SN      BR    3500  0    
2019/06/14  03:47:00  BASE  0.294    286  4.68636  26   -1.5  100   -1.5  0     0     1001.3   NA       0.0000   -SN      BR    3500  0    
2019/06/14  03:48:00  BASE  0.15876  185  3.44568  116  -1.4  100   -1.4  0     0     1001.3   NA       0.0000   -SN      BR    3300  0    
2019/06/14  03:49:00  BASE  0.12936  147  3.44568  116  -1.4  100   -1.4  0     0     1001.3   NA       0.0000   -SN      BR    3300  0    
2019/06/14  03:50:00  BASE  0        150  3.44568  116  -1.3  100   -1.3  0     0     1001.3   NA       0.0000   -SN      BR    3500  0    
2019/06/14  03:51:00  BASE  0.24696  169  2.90472  136  -1.3  100   -1.3  0     0     1001.3   NA       0.0000   -SN      BR    3400  0    
2019/06/14  03:52:00  BASE  1.98744  168  3.81024  162  -1.4  100   -1.4  0     0     1001.3   NA       0.0000   -SN      BR    3100  0    
2019/06/14  03:53:01  BASE  3.29868  160  3.81024  162  -1.6  100   -1.6  0     0     1001.3   NA       0.0000   -SN      BR    2700  0    
2019/06/14  03:54:00  BASE  3.36924  159  4.08072  154  -1.8  100   -1.8  0     0     1001.2   NA       0.0000   -SN      BR    2400  0    
2019/06/14  03:55:00  BASE  3.63972  157  4.32768  164  -2.1  100   -2.1  0     0     1001.1   NA       0.0000   -SN      BR    2300  0    
2019/06/14  03:56:00  BASE  2.71068  149  4.32768  164  -2.3  100   -2.3  0     0     1001.1   NA       0.0000   -SN      BR    2400  0    
2019/06/14  03:57:00  BASE  1.5876   143  4.32768  164  -2.3  100   -2.3  0     0     1001.2   NA       0.0000   -SN      BR    2600  0    
2019/06/14  03:58:00  BASE  1.4994   147  4.32768  164  -2.3  100   -2.3  0     0     1001.1   NA       0.0000   -SN      BR    2900  0    
2019/06/14  03:59:00  BASE  1.69344  150  4.32768  164  -2.2  100   -2.2  0     0     1001.1   NA       0.0000   -SN      BR    2900  0    
2019/06/14  04:00:00  BASE  2.39316  155  4.32768  164  -2.1  100   -2.1  0     0     1001.1   NA       0.0000   -SN      BR    2600  0    
2019/06/14  04:01:00  BASE  2.87532  157  4.32768  164  -2.1  100   -2.1  0     0     1001.1   NA       0.0000   -SN      BR    2500  0    
2019/06/14  04:02:00  BASE  2.81064  162  4.32768  164  -2.2  100   -2.2  0     0     1001.0   NA       0.0000   -SN      BR    2500  0    
2019/06/14  04:03:00  BASE  3.3222   161  4.32768  164  -2.3  100   -2.3  0     0     1001.0   NA       0.0000   -SN      BR    2600  0    
2019/06/14  04:04:00  BASE  3.54564  158  4.32768  164  -2.4  100   -2.4  0     0     1001.1   NA       0.0000   -SN      BR    2500  0    
2019/06/14  04:05:00  BASE  2.94588  171  4.1454   150  -2.5  100   -2.5  0     0     1001.1   NA       0.0000   -SN      BR    2700  0    
2019/06/14  04:06:00  BASE  1.69344  168  4.1454   150  -2.4  100   -2.4  0     0     1001.1   NA       0.0000   -SN      BR    2600  0    
2019/06/14  04:07:00  BASE  1.7052   157  4.1454   150  -2.4  100   -2.4  0     0     1001.1   NA       0.0000   -SN      BR    2600  0    
2019/06/14  04:08:00  BASE  2.33436  147  4.1454   150  -2.3  100   -2.3  0     0     1001.1   NA       0.0000   -SN      BR    2600  0    
2019/06/14  04:09:00  BASE  2.21676  123  4.1454   150  -2.3  100   -2.3  0     0     1001.1   NA       0.0000   -SN      BR    2200  0    
2019/06/14  04:10:00  BASE  1.41708  91   4.1454   150  -2.2  100   -2.2  0     0     1001.1   NA       0.0000   -SN      BR    2200  0    
2019/06/14  04:11:00  BASE  0.95256  112  4.1454   150  -2.1  100   -2.1  0     0     1001.1   NA       0.0000   -SN      BR    2600  0    
2019/06/14  04:12:00  BASE  1.5288   154  4.1454   150  -2.1  100   -2.1  0     0     1001.1   NA       0.0000   -SN      BR    2600  0    
2019/06/14  04:13:00  BASE  1.92864  171  4.08072  161  -2.2  100   -2.2  0     0     1001.1   NA       0.0000   -SN      BR    2700  0    
2019/06/14  04:14:00  BASE  1.95804  171  3.35748  154  -2.2  100   -2.2  0     0     1001.1   NA       0.0000   -SN      BR    3100  0    
2019/06/14  04:15:00  BASE  2.16384  160  3.35748  154  -2.3  100   -2.3  0     0     1001.1   NA       0.0000   -SN      BR    3500  230  
2019/06/14  04:16:00  BASE  2.57544  159  3.35748  154  -2.5  100   -2.5  0     0     1001.1   NA       0.0000   -SN      BR    2900  230  
2019/06/14  04:17:00  BASE  2.52252  159  3.087    145  -2.5  100   -2.5  0     0     1001.0   NA       0.0000   -SN      BR    2200  260  
2019/06/14  04:18:00  BASE  2.0874   159  2.99292  165  -2.5  100   -2.5  0     0     1001.1   NA       0.0000   -SN      BR    6000  330  
2019/06/14  04:19:00  BASE  1.63464  164  2.99292  165  -2.6  100   -2.6  0     0     1001.0   NA       0.0000   -SN      BR    9000  1250 
2019/06/14  04:20:00  BASE  1.42884  170  2.99292  165  -2.5  100   -2.5  0     0     1001.0   NA       0.0000   -SN      BR    9999  520  
2019/06/14  04:21:00  BASE  1.44648  162  2.99292  165  -2.5  100   -2.5  0     0     1001.1   NA       0.0000   -SN      BR    9999  790  
2019/06/14  04:22:00  BASE  1.54056  155  2.99292  165  -2.4  100   -2.4  0     0     1001.1   NA       0.0000   -SN      BR    9999  820  
2019/06/14  04:23:00  BASE  1.31712  170  2.99292  165  -2.4  100   -2.4  0     0     1001.1   NA       0.0000   -SN      BR    9999  750  
2019/06/14  04:24:00  BASE  0.98196  179  2.99292  165  -2.3  100   -2.3  0     0     1001.1   NA       0.0000   -SN      BR    9999  980  
2019/06/14  04:25:00  BASE  0.85848  168  2.99292  165  -2.3  100   -2.3  0     0     1001.0   NA       0.0000   -SN      BR    9999  920  
2019/06/14  04:26:00  BASE  1.01136  153  2.84592  155  -2.3  100   -2.3  0     0     1001.0   NA       0.0000   -SN      BR    9999  1020 
2019/06/14  04:27:00  BASE  0.99372  166  2.24028  153  -2.2  100   -2.2  0     0     1001.0   NA       0.0000   -SN      9999  690   0    
2019/06/14  04:28:00  BASE  1.16424  358  2.24028  153  -2.0  100   -2.0  0     0     1001.0   NA       0.0000   -SN      9999  430   0    
2019/06/14  04:29:00  BASE  1.29948  342  2.24028  153  -1.8  100   -1.8  0     0     1001.0   NA       0.0000   9999     390   0     0    
2019/06/14  04:30:00  BASE  0.56448  286  2.24028  153  -1.6  100   -1.6  0     0     1001.0   NA       0.0000   9999     390   0     0    
2019/06/14  04:31:00  BASE  0.2058   290  2.24028  153  -1.4  100   -1.4  0     0     1000.9   NA       0.0000   9999     390   0     0    
2019/06/14  04:32:00  BASE  0.42924  327  2.1462   9    -1.3  100   -1.3  0     0     1000.9   NA       0.0000   9999     430   0     0    
2019/06/14  04:33:00  BASE  0.25284  13   2.1462   9    -1.2  100   -1.2  0     0     1000.9   NA       0.0000   9999     460   0     0    
2019/06/14  04:34:00  BASE  0.13524  96   2.1462   9    -1.2  100   -1.2  0     0     1000.9   NA       0.0000   9999     390   0     0    
2019/06/14  04:35:00  BASE  0.61152  140  2.1462   9    -1.2  100   -1.2  0     0     1000.9   NA       0.0000   9999     390   0     0    
2019/06/14  04:36:00  BASE  1.09368  159  2.1462   9    -1.2  100   -1.2  0     0     1000.9   NA       0.0000   9999     390   0     0    
2019/06/14  04:37:00  BASE  1.27596  166  2.1462   9    -1.2  100   -1.2  0     0     1000.8   NA       0.0000   9999     390   0     0    
2019/06/14  04:38:00  BASE  0.98784  190  1.66404  167  -1.1  100   -1.1  0     0     1000.8   NA       0.0000   9999     390   0     0    
2019/06/14  04:39:00  BASE  0.33516  225  1.66404  167  -1.1  100   -1.1  0     0     1000.7   NA       0.0000   9999     360   0     0    
2019/06/14  04:40:00  BASE  0.37044  166  1.66404  167  -1.0  100   -1.0  0     0     1000.7   NA       0.0000   9999     360   0     0    
2019/06/14  04:41:00  BASE  0.43512  137  1.66404  167  -1.0  100   -1.0  0     0     1000.7   NA       0.0000   9999     390   0     0    
2019/06/14  04:42:00  BASE  0.16464  151  1.66404  167  -1.0  100   -1.0  0     0     1000.6   NA       0.0000   9999     430   0     0    
2019/06/14  04:43:00  BASE  0.09996  60   1.66404  167  -0.9  100   -0.9  0     0     1000.6   NA       0.0000   9999     430   0     0    
2019/06/14  04:44:00  BASE  0        355  1.66404  167  -0.9  100   -0.9  0     0     1000.5   NA       0.0000   9999     1050  0     0    
2019/06/14  04:45:00  BASE  0.15876  181  1.66404  167  -0.9  100   -0.9  0     0     1000.5   NA       0.0000   9999     1210  0     0    
2019/06/14  04:46:00  BASE  0.81732  181  1.63464  164  -1.0  100   -1.0  0     0     1000.5   NA       0.0000   9999     1250  0     0    
2019/06/14  04:47:00  BASE  1.10544  192  1.60524  198  -1.1  100   -1.1  0     0     1000.4   NA       0.0000   9999     1280  0     0    
2019/06/14  04:48:00  BASE  1.0584   176  1.60524  198  -1.2  100   -1.2  0     0     1000.4   NA       0.0000   9999     1380  0     0    
2019/06/14  04:49:00  BASE  0.79968  176  1.60524  198  -1.2  100   -1.2  0     0     1000.4   NA       0.0000   9999     1350  0     0    
2019/06/14  04:50:00  BASE  0.22344  187  1.60524  198  -1.3  100   -1.3  0     0     1000.4   NA       0.0000   9999     1350  0     0    
2019/06/14  04:51:00  BASE  0.35868  200  1.60524  198  -1.3  100   -1.3  0     0     1000.4   NA       0.0000   9999     1410  0     0    
2019/06/14  04:52:00  BASE  0.35868  178  1.60524  198  -1.3  100   -1.3  0     0     1000.4   NA       0.0000   9999     1350  0     0    
2019/06/14  04:53:00  BASE  0.66444  30   2.54016  332  -1.3  100   -1.3  0     0     1000.4   NA       0.0000   9999     1280  0     0    
2019/06/14  04:54:00  BASE  1.76988  349  2.87532  342  -1.2  100   -1.2  0     0     1000.4   NA       0.0000   9999     1210  0     0    
2019/06/14  04:55:00  BASE  2.42256  342  3.75144  330  -1.2  100   -1.2  0     0     1000.4   NA       0.0000   9999     1180  0     0    
2019/06/14  04:56:00  BASE  2.63424  334  3.75144  330  -1.1  100   -1.1  0     0     1000.3   NA       0.0000   9999     1310  0     0    
2019/06/14  04:57:00  BASE  2.39904  320  3.75144  330  -1.0  100   -1.0  0     0     1000.3   NA       0.0000   9999     1210  0     0    
2019/06/14  04:58:00  BASE  2.47548  320  4.35708  326  -0.9  100   -0.9  0     0     1000.3   NA       0.0000   9999     1310  0     0    
2019/06/14  04:59:00  BASE  3.087    331  4.35708  326  -0.9  100   -0.9  0     0     1000.3   NA       0.0000   9999     1210  0     0    
2019/06/14  05:00:00  BASE  3.21636  334  4.35708  326  -0.8  100   -0.8  0     0     1000.2   NA       0.0000   9999     1210  0     0    
2019/06/14  05:01:00  BASE  2.89884  335  4.35708  326  -0.8  100   -0.8  0     0     1000.2   NA       0.0000   9999     1250  0     0    
2019/06/14  05:02:00  BASE  3.65736  348  5.74476  350  -0.7  100   -0.7  0     0     1000.2   NA       0.0000   9999     1350  0     0    
2019/06/14  05:03:00  BASE  5.24496  355  6.74436  7    -0.7  100   -0.7  0     0     1000.0   NA       0.0000   9999     1350  0     0    
2019/06/14  05:04:00  BASE  5.75064  354  6.74436  7    -0.6  100   -0.6  0     0     1000.0   NA       0.0000   9999     1380  0     0    
2019/06/14  05:05:00  BASE  5.74476  356  6.74436  7    -0.5  100   -0.5  0     0     1000.0   NA       0.0000   9999     1350  0     0    
2019/06/14  05:06:00  BASE  5.96232  356  6.74436  7    -0.4  100   -0.4  0     0     999.9    NA       0.0000   9999     1350  0     0    
2019/06/14  05:07:00  BASE  6.02112  354  6.74436  7    -0.4  100   -0.4  0     0     999.9    NA       0.0000   9999     1150  0     0    
2019/06/14  05:08:00  BASE  6.12696  355  6.83844  348  -0.3  100   -0.3  0     0     999.9    NA       0.0000   9999     980   0     0    
2019/06/14  05:09:00  BASE  6.37392  356  7.53228  352  -0.3  100   -0.3  0     0     999.9    NA       0.0000   9999     1120  0     0    
2019/06/14  05:10:00  BASE  6.7326   356  7.83216  304  -0.3  100   -0.3  0     0     999.9    NA       0.0000   9999     1250  0     0    
2019/06/14  05:11:00  BASE  6.93252  358  7.83216  304  -0.3  100   -0.3  0     0     999.9    NA       0.0000   9999     1080  1970  0    
2019/06/14  05:12:00  BASE  6.75612  359  7.83216  304  -0.3  100   -0.3  0     0     999.9    NA       0.0000   9999     1250  2100  0    
2019/06/14  05:13:00  BASE  6.82668  358  7.83216  304  -0.3  100   -0.3  0     0     999.8    NA       0.0000   9999     1410  0     0    
2019/06/14  05:14:00  BASE  7.21476  1    7.83216  304  -0.3  100   -0.3  0     0     999.8    NA       0.0000   9999     1410  0     0    
2019/06/14  05:15:00  BASE  7.51464  2    8.59068  351  -0.3  100   -0.3  0     0     999.8    NA       0.0000   9999     1410  0     0    
2019/06/14  05:16:00  BASE  7.65576  359  8.59068  351  -0.3  100   -0.3  0     0     999.8    NA       0.0000   9999     1280  0     0    
2019/06/14  05:17:00  BASE  7.47936  358  8.59068  351  -0.3  100   -0.3  0     0     999.8    NA       0.0000   9999     1180  0     0    
2019/06/14  05:18:00  BASE  7.16772  1    8.59068  351  -0.3  100   -0.3  0     0     999.8    NA       0.0000   9999     1180  0     0    
2019/06/14  05:19:00  BASE  6.89136  4    8.59068  351  -0.3  100   -0.3  0     0     999.8    NA       0.0000   9999     1050  0     0    
2019/06/14  05:20:00  BASE  6.57972  3    8.59068  351  -0.3  100   -0.3  0     0     999.8    NA       0.0000   9999     1120  0     0    
2019/06/14  05:21:00  BASE  6.65616  3    8.59068  351  -0.3  100   -0.3  0     0     999.8    NA       0.0000   9999     790   0     0    
2019/06/14  05:22:00  BASE  7.01484  5    8.59068  351  -0.3  100   -0.3  0     0     999.8    NA       0.0000   9999     820   0     0    
2019/06/14  05:23:00  BASE  7.07364  7    8.59068  351  -0.3  100   -0.3  0     0     999.8    NA       0.0000   9999     980   0     0    
2019/06/14  05:24:00  BASE  7.00308  5    8.59068  351  -0.3  100   -0.3  0     0     999.7    NA       0.0000   9999     1210  0     0    
2019/06/14  05:25:00  BASE  7.10892  4    8.22612  3    -0.2  100   -0.2  0     0     999.7    NA       0.0000   9999     980   0     0    
2019/06/14  05:26:00  BASE  7.13244  5    8.01444  360  -0.2  100   -0.2  0     0     999.7    NA       0.0000   9999     1080  2030  0    
2019/06/14  05:27:00  BASE  6.83844  3    7.92624  8    -0.2  100   -0.2  0     0     999.7    NA       0.0000   9999     1350  0     0    
2019/06/14  05:28:00  BASE  6.52092  1    7.92624  8    -0.2  100   -0.2  0     0     999.7    NA       0.0000   9999     1440  1970  0    
2019/06/14  05:29:00  BASE  6.44448  359  7.92624  8    -0.2  100   -0.2  0     0     999.6    NA       0.0000   9999     890   0     0    
2019/06/14  05:30:00  BASE  6.63852  2    7.92624  8    -0.2  100   -0.2  0     0     999.6    NA       0.0000   9999     980   0     0    
2019/06/14  05:31:00  BASE  7.02072  6    8.01444  1    -0.2  100   -0.2  0     0     999.6    NA       0.0000   9999     1610  0     0    
2019/06/14  05:32:00  BASE  7.27356  7    8.4084   2    -0.2  100   -0.2  0     0     999.6    NA       0.0000   9999     1510  0     0    
2019/06/14  05:33:00  BASE  7.0854   10   8.4084   2    -0.2  100   -0.2  0     0     999.6    NA       0.0000   9999     1510  0     0    
2019/06/14  05:34:00  BASE  7.1442   9    8.4378   3    -0.2  100   -0.2  0     0     999.5    NA       0.0000   9999     1570  0     0    
2019/06/14  05:35:00  BASE  7.51464  7    8.4378   3    -0.2  100   -0.2  0     0     999.5    NA       0.0000   9999     1610  0     0    
2019/06/14  05:36:00  BASE  7.4382   7    8.4378   3    -0.2  100   -0.2  0     0     999.5    NA       0.0000   9999     1710  0     0    
2019/06/14  05:37:00  BASE  7.17948  7    8.4378   3    -0.2  100   -0.2  0     0     999.5    NA       0.0000   9999     1350  0     0    
2019/06/14  05:38:00  BASE  6.8208   8    8.4378   3    -0.2  100   -0.2  0     0     999.5    NA       0.0000   9999     1510  0     0    
2019/06/14  05:39:00  BASE  6.77964  9    8.4378   3    -0.2  100   -0.2  0     0     999.5    NA       0.0000   9999     1120  0     0    
2019/06/14  05:40:00  BASE  6.86784  6    8.4378   3    -0.2  100   -0.2  0     0     999.4    NA       0.0000   9999     1280  0     0    
2019/06/14  05:41:00  BASE  6.72672  2    8.4378   3    -0.2  100   -0.2  0     0     999.4    NA       0.0000   9999     1310  0     0    
2019/06/14  05:42:00  BASE  6.75024  359  8.4378   3    -0.2  100   -0.2  0     0     999.3    NA       0.0000   9999     950   0     0    
2019/06/14  05:43:00  BASE  6.63852  357  8.4378   3    -0.2  100   -0.2  0     0     999.3    NA       0.0000   9999     1310  0     0    
2019/06/14  05:44:00  BASE  6.22692  353  8.4084   7    -0.2  100   -0.2  0     0     999.4    NA       0.0000   9999     1150  0     0    
2019/06/14  05:45:00  BASE  5.97996  356  7.77336  5    -0.2  100   -0.2  0     0     999.3    NA       0.0000   9999     660   0     0    
2019/06/14  05:46:00  BASE  5.88588  3    7.59108  4    -0.2  100   -0.2  0     0     999.3    NA       0.0000   9999     1310  0     0    
2019/06/14  05:47:00  BASE  6.00348  6    7.59108  4    -0.2  100   -0.2  0     0     999.2    NA       0.0000   9999     0     0     0    
2019/06/14  05:48:00  BASE  6.35628  10   7.86744  9    -0.2  100   -0.2  0     0     999.2    NA       0.0000   9999     2760  0     0    
2019/06/14  05:49:00  BASE  6.8502   10   7.86744  9    -0.2  100   -0.2  0     0     999.2    NA       0.0000   9999     0     0     0    
2019/06/14  05:50:00  BASE  6.73848  8    7.86744  9    -0.2  100   -0.2  0     0     999.2    NA       0.0000   9999     0     0     0    
2019/06/14  05:51:00  BASE  6.03876  7    7.86744  9    -0.2  100   -0.2  0     0     999.2    NA       0.0000   9999     0     0     0    
2019/06/14  05:52:00  BASE  5.86824  9    7.86744  9    -0.2  100   -0.2  0     0     999.1    NA       0.0000   9999     790   0     0    
2019/06/14  05:53:00  BASE  6.03876  12   7.86744  9    -0.2  100   -0.2  0     0     999.1    NA       0.0000   9999     0     0     0    
2019/06/14  05:54:00  BASE  6.3798   14   8.50248  14   -0.2  100   -0.2  0     0     999.1    NA       0.0000   9999     0     0     0    
2019/06/14  05:55:00  BASE  6.63264  15   8.50248  14   -0.2  100   -0.2  0     0     999.0    NA       0.0000   9999     1970  0     0    
2019/06/14  05:56:00  BASE  6.54444  17   8.50248  14   -0.2  100   -0.2  0     0     999.0    NA       0.0000   9999     1900  0     0    
2019/06/14  05:57:00  BASE  6.5856   20   8.50248  14   -0.2  100   -0.2  0     0     999.0    NA       0.0000   UP       9999  0     0    
2019/06/14  05:58:00  BASE  6.83256  21   8.50248  14   -0.2  100   -0.2  0     0     998.9    NA       0.0000   UP       9999  0     0    
2019/06/14  05:59:00  BASE  6.92664  19   8.50248  14   -0.2  100   -0.2  0     0     998.9    NA       0.0000   UP       9999  0     0    
2019/06/14  06:00:00  BASE  6.70908  18   8.50248  14   -0.2  100   -0.2  0     0     998.9    NA       0.0000   UP       9999  0     0    
2019/06/14  06:01:00  BASE  6.55032  20   8.50248  14   -0.2  100   -0.2  0     0     998.9    NA       0.0000   UP       9999  0     0    
2019/06/14  06:02:00  BASE  6.91488  23   8.50248  14   -0.2  100   -0.2  0     0     998.9    NA       0.0000   UP       9999  0     0    
2019/06/14  06:03:00  BASE  7.09128  24   8.50248  14   -0.2  100   -0.2  0     0     998.8    NA       0.0000   UP       9999  4330  0    
2019/06/14  06:04:00  BASE  6.93252  25   8.19672  26   -0.2  100   -0.2  0     0     998.8    NA       0.0000   UP       9999  4130  0    
2019/06/14  06:05:00  BASE  6.53856  24   8.19672  26   -0.1  100   -0.1  0     0     998.8    NA       0.0000   UP       9999  3870  0    
2019/06/14  06:06:00  BASE  5.9682   23   8.19672  26   -0.1  100   -0.1  0     0     998.8    NA       0.0000   UP       9999  3900  0    
2019/06/14  06:07:00  BASE  6.1446   24   8.19672  26   -0.1  100   -0.1  0     0     998.8    NA       0.0000   UP       9999  6000  0    
2019/06/14  06:08:00  BASE  6.51504  24   8.19672  26   -0.1  100   -0.1  0     0     998.7    NA       0.0000   UP       9999  6230  0    
2019/06/14  06:09:00  BASE  6.67968  23   8.19672  26   -0.1  100   -0.1  0     0     998.7    NA       0.0000   9999     6590  0     0    
2019/06/14  06:10:00  BASE  7.06776  21   8.19672  26   -0.1  100   -0.1  0     0     998.6    NA       0.0000   9999     6760  0     0    
2019/06/14  06:11:00  BASE  7.203    19   8.19672  26   -0.1  100   -0.1  0     0     998.6    NA       0.0000   9999     6860  0     0    
2019/06/14  06:12:00  BASE  6.62088  16   7.92624  23   -0.1  100   -0.1  0     0     998.6    NA       0.0000   9999     6660  0     0    
2019/06/14  06:13:00  BASE  6.25632  15   7.92624  23   -0.0  100   -0.0  0     0     998.7    NA       0.0000   9999     6530  0     0    
2019/06/14  06:14:00  BASE  6.8208   17   8.13792  11   0.0   100   -0.0  0     0     998.6    NA       0.0000   9999     6400  0     0    
2019/06/14  06:15:00  BASE  7.1736   18   8.13792  11   0.0   100   0.0   0     0     998.6    NA       0.0000   9999     4690  0     0    
2019/06/14  06:16:00  BASE  6.74436  15   8.13792  11   0.1   100   0.1   0     0     998.6    NA       0.0000   9999     4430  0     0    
2019/06/14  06:17:00  BASE  6.2622   12   8.13792  11   0.1   100   0.1   0     0     998.6    NA       0.0000   9999     4950  0     0    
2019/06/14  06:18:00  BASE  6.65028  14   8.13792  11   0.1   100   0.1   0     0     998.6    NA       0.0000   9999     4530  0     0    
2019/06/14  06:19:00  BASE  7.28532  14   8.3202   20   0.1   100   0.1   0     0     998.6    NA       0.0000   9999     4590  0     0    
2019/06/14  06:20:00  BASE  7.57932  16   8.95524  17   0.1   100   0.1   0     0     998.5    NA       0.0000   9999     3810  0     0    
2019/06/14  06:21:00  BASE  7.7322   18   8.95524  17   0.1   100   0.1   0     0     998.5    NA       0.0000   9999     3670  0     0    
2019/06/14  06:22:00  BASE  7.68516  18   8.95524  17   0.1   100   0.1   0     0     998.5    NA       0.0000   9999     0     0     0    
2019/06/14  06:23:00  BASE  7.497    18   8.95524  17   0.1   100   0.1   0     0     998.4    NA       0.0000   9999     0     0     0    
2019/06/14  06:24:00  BASE  6.92664  15   8.95524  17   0.1   100   0.1   0     0     998.5    NA       0.0000   9999     2230  0     0    
2019/06/14  06:25:00  BASE  7.13244  16   8.95524  17   0.1   100   0.1   0     0     998.4    NA       0.0000   9999     0     0     0    
2019/06/14  06:26:00  BASE  7.52052  18   8.95524  17   0.1   100   0.1   0     0     998.4    NA       0.0000   9999     0     0     0    
2019/06/14  06:27:00  BASE  7.6146   19   9.25512  22   0.1   100   0.1   0     0     998.4    NA       0.0000   9999     0     0     0    
2019/06/14  06:28:00  BASE  7.90272  19   9.25512  22   0.1   100   0.1   0     0     998.3    NA       0.0000   9999     0     0     0    
2019/06/14  06:29:00  BASE  7.69692  17   9.25512  22   0.1   100   0.1   0     0     998.4    NA       0.0000   9999     0     0     0    
2019/06/14  06:30:00  BASE  7.62048  16   9.25512  22   0.2   100   0.2   0     0     998.4    NA       0.0000   UP       9999  0     0    
2019/06/14  06:31:00  BASE  7.93212  15   9.61968  17   0.2   100   0.2   0     0     998.3    NA       0.0000   UP       9999  0     0    
2019/06/14  06:32:00  BASE  7.791    16   9.61968  17   0.2   100   0.2   0     0     998.3    NA       0.0000   UP       9999  0     0    
2019/06/14  06:33:00  BASE  8.07912  22   10.1312  24   0.1   100   0.1   0     0     998.3    NA       0.0000   UP       9999  0     0    
2019/06/14  06:34:00  BASE  8.82     24   10.1312  24   0.1   100   0.1   0     0     998.2    NA       0.0000   UP       9999  0     0    
2019/06/14  06:35:00  BASE  8.56128  19   10.1312  24   0.1   100   0.1   0     0     998.3    NA       0.0000   UP       9999  0     0    
2019/06/14  06:36:00  BASE  8.2614   18   10.1312  24   0.1   100   0.1   0     0     998.2    NA       0.0000   UP       9999  0     0    
2019/06/14  06:37:00  BASE  8.2614   18   10.1312  24   0.1   100   0.1   0     0     998.2    NA       0.0000   UP       9999  0     0    
2019/06/14  06:38:01  BASE  8.2908   19   10.1312  24   0.1   100   0.1   0     0     998.2    NA       0.0000   UP       9999  0     0    
2019/06/14  06:39:00  BASE  8.526    20   10.1312  24   0.1   100   0.1   0     0     998.1    NA       0.0000   UP       9999  0     0    
2019/06/14  06:40:01  BASE  8.66712  21   10.1312  24   0.1   100   0.1   0     0     998.1    NA       0.0000   UP       9999  0     0    
2019/06/14  06:41:00  BASE  8.62008  19   10.1312  24   0.1   100   0.1   0     0     998.1    NA       0.0000   UP       9999  0     0    
2019/06/14  06:42:00  BASE  8.39076  19   10.1312  24   0.1   100   0.1   0     0     998.1    NA       0.0000   UP       9999  0     0    
2019/06/14  06:43:01  BASE  8.03796  21   9.83136  18   0.1   100   0.1   0     0     998.1    NA       0.0000   UP       9999  0     0    
2019/06/14  06:44:00  BASE  8.00856  19   9.83136  18   0.1   100   0.1   0     0     998.1    NA       0.0000   UP       9999  0     0    
2019/06/14  06:45:00  BASE  8.1438   18   9.83136  18   0.1   100   0.1   0     0     998.1    NA       0.0000   UP       9999  0     0    
2019/06/14  06:46:00  BASE  8.13792  17   9.83136  18   0.1   100   0.1   0     0     998.1    NA       0.0000   UP       9999  0     0    
2019/06/14  06:47:00  BASE  8.16732  17   9.83136  18   0.1   100   0.1   0     0     998.1    NA       0.0000   UP       9999  0     0    
2019/06/14  06:48:00  BASE  8.26728  17   9.74316  24   0.0   100   0.0   0     0     998.1    NA       0.0000   UP       9999  0     0    
2019/06/14  06:49:00  BASE  8.4378   16   9.74316  24   0.0   100   0.0   0     0     998.0    NA       0.0000   UP       9999  0     0    
2019/06/14  06:50:01  BASE  8.37312  17   9.74316  24   0.0   100   0.0   0     0     998.0    NA       0.0000   UP       9999  0     0    
2019/06/14  06:51:00  BASE  8.1438   14   9.74316  24   0.0   100   0.0   0     0     998.0    NA       0.0000   UP       9999  0     0    
2019/06/14  06:52:00  BASE  7.9086   11   9.31392  15   0.0   100   0.0   0     0     998.1    NA       0.0000   UP       9999  0     0    
2019/06/14  06:53:00  BASE  7.68516  10   9.31392  15   0.0   100   0.0   0     0     998.1    NA       0.0000   UP       9999  0     0    
2019/06/14  06:54:00  BASE  7.73808  9    9.31392  15   0.0   100   0.0   0     0     998.1    NA       0.0000   UP       9999  390   0    
2019/06/14  06:55:00  BASE  8.07324  10   9.31392  15   0.0   100   0.0   0     0     998.0    NA       0.0000   UP       9999  390   3810 
2019/06/14  06:56:00  BASE  7.86156  9    9.31392  15   0.0   100   0.0   0     0     998.0    NA       0.0000   UP       9999  3480  0    
2019/06/14  06:57:00  BASE  7.80276  6    9.4668   1    0.0   100   0.0   0     0     997.9    NA       0.0000   UP       9999  3020  0    
2019/06/14  06:58:00  BASE  8.62008  6    10.437   360  0.0   100   0.0   0     0     997.8    NA       0.0000   UP       9999  3350  0    
2019/06/14  06:59:01  BASE  8.232    6    10.437   360  0.0   100   0.0   0     0     997.9    NA       0.0000   UP       9999  3510  0    
2019/06/14  07:00:01  BASE  7.95564  5    10.437   360  0.1   100   0.1   0     0     997.9    NA       0.0000   9999     3640  0     0    
2019/06/14  07:01:00  BASE  8.56716  6    10.437   360  0.1   100   0.1   0     0     997.8    NA       0.0000   9999     3580  0     0    
2019/06/14  07:02:00  BASE  8.44956  5    10.437   360  0.1   100   0.1   0     0     997.8    NA       0.0000   9999     3480  0     0    
2019/06/14  07:03:00  BASE  8.56716  5    10.437   360  0.1   100   0.1   0     0     997.7    NA       0.0000   9999     3480  0     0    
2019/06/14  07:04:00  BASE  8.71416  3    10.437   360  0.1   100   0.1   0     0     997.7    NA       0.0000   9999     3450  0     0    
2019/06/14  07:05:01  BASE  8.88468  3    10.7663  2    0.1   100   0.1   0     0     997.7    NA       0.0000   9999     460   0     0    
2019/06/14  07:06:00  BASE  9.86664  9    11.9188  22   0.1   100   0.1   0     0     997.6    NA       0.0000   9999     0     0     0    
2019/06/14  07:07:00  BASE  10.2724  11   11.9188  22   0.1   100   0.1   0     0     997.6    NA       0.0000   9999     0     0     0    
2019/06/14  07:08:00  BASE  10.3723  10   12.2186  6    0.1   100   0.1   0     0     997.5    NA       0.0000   9999     0     0     0    
2019/06/14  07:09:00  BASE  11.1485  12   12.2186  6    0.1   100   0.1   0     0     997.5    NA       0.0000   9999     0     0     0    
2019/06/14  07:10:00  BASE  11.2249  12   12.2186  6    0.1   100   0.1   0     0     997.5    NA       0.0000   9999     0     0     0    
2019/06/14  07:11:00  BASE  10.7192  13   12.2186  6    0.1   100   0.1   0     0     997.5    NA       0.0000   9999     0     0     0    
2019/06/14  07:12:00  BASE  10.2018  13   12.2186  6    0.1   100   0.1   0     0     997.6    NA       0.0000   9999     0     0     0    
2019/06/14  07:13:00  BASE  9.63732  14   12.2186  6    0.1   100   0.1   0     0     997.5    NA       0.0000   UP       9999  0     0    
2019/06/14  07:14:00  BASE  10.0724  17   12.2186  6    0.0   100   0.0   0     0     997.5    NA       0.0000   UP       9999  0     0    
2019/06/14  07:15:00  BASE  10.9544  17   12.2186  6    0.0   100   0.0   0     0     997.4    NA       0.0000   UP       9999  0     0    
2019/06/14  07:16:00  BASE  10.9662  17   12.2186  6    -0.0  100   -0.0  0     0     997.5    NA       0.0000   UP       9999  0     0    
2019/06/14  07:17:00  BASE  10.6604  17   12.2186  6    -0.0  100   -0.0  0     0     997.4    NA       0.0000   UP       9999  0     0    
2019/06/14  07:18:00  BASE  10.4546  15   12.1304  7    -0.0  100   -0.0  0     0     997.4    NA       0.0000   UP       9999  0     0    
2019/06/14  07:19:00  BASE  10.0136  14   12.0364  13   -0.1  100   -0.1  0     0     997.4    NA       0.0000   UP       9999  0     0    
2019/06/14  07:20:01  BASE  9.83136  16   12.0364  13   -0.1  100   -0.1  0     0     997.4    NA       0.0000   UP       9999  0     0    
2019/06/14  07:21:00  BASE  10.5781  18   12.1304  11   -0.1  100   -0.1  0     0     997.3    NA       0.0000   UP       9999  0     0    
2019/06/14  07:22:00  BASE  11.0309  17   12.1598  18   -0.1  100   -0.1  0     0     997.3    NA       0.0000   UP       9999  0     0    
2019/06/14  07:23:00  BASE  11.0426  17   13.036   18   -0.1  100   -0.1  0     0     997.3    NA       0.0000   UP       9999  330   0    
2019/06/14  07:24:00  BASE  11.0426  17   13.036   18   -0.1  100   -0.1  0     0     997.2    NA       0.0000   UP       9999  330   0    
2019/06/14  07:25:00  BASE  10.7486  16   13.036   18   -0.1  100   -0.1  0     0     997.2    NA       0.0000   UP       9999  0     0    
2019/06/14  07:26:00  BASE  10.8545  16   13.036   18   -0.1  100   -0.1  0     0     997.2    NA       0.0000   UP       9999  0     0    
2019/06/14  07:27:00  BASE  11.0544  16   13.036   18   -0.1  100   -0.1  0     0     997.2    NA       0.0000   UP       9999  0     0    
2019/06/14  07:28:00  BASE  11.0132  18   13.036   18   -0.1  100   -0.1  0     0     997.1    NA       0.0000   UP       9999  0     0    
2019/06/14  07:29:00  BASE  10.8604  18   13.036   18   -0.1  100   -0.1  0     0     997.1    NA       0.0000   UP       9999  0     0    
2019/06/14  07:30:00  BASE  10.8016  17   13.036   18   -0.1  100   -0.1  0     0     997.1    NA       0.0000   UP       9999  0     0    
2019/06/14  07:31:00  BASE  10.8545  18   13.036   18   -0.1  100   -0.1  0     0     997.1    NA       0.0000   UP       9999  0     0    
2019/06/14  07:32:00  BASE  11.1191  17   13.036   18   -0.1  100   -0.1  0     0     997.0    NA       0.0000   UP       9999  0     0    
2019/06/14  07:33:00  BASE  11.2896  16   12.7067  19   -0.1  100   -0.1  0     0     997.0    NA       0.0000   UP       9999  0     0    
2019/06/14  07:34:00  BASE  11.6542  18   12.8243  22   -0.1  100   -0.1  0     0     996.9    NA       0.0000   UP       9999  0     0    
2019/06/14  07:35:00  BASE  12.0775  21   13.4005  23   -0.1  100   -0.1  0     0     996.9    NA       0.0000   UP       9000  0     0    
2019/06/14  07:36:00  BASE  11.9482  22   13.4005  23   -0.1  100   -0.1  0     0     996.9    NA       0.0000   UP       8000  0     0    
2019/06/14  07:37:00  BASE  11.5836  19   13.4005  23   -0.1  100   -0.1  0     0     996.9    NA       0.2540   -SN      8000  0     0    
2019/06/14  07:38:00  BASE  11.5307  17   13.4005  23   -0.1  100   -0.1  0     0     996.9    NA       0.0000   -SN      8000  0     0    
2019/06/14  07:39:00  BASE  11.9658  18   14.306   16   -0.1  100   -0.1  0     0     996.8    NA       0.0000   -SN      8000  0     0    
2019/06/14  07:40:00  BASE  12.3774  19   14.306   16   -0.1  100   -0.1  0     0     996.7    NA       0.0000   -SN      BR    9000  0    
2019/06/14  07:41:00  BASE  12.0893  17   14.306   16   -0.1  100   -0.1  0     0     996.7    NA       0.0000   -SN      BR    9000  0    
2019/06/14  07:42:00  BASE  11.9599  16   14.306   16   -0.1  100   -0.1  0     0     996.7    NA       0.0000   -SN      BR    9999  0    
2019/06/14  07:43:00  BASE  12.2245  16   14.306   16   -0.1  100   -0.1  0     0     996.7    NA       0.0000   -SN      BR    9999  0    
2019/06/14  07:44:00  BASE  12.248   17   14.306   16   -0.1  100   -0.1  0     0     996.6    NA       0.0000   -SN      BR    9999  0    
2019/06/14  07:45:01  BASE  12.248   18   14.306   16   -0.1  100   -0.1  0     0     996.6    NA       0.0000   -SN      BR    9000  0    
2019/06/14  07:46:00  BASE  12.3774  17   14.306   16   -0.1  100   -0.1  0     0     996.6    NA       0.0000   -SN      BR    9000  0    
2019/06/14  07:47:00  BASE  12.201   16   14.306   16   -0.1  100   -0.1  0     0     996.6    NA       0.0000   -SN      BR    9999  0    
2019/06/14  07:48:00  BASE  11.9658  17   14.306   16   -0.1  100   -0.1  0     0     996.6    NA       0.0000   -SN      BR    9999  0    
2019/06/14  07:49:00  BASE  12.1422  18   14.2178  18   -0.1  100   -0.1  0     0     996.5    NA       0.0000   -SN      BR    9000  0    
2019/06/14  07:50:00  BASE  12.0834  18   14.2178  18   -0.1  100   -0.1  0     0     996.6    NA       0.0000   -SN      9999  0     0    
2019/06/14  07:51:00  BASE  12.0128  15   14.2178  18   -0.1  100   -0.1  0     0     996.5    NA       0.0000   -SN      9999  0     0    
2019/06/14  07:52:00  BASE  11.7365  15   14.2178  18   -0.1  100   -0.1  0     0     996.5    NA       0.0000   -SN      9999  0     0    
2019/06/14  07:53:00  BASE  11.9893  15   14.2178  18   -0.1  100   -0.1  0     0     996.4    NA       0.0000   -SN      9999  0     0    
2019/06/14  07:54:00  BASE  12.4832  15   14.2178  18   -0.1  100   -0.1  0     0     996.3    NA       0.0000   -SN      9999  0     0    
2019/06/14  07:55:01  BASE  12.5891  16   14.2178  18   -0.1  100   -0.1  0     0     996.3    NA       0.0000   -SN      9999  0     0    
2019/06/14  07:56:00  BASE  12.7831  16   14.2178  18   -0.0  100   -0.0  0     0     996.2    NA       0.0000   -SN      9999  0     0    
2019/06/14  07:57:00  BASE  12.5773  15   14.2178  18   -0.0  100   -0.0  0     0     996.3    NA       0.0000   -SN      9000  0     0    
2019/06/14  07:58:00  BASE  12.3068  13   13.9474  13   -0.0  100   -0.0  0     0     996.3    NA       0.0000   -SN      9000  0     0    
2019/06/14  07:59:01  BASE  12.1951  13   13.9474  13   0.0   100   0.0   0     0     996.3    NA       0.0000   -SN      9999  0     0    
2019/06/14  08:00:01  BASE  11.6012  12   13.9474  13   0.0   100   0.0   0     0     996.3    NA       0.0000   -SN      9999  0     0    
2019/06/14  08:01:01  BASE  11.2484  14   13.9474  13   0.0   100   0.0   0     0     996.3    NA       0.0000   -SN      9999  0     0    
2019/06/14  08:02:01  BASE  11.4954  14   13.9474  13   0.0   100   0.0   0     0     996.3    NA       0.0000   -SN      9999  0     0    
2019/06/14  08:03:01  BASE  11.5483  13   13.9474  13   0.0   100   0.0   0     0     996.3    NA       0.0000   -SN      9999  0     0    
2019/06/14  08:04:01  BASE  11.9423  14   13.9474  13   0.0   100   0.0   0     0     996.2    NA       0.0000   -SN      9999  0     0    
2019/06/14  08:05:01  BASE  11.9776  15   13.9474  13   0.0   100   0.0   0     0     996.3    NA       0.0000   -SN      9999  0     0    
2019/06/14  08:06:01  BASE  11.219   13   13.671   16   0.0   100   0.0   0     0     996.3    NA       0.0000   -SN      9999  0     0    
2019/06/14  08:07:01  BASE  11.0485  14   13.671   16   0.0   100   0.0   0     0     996.2    NA       0.0000   -SN      9999  0     0    
2019/06/14  08:08:00  BASE  11.5836  17   13.9474  11   0.0   100   0.0   0     0     996.2    NA       0.0000   -SN      9999  0     0    
2019/06/14  08:09:00  BASE  11.8717  16   13.9474  11   0.0   100   0.0   0     0     996.1    NA       0.0000   -SN      9000  0     0    
2019/06/14  08:10:00  BASE  11.9482  16   13.9474  11   0.0   100   0.0   0     0     996.2    NA       0.0000   -SN      7000  0     0    
2019/06/14  08:11:00  BASE  11.8658  17   13.9474  11   0.0   100   0.0   0     0     996.1    NA       0.0000   -SN      BR    6000  0    
2019/06/14  08:12:00  BASE  12.2716  18   13.9474  11   -0.0  100   -0.0  0     0     996.0    NA       0.0000   -SN      BR    6000  0    
2019/06/14  08:13:00  BASE  12.6949  19   13.9474  11   -0.0  100   -0.0  0     0     996.0    NA       0.0000   -SN      BR    6000  0    
2019/06/14  08:14:00  BASE  12.5714  16   13.9474  11   -0.0  100   -0.0  0     0     996.0    NA       0.0000   -SN      BR    6000  300  
2019/06/14  08:15:01  BASE  12.154   16   13.9474  11   -0.0  100   -0.0  0     0     996.0    NA       0.0000   -SN      BR    8000  260  
2019/06/14  08:16:00  BASE  11.907   17   13.9474  11   -0.0  100   -0.0  0     0     995.9    NA       0.0000   -SN      BR    7000  0    
2019/06/14  08:17:00  BASE  12.054   18   13.9474  11   -0.0  100   -0.0  0     0     996.0    NA       0.0000   -SN      BR    5000  0    
2019/06/14  08:18:00  BASE  12.2363  20   13.7357  13   -0.0  100   -0.0  0     0     995.9    NA       0.0000   -SN      BR    6000  0    
2019/06/14  08:19:00  BASE  12.9125  21   14.4883  15   -0.0  100   -0.0  0     0     995.8    NA       0.0000   -SN      BR    5000  0    
2019/06/14  08:20:00  BASE  13.7239  20   15.3056  23   0.0   100   0.0   0     0     995.8    NA       0.0000   -SN      BR    4500  0    
2019/06/14  08:21:00  BASE  13.5828  20   15.3056  23   0.0   100   0.0   0     0     995.7    NA       0.0000   -SN      BR    5000  0    
2019/06/14  08:22:00  BASE  12.9889  20   15.3056  23   0.0   100   0.0   0     0     995.8    NA       0.0000   -SN      BR    5000  0    
2019/06/14  08:23:00  BASE  12.7243  21   15.3056  23   0.0   100   0.0   0     0     995.8    NA       0.0000   -SN      BR    4500  0    
2019/06/14  08:24:00  BASE  13.1477  21   15.3056  23   0.0   100   0.0   0     0     995.7    NA       0.0000   -SN      BR    4300  0    
2019/06/14  08:25:00  BASE  13.9121  20   15.4585  23   0.0   100   0.0   0     0     995.7    NA       0.0000   -SN      BR    3600  0    
2019/06/14  08:26:00  BASE  14.1002  20   15.4585  23   0.0   100   0.0   0     0     995.7    NA       0.2540   -SN      BR    3400  0    
2019/06/14  08:27:00  BASE  13.9415  23   15.4585  23   0.0   100   0.0   0     0     995.7    NA       0.0000   -SN      BR    3400  0    
2019/06/14  08:28:00  BASE  13.8239  23   15.4585  23   0.0   100   0.0   0     0     995.6    NA       0.0000   -SN      BR    3700  0    
2019/06/14  08:29:00  BASE  13.7298  22   15.4585  23   0.0   100   0.0   0     0     995.7    NA       0.0000   -SN      BR    3700  0    
2019/06/14  08:30:00  BASE  13.9297  22   15.4585  23   0.0   100   0.0   0     0     995.5    NA       0.0000   -SN      BR    2600  0    
2019/06/14  08:31:00  BASE  13.5534  24   15.4585  23   0.1   100   0.1   0     0     995.7    NA       0.0000   -SN      BR    2500  0    
2019/06/14  08:32:00  BASE  12.7831  23   15.4585  23   0.1   100   0.1   0     0     995.6    NA       0.0000   -SN      BR    4700  0    
2019/06/14  08:33:00  BASE  12.8772  21   15.4585  23   0.1   100   0.1   0     0     995.6    NA       0.0000   -SN      BR    6000  0    
2019/06/14  08:34:00  BASE  13.1065  24   15.4585  23   0.1   100   0.1   0     0     995.5    NA       0.0000   -SN      BR    5000  0    
2019/06/14  08:35:01  BASE  12.7302  24   15.335   28   0.1   100   0.1   0     0     995.6    NA       0.0000   -SN      BR    4800  0    
2019/06/14  08:36:01  BASE  12.448   24   15.188   27   0.1   100   0.1   0     0     995.5    NA       0.0000   -SN      BR    5000  0    
2019/06/14  08:37:01  BASE  13.0477  24   14.8823  21   0.1   100   0.1   0     0     995.5    NA       0.0000   -SN      BR    4700  0    
2019/06/14  08:38:01  BASE  13.4593  24   14.8823  21   0.1   100   0.1   0     0     995.6    NA       0.0000   -SN      BR    3900  0    
2019/06/14  08:39:01  BASE  13.3711  23   15.094   23   0.1   100   0.1   0     0     995.5    NA       0.0000   -SN      BR    3800  0    
2019/06/14  08:40:01  BASE  13.8239  23   15.1528  26   0.1   100   0.1   0     0     995.4    NA       0.0000   -SN      BR    3500  0    
2019/06/14  08:41:01  BASE  14.0885  25   15.1528  25   0.1   100   0.1   0     0     995.4    NA       0.0000   -SN      BR    3400  0    
2019/06/14  08:42:01  BASE  13.7004  24   15.1528  25   0.1   100   0.1   0     0     995.4    NA       0.0000   -SN      BR    3200  0    
2019/06/14  08:43:01  BASE  13.0654  24   15.1528  25   0.1   100   0.1   0     0     995.5    NA       0.0000   -SN      BR    3400  0    
2019/06/14  08:44:01  BASE  13.2594  25   15.1528  25   0.1   100   0.1   0     0     995.4    NA       0.0000   -SN      BR    3700  0    
2019/06/14  08:45:01  BASE  13.6945  23   15.1528  25   0.1   100   0.1   0     0     995.5    NA       0.0000   -SN      BR    3800  0    
2019/06/14  08:46:01  BASE  13.0771  22   15.1528  25   0.1   100   0.1   0     0     995.5    NA       0.0000   -SN      BR    4700  230  
2019/06/14  08:47:01  BASE  13.0183  23   15.1528  25   0.1   100   0.1   0     0     995.4    NA       0.0000   -SN      BR    5000  0    
2019/06/14  08:48:01  BASE  13.3535  23   15.1528  25   0.1   100   0.1   0     0     995.4    NA       0.0000   -SN      BR    4300  0    
2019/06/14  08:49:00  BASE  13.1242  23   15.1528  25   0.1   100   0.1   0     0     995.4    NA       0.0000   -SN      BR    3600  0    
2019/06/14  08:50:00  BASE  13.0242  22   15.1528  25   0.1   100   0.1   0     0     995.4    NA       0.0000   -SN      BR    3300  0    
2019/06/14  08:51:00  BASE  12.9772  24   14.9117  19   0.1   100   0.1   0     0     995.4    NA       0.0000   -SN      BR    3000  0    
2019/06/14  08:52:00  BASE  12.7949  25   14.9117  19   0.1   100   0.1   0     0     995.4    NA       0.0000   -SN      BR    2900  0    
2019/06/14  08:53:00  BASE  12.8654  23   14.9117  19   0.1   100   0.1   0     0     995.3    NA       0.0000   -SN      BR    3100  0    
2019/06/14  08:54:00  BASE  12.6773  22   14.9117  19   0.2   100   0.2   0     0     995.3    NA       0.0000   -SN      BR    3600  0    
2019/06/14  08:55:00  BASE  12.542   24   14.9117  19   0.2   100   0.2   0     0     995.3    NA       0.0000   -SN      BR    3500  0    
2019/06/14  08:56:00  BASE  12.5597  24   14.9117  19   0.1   100   0.1   0     0     995.3    NA       0.0000   -SN      BR    3400  0    
2019/06/14  08:57:00  BASE  12.9242  23   15.188   25   0.1   100   0.1   0     0     995.2    NA       0.2540   -SN      BR    3500  0    
2019/06/14  08:58:00  BASE  12.8125  23   15.188   25   0.1   100   0.1   0     0     995.3    NA       0.0000   -SN      BR    3500  0    
2019/06/14  08:59:00  BASE  12.8419  22   15.188   25   0.1   100   0.1   0     0     995.1    NA       0.0000   -SN      BR    3400  0    
2019/06/14  09:00:00  BASE  12.9301  22   15.188   25   0.1   100   0.1   0     0     995.2    NA       0.0000   -SN      BR    3500  0    
2019/06/14  09:01:00  BASE  13.0889  24   15.188   25   0.1   100   0.1   0     0     995.1    NA       0.0000   -SN      BR    3500  0    
2019/06/14  09:02:00  BASE  13.1888  26   15.188   25   0.1   100   0.1   0     0     995.2    NA       0.0000   -SN      BR    3500  0    
2019/06/14  09:03:00  BASE  12.789   27   15.188   25   0.1   100   0.1   0     0     995.1    NA       0.0000   -SN      BR    3500  0    
2019/06/14  09:04:00  BASE  12.7008  26   15.188   25   0.1   100   0.1   0     0     995.2    NA       0.0000   -SN      BR    3500  0    
2019/06/14  09:05:00  BASE  12.9595  27   15.188   25   0.1   100   0.1   0     0     995.1    NA       0.0000   -SN      BR    3600  0    
2019/06/14  09:06:00  BASE  12.6773  27   15.188   25   0.1   100   0.1   0     0     995.2    NA       0.0000   -SN      BR    3700  0    
2019/06/14  09:07:01  BASE  12.2716  27   15.1528  23   0.1   100   0.1   0     0     995.1    NA       0.0000   -SN      BR    3700  0    
2019/06/14  09:08:01  BASE  12.4127  26   15.094   18   0.1   100   0.1   0     0     995.2    NA       0.0000   -SN      BR    4000  0    
2019/06/14  09:09:00  BASE  12.4774  26   15.0352  27   0.1   100   0.1   0     0     995.1    NA       0.0000   -SN      BR    4200  0    
2019/06/14  09:10:00  BASE  13.0124  25   15.0352  27   0.1   100   0.1   0     0     995.1    NA       0.0000   -SN      BR    4100  0    
2019/06/14  09:11:00  BASE  13.2065  24   14.7     31   0.1   100   0.1   0     0     995.0    NA       0.0000   -SN      BR    4200  0    
2019/06/14  09:12:00  BASE  12.6655  24   14.7     31   0.1   100   0.1   0     0     995.0    NA       0.0000   -SN      BR    4500  0    
2019/06/14  09:13:00  BASE  12.0364  24   14.5471  21   0.1   100   0.1   0     0     995.0    NA       0.0000   -SN      BR    4500  0    
2019/06/14  09:14:00  BASE  12.3833  24   14.5471  21   0.1   100   0.1   0     0     994.9    NA       0.0000   -SN      BR    4600  0    
2019/06/14  09:15:00  BASE  12.5891  28   14.5471  21   0.1   100   0.1   0     0     995.0    NA       0.0000   -SN      BR    4300  0    
2019/06/14  09:16:00  BASE  12.2598  28   14.5471  21   0.1   100   0.1   0     0     994.9    NA       0.0000   -SN      BR    4000  0    
2019/06/14  09:17:00  BASE  12.3774  26   14.5471  21   0.1   100   0.1   0     0     994.9    NA       0.0000   -SN      BR    4000  0    
2019/06/14  09:18:00  BASE  12.0305  27   14.5471  21   0.1   100   0.1   0     0     994.9    NA       0.0000   -SN      BR    4200  0    
2019/06/14  09:19:00  BASE  11.8423  26   14.5471  21   0.1   100   0.1   0     0     994.8    NA       0.0000   -SN      BR    4700  0    
2019/06/14  09:20:00  BASE  12.2128  26   14.5471  21   0.1   100   0.1   0     0     994.8    NA       0.0000   -SN      BR    4400  0    
2019/06/14  09:21:00  BASE  11.5777  27   14.1238  23   0.1   100   0.1   0     0     994.9    NA       0.0000   -SN      BR    3600  0    
2019/06/14  09:22:01  BASE  11.0015  26   14.1238  23   0.1   100   0.1   0     0     994.8    NA       0.0000   -SN      BR    3300  0    
2019/06/14  09:23:01  BASE  11.7776  26   14.1238  23   0.1   100   0.1   0     0     994.7    NA       0.0000   -SN      BR    3200  0    
2019/06/14  09:24:01  BASE  12.5362  26   14.1238  23   0.1   100   0.1   0     0     994.6    NA       0.0000   -SN      BR    2900  0    
2019/06/14  09:25:01  BASE  12.348   22   14.1238  23   0.1   100   0.1   0     0     994.6    NA       0.0000   -SN      BR    2900  0    
2019/06/14  09:26:01  BASE  11.5601  24   14.1238  23   0.1   100   0.1   0     0     994.6    NA       0.0000   -SN      BR    3300  0    
2019/06/14  09:27:01  BASE  11.7424  30   14.1238  23   0.2   100   0.2   0     0     994.6    NA       0.0000   -SN      BR    3000  0    
2019/06/14  09:28:01  BASE  12.5303  31   14.1238  23   0.2   100   0.2   0     0     994.5    NA       0.0000   -SN      BR    2500  0    
2019/06/14  09:29:01  BASE  12.5891  30   14.0356  31   0.2   100   0.2   0     0     994.6    NA       0.0000   -SN      BR    2500  0    
2019/06/14  09:30:01  BASE  12.9066  30   14.8235  35   0.2   100   0.2   0     0     994.5    NA       0.0000   -SN      BR    2500  0    
2019/06/14  09:31:00  BASE  13.2712  29   14.8235  35   0.2   100   0.2   0     0     994.4    NA       0.2540   -SN      BR    2500  0    
2019/06/14  09:32:00  BASE  13.7004  29   15.2762  39   0.2   100   0.2   0     0     994.3    NA       0.0000   -SN      BR    2700  0    
2019/06/14  09:33:00  BASE  14.0179  31   16.0348  36   0.2   100   0.2   0     0     994.4    NA       0.0000   -SN      BR    2600  0    
2019/06/14  09:34:00  BASE  13.5593  31   16.0348  36   0.2   100   0.2   0     0     994.4    NA       0.0000   -SN      BR    2600  0    
2019/06/14  09:35:00  BASE  13.1006  31   16.0348  36   0.2   100   0.2   0     0     994.4    NA       0.0000   -SN      BR    3000  0    
2019/06/14  09:36:00  BASE  13.2535  30   16.0348  36   0.2   100   0.2   0     0     994.3    NA       0.0000   -SN      BR    3400  0    
2019/06/14  09:37:00  BASE  13.6651  30   16.0348  36   0.2   100   0.2   0     0     994.2    NA       0.0000   -SN      BR    3400  0    
2019/06/14  09:38:00  BASE  13.2947  30   16.0348  36   0.2   100   0.2   0     0     994.4    NA       0.0000   -SN      BR    3300  0    
2019/06/14  09:39:00  BASE  12.9772  30   16.0348  36   0.3   100   0.3   0     0     994.3    NA       0.0000   -SN      BR    3100  0    
2019/06/14  09:40:01  BASE  13.5299  31   16.0348  36   0.3   100   0.3   0     0     994.3    NA       0.0000   -SN      BR    2900  0    
2019/06/14  09:41:00  BASE  14.3413  32   16.5463  32   0.3   100   0.3   0     0     994.1    NA       0.0000   -SN      BR    2800  0    
2019/06/14  09:42:00  BASE  14.653   33   16.5463  32   0.3   100   0.3   0     0     994.1    NA       0.0000   -SN      BR    2600  0    
2019/06/14  09:43:00  BASE  14.3942  34   16.5463  32   0.3   100   0.3   0     0     994.1    NA       0.0000   -SN      BR    2600  0    
2019/06/14  09:44:00  BASE  13.965   36   16.5463  32   0.3   100   0.3   0     0     994.2    NA       0.0000   -SN      BR    2500  0    
2019/06/14  09:45:00  BASE  14.0532  35   16.5463  32   0.3   100   0.3   0     0     994.1    NA       0.0000   -SN      BR    2400  0    
2019/06/14  09:46:00  BASE  13.4476  35   16.5463  32   0.3   100   0.3   0     0     994.2    NA       0.0000   -SN      BR    2300  0    
2019/06/14  09:47:00  BASE  13.624   33   16.5463  32   0.3   100   0.3   0     0     994.0    NA       0.0000   -SN      BR    2300  0    
2019/06/14  09:48:00  BASE  14.3296  30   16.5463  32   0.3   100   0.3   0     0     994.0    NA       0.0000   -SN      BR    2400  0    
2019/06/14  09:49:00  BASE  14.1238  30   16.5463  32   0.3   100   0.3   0     0     994.0    NA       0.0000   -SN      BR    2400  0    
2019/06/14  09:50:00  BASE  13.6063  31   16.5463  32   0.3   100   0.3   0     0     994.1    NA       0.0000   -SN      BR    2300  0    
2019/06/14  09:51:00  BASE  13.6181  32   16.3052  33   0.3   100   0.3   0     0     993.9    NA       0.0000   -SN      BR    2200  0    
2019/06/14  09:52:00  BASE  13.7416  30   16.3052  33   0.3   100   0.3   0     0     994.0    NA       0.0000   -SN      BR    2200  0    
2019/06/14  09:53:00  BASE  13.2359  29   16.3052  33   0.3   100   0.3   0     0     994.0    NA       0.0000   -SN      BR    2200  0    
2019/06/14  09:54:00  BASE  13.5358  31   16.1818  30   0.3   100   0.3   0     0     994.0    NA       0.0000   -SN      BR    2000  0    
2019/06/14  09:55:00  BASE  13.4299  32   16.1818  30   0.3   100   0.3   0     0     994.0    NA       0.0000   -SN      BR    1900  0    
2019/06/14  09:56:00  BASE  13.13    31   16.1818  30   0.3   100   0.3   0     0     994.0    NA       0.0000   -SN      BR    2400  0    
2019/06/14  09:57:00  BASE  13.0889  30   16.1818  30   0.3   100   0.3   0     0     994.0    NA       0.0000   -SN      BR    2500  0    
2019/06/14  09:58:00  BASE  13.0242  31   16.1818  30   0.3   100   0.3   0     0     994.0    NA       0.0000   -SN      BR    2500  0    
2019/06/14  09:59:00  BASE  12.9007  29   16.1818  30   0.3   100   0.3   0     0     994.0    NA       0.0000   -SN      BR    2600  0    
2019/06/14  10:00:00  BASE  12.9772  27   16.1818  30   0.3   100   0.3   0     0     994.0    NA       0.0000   -SN      BR    3000  0    
2019/06/14  10:01:00  BASE  12.4421  29   15.5173  35   0.3   100   0.3   0     0     994.0    NA       0.0000   -SN      BR    3000  0    
2019/06/14  10:02:01  BASE  11.9423  31   15.5173  35   0.3   100   0.3   0     0     994.0    NA       0.0000   -SN      BR    2600  0    
2019/06/14  10:03:01  BASE  12.395   31   15.5173  35   0.3   100   0.3   0     0     993.9    NA       0.0000   -SN      BR    1800  0    
2019/06/14  10:04:01  BASE  13.0183  31   14.6118  25   0.3   100   0.3   0     0     993.9    NA       0.0000   -SN      BR    1500  0    
2019/06/14  10:05:01  BASE  13.1888  30   14.7     32   0.3   100   0.3   0     0     993.9    NA       0.0000   -SN      BR    1600  0    
2019/06/14  10:06:01  BASE  12.9125  31   14.7     32   0.3   100   0.3   0     0     993.9    NA       0.0000   -SN      BR    1600  0    
2019/06/14  10:07:01  BASE  13.3006  33   14.8823  33   0.3   100   0.3   0     0     993.9    NA       0.0000   -SN      BR    1800  0    
2019/06/14  10:08:01  BASE  13.1771  32   14.8823  33   0.3   100   0.3   0     0     993.9    NA       0.0000   -SN      BR    1500  0    
2019/06/14  10:09:01  BASE  12.1128  30   14.8823  33   0.3   100   0.3   0     0     993.9    NA       0.0000   -SN      BR    1500  0    
2019/06/14  10:10:01  BASE  12.4832  30   14.8823  33   0.3   100   0.3   0     0     993.8    NA       0.0000   -SN      BR    1900  0    
2019/06/14  10:11:01  BASE  13.0242  30   14.8823  33   0.3   100   0.3   0     0     993.8    NA       0.0000   -SN      BR    2200  0    
2019/06/14  10:12:01  BASE  12.4774  28   14.8823  33   0.3   100   0.3   0     0     993.9    NA       0.0000   -SN      BR    2400  0    
2019/06/14  10:13:00  BASE  12.1657  29   14.8823  33   0.3   100   0.3   0     0     993.8    NA       0.0000   -SN      BR    2700  0    
2019/06/14  10:14:00  BASE  12.301   29   14.8823  33   0.3   100   0.3   0     0     993.7    NA       0.0000   -SN      BR    2900  0    
2019/06/14  10:15:00  BASE  11.8776  28   14.8823  33   0.3   100   0.3   0     0     993.8    NA       0.0000   -SN      BR    2900  0    
2019/06/14  10:16:00  BASE  12.0187  27   14.8823  33   0.3   100   0.3   0     0     993.8    NA       0.2540   -SN      BR    3000  0    
2019/06/14  10:17:00  BASE  12.448   29   14.3707  26   0.3   100   0.3   0     0     993.7    NA       0.0000   -SN      BR    2900  0    
2019/06/14  10:18:00  BASE  12.4127  29   14.3707  26   0.3   100   0.3   0     0     993.7    NA       0.0000   -SN      BR    3000  0    
2019/06/14  10:19:00  BASE  12.1187  29   14.3707  26   0.3   100   0.3   0     0     993.7    NA       0.0000   -SN      BR    3200  0    
2019/06/14  10:20:00  BASE  11.7424  31   14.3707  26   0.3   100   0.3   0     0     993.7    NA       0.0000   -SN      BR    2500  0    
2019/06/14  10:21:00  BASE  12.0246  30   14.3707  26   0.3   100   0.3   0     0     993.6    NA       0.0000   -SN      BR    2200  0    
2019/06/14  10:22:00  BASE  11.5601  29   14.3707  26   0.3   100   0.3   0     0     993.8    NA       0.0000   -SN      BR    3500  0    
2019/06/14  10:23:00  BASE  11.8541  29   14.3707  26   0.3   100   0.3   0     0     993.6    NA       0.0000   -SN      BR    3500  0    
2019/06/14  10:24:00  BASE  12.7714  27   14.3707  26   0.4   100   0.4   0     0     993.6    NA       0.0000   -SN      BR    2400  0    
2019/06/14  10:25:00  BASE  12.789   26   14.3707  26   0.4   100   0.4   0     0     993.6    NA       0.0000   -SN      BR    1700  0    
2019/06/14  10:26:00  BASE  12.8125  28   14.306   35   0.4   100   0.4   0     0     993.5    NA       0.0000   -SN      BR    2100  0    
2019/06/14  10:27:00  BASE  12.7302  29   14.306   35   0.4   100   0.4   0     0     993.6    NA       0.0000   -SN      BR    3500  0    
2019/06/14  10:28:00  BASE  12.2598  28   14.306   35   0.4   100   0.4   0     0     993.6    NA       0.0000   -SN      BR    3500  0    
2019/06/14  10:29:00  BASE  11.8306  27   14.306   35   0.4   100   0.4   0     0     993.5    NA       0.0000   -SN      BR    3500  0    
2019/06/14  10:30:00  BASE  12.1716  28   15.2174  29   0.4   100   0.4   0     0     993.4    NA       0.0000   -SN      BR    2400  0    
2019/06/14  10:31:00  BASE  12.7949  29   15.2174  29   0.4   100   0.4   0     0     993.4    NA       0.0000   -SN      BR    2200  0    
2019/06/14  10:32:00  BASE  12.7949  30   15.2174  29   0.4   100   0.4   0     0     993.5    NA       0.0000   -SN      BR    3100  0    
2019/06/14  10:33:00  BASE  12.4362  31   15.2174  29   0.4   100   0.4   0     0     993.4    NA       0.0000   -SN      BR    2900  0    
2019/06/14  10:34:00  BASE  12.5538  30   15.2174  29   0.4   100   0.4   0     0     993.4    NA       0.0000   -SN      BR    2700  0    
2019/06/14  10:35:00  BASE  13.0418  29   15.2174  29   0.4   100   0.4   0     0     993.4    NA       0.0000   -SN      BR    2400  0    
2019/06/14  10:36:00  BASE  13.0124  28   15.2174  29   0.4   100   0.4   0     0     993.4    NA       0.0000   -SN      BR    2300  0    
2019/06/14  10:37:00  BASE  12.1834  29   15.2174  29   0.4   100   0.4   0     0     993.4    NA       0.0000   -SN      BR    2300  0    
2019/06/14  10:38:00  BASE  11.8952  28   15.2174  29   0.4   100   0.4   0     0     993.4    NA       0.0000   -SN      BR    2600  0    
2019/06/14  10:39:00  BASE  12.1422  30   15.2174  29   0.4   100   0.4   0     0     993.4    NA       0.0000   -SN      BR    3000  0    
2019/06/14  10:40:00  BASE  12.4538  32   14.9411  28   0.4   100   0.4   0     0     993.4    NA       0.0000   -SN      BR    3300  0    
2019/06/14  10:41:00  BASE  12.2951  31   14.9411  28   0.4   100   0.4   0     0     993.4    NA       0.0000   -SN      BR    2400  0    
2019/06/14  10:42:00  BASE  11.7894  28   14.9411  28   0.4   100   0.4   0     0     993.4    NA       0.0000   -SN      BR    2600  0    
2019/06/14  10:43:01  BASE  12.007   28   14.9411  28   0.4   100   0.4   0     0     993.3    NA       0.0000   -SN      BR    5000  0    
2019/06/14  10:44:01  BASE  12.5362  29   14.9411  28   0.4   100   0.4   0     0     993.3    NA       0.0000   -SN      BR    2900  0    
2019/06/14  10:45:01  BASE  12.4009  29   14.2766  30   0.4   100   0.4   0     0     993.3    NA       0.0000   -SN      BR    2400  260  
2019/06/14  10:46:00  BASE  12.1951  26   14.2766  30   0.5   100   0.5   0     0     993.3    NA       0.0000   -SN      BR    3300  230  
2019/06/14  10:47:00  BASE  12.5126  25   14.2766  30   0.5   100   0.5   0     0     993.3    NA       0.0000   -SN      BR    3000  0    
2019/06/14  10:48:00  BASE  12.6479  28   14.2766  30   0.5   100   0.5   0     0     993.3    NA       0.0000   -SN      BR    2800  0    
2019/06/14  10:49:00  BASE  12.5362  31   14.2766  30   0.5   100   0.5   0     0     993.3    NA       0.0000   -SN      BR    2700  0    
2019/06/14  10:50:00  BASE  12.4891  29   14.159   28   0.5   100   0.5   0     0     993.3    NA       0.0000   -SN      BR    2600  0    
2019/06/14  10:51:00  BASE  12.7184  28   14.159   28   0.5   100   0.5   0     0     993.3    NA       0.0000   -SN      BR    2600  0    
2019/06/14  10:52:00  BASE  12.6008  27   14.159   28   0.5   100   0.5   0     0     993.3    NA       0.0000   -SN      BR    2600  0    
2019/06/14  10:53:00  BASE  12.7831  28   14.2178  23   0.5   100   0.5   0     0     993.2    NA       0.0000   -SN      BR    2800  0    
2019/06/14  10:54:00  BASE  12.9007  30   14.2178  23   0.5   100   0.5   0     0     993.2    NA       0.0000   -SN      BR    3100  0    
2019/06/14  10:55:00  BASE  12.5832  30   14.2178  23   0.5   100   0.5   0     0     993.2    NA       0.0000   -SN      BR    2900  0    
2019/06/14  10:56:00  BASE  12.1304  29   14.2178  23   0.4   100   0.4   0     0     993.3    NA       0.0000   -SN      BR    3300  0    
2019/06/14  10:57:00  BASE  11.86    30   14.2178  23   0.4   100   0.4   0     0     993.3    NA       0.0000   -SN      BR    3500  0    
2019/06/14  10:58:00  BASE  11.86    29   14.2178  23   0.4   100   0.4   0     0     993.2    NA       0.0000   -SN      BR    3400  0    
2019/06/14  10:59:00  BASE  11.8835  26   14.2178  23   0.4   100   0.4   0     0     993.2    NA       0.0000   -SN      BR    3400  0    
2019/06/14  11:00:00  BASE  11.9482  26   14.2178  23   0.4   100   0.4   0     0     993.2    NA       0.0000   -SN      BR    3700  0    
2019/06/14  11:01:00  BASE  11.9129  27   14.2178  23   0.4   100   0.4   0     0     993.2    NA       0.0000   -SN      BR    4100  0    
2019/06/14  11:02:00  BASE  11.86    28   14.2178  23   0.4   100   0.4   0     0     993.2    NA       0.0000   -SN      BR    3700  0    
2019/06/14  11:03:00  BASE  12.0011  28   14.4295  21   0.4   100   0.4   0     0     993.1    NA       0.0000   -SN      BR    3600  0    
2019/06/14  11:04:00  BASE  12.0422  27   14.4295  21   0.4   100   0.4   0     0     993.1    NA       0.0000   -SN      BR    4100  0    
2019/06/14  11:05:00  BASE  11.7894  30   14.4295  21   0.4   100   0.4   0     0     993.1    NA       0.0000   -SN      BR    4100  0    
2019/06/14  11:06:00  BASE  12.1951  31   14.7588  32   0.4   100   0.4   0     0     993.0    NA       0.0000   -SN      BR    3900  0    
2019/06/14  11:07:00  BASE  12.6596  31   14.7588  32   0.4   100   0.4   0     0     993.0    NA       0.0000   -SN      BR    3900  0    
2019/06/14  11:08:00  BASE  12.836   31   14.7588  32   0.4   100   0.4   0     0     992.9    NA       0.0000   -SN      BR    3900  0    
2019/06/14  11:09:00  BASE  12.5068  29   14.7588  32   0.4   100   0.4   0     0     993.0    NA       0.0000   -SN      BR    4100  0    
2019/06/14  11:10:00  BASE  11.954   28   14.7588  32   0.4   100   0.4   0     0     992.9    NA       0.0000   -SN      BR    4500  0    
2019/06/14  11:11:00  BASE  12.4597  28   14.7588  32   0.4   100   0.4   0     0     992.9    NA       0.0000   -SN      BR    5000  0    
2019/06/14  11:12:00  BASE  12.6832  29   14.7588  32   0.4   100   0.4   0     0     992.9    NA       0.0000   -SN      BR    5000  0    
2019/06/14  11:13:00  BASE  12.2833  29   14.7588  32   0.3   100   0.3   0     0     992.8    NA       0.0000   -SN      BR    5000  0    
2019/06/14  11:14:00  BASE  12.4715  28   14.7588  32   0.3   100   0.3   0     0     992.8    NA       0.0000   -SN      BR    6000  0    
2019/06/14  11:15:00  BASE  12.3304  29   14.7588  32   0.3   100   0.3   0     0     992.8    NA       0.0000   -SN      BR    6000  0    
2019/06/14  11:16:00  BASE  12.4774  29   14.9117  33   0.3   100   0.3   0     0     992.8    NA       0.2540   -SN      BR    7000  0    
2019/06/14  11:17:00  BASE  13.3652  29   15.4879  27   0.3   100   0.3   0     0     992.6    NA       0.0000   -SN      BR    7000  0    
2019/06/14  11:18:00  BASE  13.524   31   15.5173  31   0.3   100   0.3   0     0     992.7    NA       0.0000   -SN      BR    7000  0    
2019/06/14  11:19:00  BASE  12.9889  30   15.5173  31   0.3   100   0.3   0     0     992.7    NA       0.0000   -SN      BR    7000  0    
2019/06/14  11:20:00  BASE  12.6479  27   15.5173  31   0.3   100   0.3   0     0     992.6    NA       0.0000   -SN      BR    8000  0    
2019/06/14  11:21:00  BASE  12.2422  28   15.5173  31   0.3   100   0.3   0     0     992.7    NA       0.0000   -SN      BR    8000  0    
2019/06/14  11:22:00  BASE  12.1892  29   15.5173  31   0.3   100   0.3   0     0     992.6    NA       0.0000   -SN      BR    7000  0    
2019/06/14  11:23:00  BASE  12.9007  29   15.5173  31   0.3   100   0.3   0     0     992.6    NA       0.0000   -SN      BR    8000  0    
2019/06/14  11:24:00  BASE  12.9948  29   15.5173  31   0.3   100   0.3   0     0     992.6    NA       0.0000   -SN      BR    8000  0    
2019/06/14  11:25:00  BASE  12.9125  30   15.5173  31   0.3   100   0.3   0     0     992.5    NA       0.0000   -SN      BR    8000  0    
2019/06/14  11:26:00  BASE  13.1712  30   15.5173  31   0.3   100   0.3   0     0     992.5    NA       0.0000   -SN      BR    8000  0    
2019/06/14  11:27:00  BASE  13.1653  29   15.5173  31   0.3   100   0.3   0     0     992.5    NA       0.0000   -SN      BR    8000  0    
2019/06/14  11:28:00  BASE  12.9772  28   15.2762  25   0.3   100   0.3   0     0     992.5    NA       0.0000   -SN      BR    9000  0    
2019/06/14  11:29:00  BASE  13.3594  29   15.2762  29   0.3   100   0.3   0     0     992.4    NA       0.0000   -SN      BR    9999  0    
2019/06/14  11:30:00  BASE  13.0654  31   15.2762  29   0.3   100   0.3   0     0     992.5    NA       0.0000   -SN      BR    8000  0    
2019/06/14  11:31:00  BASE  12.6596  29   15.2762  29   0.3   100   0.3   0     0     992.3    NA       0.0000   -SN      BR    8000  0    
2019/06/14  11:32:00  BASE  13.1477  28   15.2762  29   0.3   100   0.3   0     0     992.3    NA       0.0000   -SN      BR    7000  0    
2019/06/14  11:33:00  BASE  12.9536  29   15.2762  29   0.3   100   0.3   0     0     992.4    NA       0.0000   -SN      BR    6000  0    
2019/06/14  11:34:00  BASE  12.689   26   15.2762  29   0.3   100   0.3   0     0     992.3    NA       0.0000   -SN      BR    6000  0    
2019/06/14  11:35:00  BASE  13.0477  26   15.2762  29   0.3   100   0.3   0     0     992.3    NA       0.0000   -SN      BR    6000  0    
2019/06/14  11:36:00  BASE  12.9654  29   15.2762  29   0.3   100   0.3   0     0     992.3    NA       0.0000   -SN      BR    5000  0    
2019/06/14  11:37:00  BASE  12.789   30   15.2762  29   0.3   100   0.3   0     0     992.2    NA       0.0000   -SN      BR    5000  0    
2019/06/14  11:38:00  BASE  13.1594  29   15.2762  29   0.4   100   0.4   0     0     992.2    NA       0.0000   -SN      BR    5000  0    
2019/06/14  11:39:00  BASE  13.524   29   15.8819  28   0.4   100   0.4   0     0     992.2    NA       0.0000   -SN      BR    5000  0    
2019/06/14  11:40:00  BASE  13.7416  30   15.8819  28   0.4   100   0.4   0     0     992.1    NA       0.0000   -SN      BR    5000  0    
2019/06/14  11:41:00  BASE  13.2065  31   15.8819  28   0.4   100   0.4   0     0     992.2    NA       0.0000   -SN      BR    5000  0    
2019/06/14  11:42:00  BASE  13.1006  32   15.8819  28   0.4   100   0.4   0     0     992.1    NA       0.0000   -SN      BR    5000  0    
2019/06/14  11:43:00  BASE  13.3123  32   15.8819  28   0.3   100   0.3   0     0     992.1    NA       0.0000   -SN      BR    7000  0    
2019/06/14  11:44:00  BASE  13.1771  30   15.8819  28   0.3   100   0.3   0     0     992.1    NA       0.0000   -SN      BR    9999  0    
2019/06/14  11:45:00  BASE  12.8948  29   15.8819  28   0.3   100   0.3   0     0     992.1    NA       0.0000   -SN      BR    9999  0    
2019/06/14  11:46:00  BASE  12.6361  30   15.8819  28   0.3   100   0.3   0     0     992.1    NA       0.0000   -SN      BR    9999  0    
2019/06/14  11:47:00  BASE  12.6361  31   15.8819  28   0.3   100   0.3   0     0     992.1    NA       0.0000   -SN      BR    3500  0    
2019/06/14  11:48:00  BASE  12.4891  30   15.8819  28   0.3   100   0.3   0     0     992.1    NA       0.0000   -SN      BR    2700  0    
2019/06/14  11:49:00  BASE  12.5479  32   14.9705  31   0.3   100   0.3   0     0     992.1    NA       0.0000   -SN      BR    3200  0    
2019/06/14  11:50:00  BASE  12.936   33   15.2762  30   0.3   100   0.3   0     0     992.1    NA       0.0000   -SN      BR    1500  0    
2019/06/14  11:51:00  BASE  13.2653  31   15.2762  30   0.3   100   0.3   0     0     992.0    NA       0.0000   -SN      BR    1300  0    
2019/06/14  11:52:00  BASE  12.7361  29   15.2762  30   0.3   100   0.3   0     0     992.0    NA       0.0000   -RA      BR    1400  0    
2019/06/14  11:53:00  BASE  12.2422  30   15.2762  30   0.3   100   0.3   0     0     992.0    NA       0.0000   -RA      BR    2000  0    
2019/06/14  11:54:00  BASE  12.6126  32   15.2762  30   0.3   100   0.3   0     0     991.9    NA       0.0000   -RA      BR    3100  0    
2019/06/14  11:55:00  BASE  12.5597  30   15.2762  30   0.3   100   0.3   0     0     991.9    NA       0.0000   -SN      BR    2800  0    
2019/06/14  11:56:00  BASE  11.8952  31   15.2762  30   0.3   100   0.3   0     0     992.0    NA       0.0000   -SN      BR    2600  0    
2019/06/14  11:57:00  BASE  12.1187  32   15.2762  30   0.3   100   0.3   0     0     991.9    NA       0.0000   -SN      BR    2300  0    
2019/06/14  11:58:00  BASE  12.7714  32   15.2762  30   0.4   100   0.4   0     0     991.9    NA       0.0000   -SN      BR    1600  0    
2019/06/14  11:59:00  BASE  12.8831  34   15.2762  30   0.4   100   0.4   0     0     991.8    NA       0.0000   -SN      BR    1500  0    
2019/06/14  12:00:00  BASE  12.8713  31   14.8235  29   0.4   100   0.4   0     0     991.8    NA       0.0000   -SN      BR    1900  0    
2019/06/14  12:01:00  BASE  12.5656  29   14.8235  29   0.4   100   0.4   0     0     991.9    NA       0.0000   -SN      BR    1700  0    
2019/06/14  12:02:00  BASE  11.8894  29   14.8235  29   0.4   100   0.4   0     0     991.9    NA       0.0000   -SN      BR    1900  0    
2019/06/14  12:03:00  BASE  11.7188  30   14.8235  29   0.4   100   0.4   0     0     991.9    NA       0.0000   -SN      BR    2100  0    
2019/06/14  12:04:00  BASE  12.3656  31   14.8235  29   0.4   100   0.4   0     0     991.8    NA       0.0000   -SN      BR    1900  0    
2019/06/14  12:05:00  BASE  12.9478  31   14.8235  29   0.4   100   0.4   0     0     991.7    NA       0.2540   -SN      BR    1400  0    
2019/06/14  12:06:00  BASE  12.8125  30   14.8235  29   0.4   100   0.4   0     0     991.7    NA       0.0000   -SN      BR    1200  0    
2019/06/14  12:07:00  BASE  12.3186  30   14.8235  29   0.4   100   0.4   0     0     991.7    NA       0.0000   -SN      BR    1300  0    
2019/06/14  12:08:01  BASE  12.2598  31   14.8235  29   0.4   100   0.4   0     0     991.8    NA       0.0000   -SN      BR    1400  0    
2019/06/14  12:09:01  BASE  11.9893  31   14.8235  29   0.4   100   0.4   0     0     991.7    NA       0.0000   -SN      BR    1100  0    
2019/06/14  12:10:01  BASE  12.0364  30   14.306   32   0.5   100   0.5   0     0     991.7    NA       0.0000   -SN      BR    1100  0    
2019/06/14  12:11:01  BASE  12.0246  30   14.306   32   0.5   100   0.5   0     0     991.7    NA       0.0000   -SN      BR    1000  0    
2019/06/14  12:12:01  BASE  11.9834  31   14.306   32   0.5   100   0.5   0     0     991.6    NA       0.0000   -SN      BR    1200  0    
2019/06/14  12:13:01  BASE  12.2363  30   14.306   32   0.5   100   0.5   0     0     991.7    NA       0.0000   -SN      BR    1500  0    
2019/06/14  12:14:01  BASE  11.4484  28   14.306   32   0.5   100   0.5   0     0     991.7    NA       0.0000   -SN      BR    1800  0    
2019/06/14  12:15:01  BASE  11.219   28   14.0356  27   0.5   100   0.5   0     0     991.6    NA       0.0000   -SN      BR    2000  0    
2019/06/14  12:16:01  BASE  12.2657  30   14.4589  34   0.5   100   0.5   0     0     991.5    NA       0.0000   -SN      BR    2300  0    
2019/06/14  12:17:01  BASE  12.3715  31   14.4589  34   0.5   100   0.5   0     0     991.6    NA       0.0000   -SN      BR    2500  0    
2019/06/14  12:18:01  BASE  11.7365  29   14.4589  34   0.5   100   0.5   0     0     991.6    NA       0.0000   -SN      BR    3100  0    
2019/06/14  12:19:01  BASE  12.3245  29   14.5471  29   0.5   100   0.5   0     0     991.5    NA       0.0000   -SN      BR    3600  230  
2019/06/14  12:20:01  BASE  12.9536  31   14.9117  33   0.5   100   0.5   0     0     991.5    NA       0.2540   -SN      BR    3500  300  
2019/06/14  12:21:01  BASE  12.3833  30   14.9117  33   0.5   100   0.5   0     0     991.5    NA       0.0000   -SN      BR    3600  0    
2019/06/14  12:22:01  BASE  11.8658  28   14.9117  33   0.5   100   0.5   0     0     991.5    NA       0.0000   -SN      BR    3400  0    
2019/06/14  12:23:01  BASE  11.8776  26   14.9117  33   0.5   100   0.5   0     0     991.5    NA       0.0000   -SN      BR    3600  0    
2019/06/14  12:24:01  BASE  12.2128  25   14.9117  33   0.5   100   0.5   0     0     991.4    NA       0.0000   -SN      BR    4000  0    
2019/06/14  12:25:01  BASE  12.6655  25   14.9117  33   0.5   100   0.5   0     0     991.4    NA       0.0000   -SN      BR    3800  360  
2019/06/14  12:26:01  BASE  12.542   26   14.9117  33   0.6   100   0.6   0     0     991.4    NA       0.0000   -SN      BR    3400  0    
2019/06/14  12:27:00  BASE  12.2363  27   14.9117  33   0.6   100   0.6   0     0     991.3    NA       0.0000   -SN      BR    3400  300  
2019/06/14  12:28:01  BASE  12.2833  27   14.9117  33   0.6   100   0.6   0     0     991.3    NA       0.0000   -SN      BR    3300  260  
2019/06/14  12:29:01  BASE  12.201   27   14.9117  33   0.6   100   0.6   0     0     991.4    NA       0.0000   -SN      BR    3100  0    
2019/06/14  12:30:00  BASE  12.4186  29   14.9411  29   0.6   100   0.6   0     0     991.3    NA       0.0000   -SN      BR    3200  260  
2019/06/14  12:31:00  BASE  13.0066  31   14.9411  29   0.6   100   0.6   0     0     991.2    NA       0.0000   -SN      BR    3400  0    
2019/06/14  12:32:00  BASE  12.9536  29   14.9411  29   0.6   100   0.6   0     0     991.3    NA       0.0000   -SN      BR    3400  0    
2019/06/14  12:33:00  BASE  12.2539  26   14.9411  29   0.6   100   0.6   0     0     991.3    NA       0.0000   -SN      BR    3300  0    
2019/06/14  12:34:00  BASE  11.9717  27   14.9411  29   0.6   100   0.6   0     0     991.3    NA       0.0000   -SN      BR    3900  0    
2019/06/14  12:35:00  BASE  12.101   29   14.9411  29   0.6   100   0.6   0     0     991.3    NA       0.0000   -SN      BR    4100  0    
2019/06/14  12:36:00  BASE  12.0599  29   14.9411  29   0.6   100   0.6   0     0     991.2    NA       0.0000   -SN      BR    3600  0    
2019/06/14  12:37:00  BASE  12.3715  28   14.9411  29   0.6   100   0.6   0     0     991.2    NA       0.0000   -SN      BR    4200  0    
2019/06/14  12:38:00  BASE  12.3304  28   14.9411  29   0.6   100   0.6   0     0     991.3    NA       0.0000   -SN      BR    5000  0    
2019/06/14  12:39:00  BASE  11.9482  27   14.9411  29   0.6   100   0.6   0     0     991.3    NA       0.0000   -SN      BR    5000  0    
2019/06/14  12:40:00  BASE  12.4244  26   14.8235  29   0.6   100   0.6   0     0     991.2    NA       0.0000   -SN      BR    6000  0    
2019/06/14  12:41:00  BASE  12.2833  27   14.159   31   0.6   100   0.6   0     0     991.2    NA       0.0000   -SN      BR    8000  390  
2019/06/14  12:42:00  BASE  11.7071  26   14.159   31   0.6   100   0.6   0     0     991.2    NA       0.2540   -SN      BR    9999  3870 
2019/06/14  12:43:00  BASE  11.6953  25   14.159   31   0.6   100   0.6   0     0     991.2    NA       0.0000   -SN      BR    9999  0    
2019/06/14  12:44:00  BASE  11.8776  25   14.159   31   0.6   100   0.6   0     0     991.1    NA       0.0000   -SN      BR    9999  0    
2019/06/14  12:45:00  BASE  12.3715  25   14.159   31   0.6   100   0.6   0     0     991.1    NA       0.0000   -SN      BR    9999  3810 
2019/06/14  12:46:00  BASE  12.742   24   14.0944  25   0.6   100   0.6   0     0     991.1    NA       0.0000   -SN      BR    9999  0    
2019/06/14  12:47:00  BASE  12.9007  23   14.4295  26   0.7   100   0.7   0     0     991.0    NA       0.0000   -SN      BR    9999  0    
2019/06/14  12:48:00  BASE  12.7126  23   14.4295  26   0.7   100   0.7   0     0     991.0    NA       0.0000   -SN      9999  0     0    
2019/06/14  12:49:00  BASE  12.5773  23   14.4295  26   0.7   100   0.7   0     0     991.0    NA       0.0000   -SN      9999  0     0    
2019/06/14  12:50:00  BASE  12.4009  23   14.4295  26   0.7   100   0.7   0     0     991.1    NA       0.0000   -SN      9999  0     0    
2019/06/14  12:51:00  BASE  12.4656  23   14.4295  26   0.8   100   0.8   0     0     991.0    NA       0.0000   -SN      8000  0     0    
2019/06/14  12:52:00  BASE  12.5126  24   14.4295  26   0.8   100   0.8   0     0     991.0    NA       0.0000   -SN      5000  0     0    
2019/06/14  12:53:00  BASE  11.8835  25   14.4295  26   0.8   100   0.8   0     0     991.1    NA       0.2540   -SN      5000  0     0    
2019/06/14  12:54:00  BASE  11.7894  24   14.4295  26   0.8   100   0.8   0     0     991.1    NA       0.0000   -SN      BR    7000  0    
2019/06/14  12:55:00  BASE  12.2539  24   14.4295  26   0.8   100   0.8   0     0     991.0    NA       0.0000   -SN      BR    7000  0    
2019/06/14  12:56:00  BASE  12.542   23   14.4295  26   0.8   100   0.8   0     0     991.0    NA       0.0000   -SN      BR    7000  0    
2019/06/14  12:57:00  BASE  12.3833  23   14.4295  26   0.8   100   0.8   0     0     991.1    NA       0.0000   -SN      BR    6000  0    
2019/06/14  12:58:00  BASE  11.86    21   13.9768  22   0.8   100   0.8   0     0     991.0    NA       0.0000   -SN      BR    7000  390  
2019/06/14  12:59:00  BASE  11.8247  21   13.9768  22   0.8   100   0.8   0     0     991.0    NA       0.0000   -SN      BR    7000  0    
2019/06/14  13:00:00  BASE  12.1304  22   13.9768  22   0.8   100   0.8   0     0     991.0    NA       0.0000   -SN      BR    7000  0    
2019/06/14  13:01:00  BASE  12.1951  22   13.9121  22   0.8   100   0.8   0     0     990.9    NA       0.0000   -SN      BR    5000  0    
2019/06/14  13:02:00  BASE  12.3715  24   13.9121  22   0.8   100   0.8   0     0     990.9    NA       0.0000   -SN      BR    4500  0    
2019/06/14  13:03:00  BASE  12.0952  26   13.9121  22   0.8   100   0.8   0     0     991.0    NA       0.0000   -SN      BR    4400  0    
2019/06/14  13:04:00  BASE  11.7306  25   13.9121  22   0.8   100   0.8   0     0     990.9    NA       0.0000   -SN      BR    4600  0    
2019/06/14  13:05:00  BASE  11.0132  24   13.7945  25   0.8   100   0.8   0     0     991.0    NA       0.0000   -SN      BR    4300  0    
2019/06/14  13:06:00  BASE  10.7251  23   13.7945  25   0.8   100   0.8   0     0     990.9    NA       0.0000   -SN      BR    5000  0    
2019/06/14  13:07:00  BASE  11.2837  25   13.7945  25   0.8   100   0.8   0     0     990.9    NA       0.0000   -SN      BR    8000  0    
2019/06/14  13:08:00  BASE  11.3602  26   13.7945  25   0.8   100   0.8   0     0     990.8    NA       0.0000   -SN      BR    9999  0    
2019/06/14  13:09:00  BASE  11.3719  26   13.7945  25   0.8   100   0.8   0     0     990.8    NA       0.0000   -SN      BR    9999  0    
2019/06/14  13:10:00  BASE  11.4425  25   13.7945  25   0.8   100   0.8   0     0     990.8    NA       0.0000   -SN      BR    9999  0    
2019/06/14  13:11:00  BASE  11.2426  24   13.7945  25   0.8   100   0.8   0     0     990.8    NA       0.0000   -SN      BR    9999  0    
2019/06/14  13:12:00  BASE  11.1838  24   12.9772  25   0.8   100   0.8   0     0     990.7    NA       0.0000   -SN      BR    9999  3740 
2019/06/14  13:13:00  BASE  11.3249  26   12.9772  25   0.8   100   0.8   0     0     990.7    NA       0.0000   -SN      BR    9999  0    
2019/06/14  13:14:00  BASE  11.2132  27   12.9772  25   0.8   100   0.8   0     0     990.7    NA       0.0000   -SN      BR    9999  4200 
2019/06/14  13:15:00  BASE  11.566   27   12.9772  25   0.8   100   0.8   0     0     990.5    NA       0.0000   -SN      9999  0     0    
2019/06/14  13:16:00  BASE  11.4131  26   12.9772  25   0.8   100   0.8   0     0     990.7    NA       0.0000   -SN      9999  4360  0    
2019/06/14  13:17:00  BASE  10.8133  27   12.9772  25   0.8   100   0.8   0     0     990.7    NA       0.0000   -SN      9999  0     0    
2019/06/14  13:18:00  BASE  10.5899  27   12.9772  25   0.8   100   0.8   0     0     990.7    NA       0.0000   -SN      9999  3970  0    
2019/06/14  13:19:00  BASE  10.7663  26   12.9772  25   0.8   100   0.8   0     0     990.6    NA       0.0000   -SN      9999  3900  0    
2019/06/14  13:20:00  BASE  10.7192  26   12.7655  25   0.8   100   0.8   0     0     990.6    NA       0.0000   -SN      9999  3710  0    
2019/06/14  13:21:01  BASE  10.7957  28   12.4303  27   0.8   100   0.8   0     0     990.6    NA       0.0000   9999     3510  0     0    
2019/06/14  13:22:01  BASE  10.7957  28   12.4303  27   0.8   100   0.8   0     0     990.6    NA       0.0000   9999     3480  0     0    
2019/06/14  13:23:01  BASE  11.0191  27   12.6126  35   0.8   100   0.8   0     0     990.5    NA       0.0000   9999     3540  0     0    
2019/06/14  13:24:01  BASE  11.6659  28   12.9772  27   0.8   100   0.8   0     0     990.5    NA       0.0000   9999     3540  0     0    
2019/06/14  13:25:01  BASE  11.6483  30   12.9772  27   0.8   100   0.8   0     0     990.5    NA       0.0000   9999     3480  0     0    
2019/06/14  13:26:01  BASE  11.1896  29   12.9772  27   0.8   100   0.8   0     0     990.5    NA       0.0000   9999     3050  3670  0    
2019/06/14  13:27:01  BASE  10.8956  27   12.9772  27   0.9   100   0.9   0     0     990.5    NA       0.0000   9999     3450  0     0    
2019/06/14  13:28:01  BASE  10.8427  27   12.9772  27   0.9   100   0.9   0     0     990.5    NA       0.0000   9999     3580  0     0    
2019/06/14  13:29:01  BASE  11.1426  26   12.9772  27   0.9   100   0.9   0     0     990.4    NA       0.0000   9999     2430  3480  0    
2019/06/14  13:30:01  BASE  11.6659  27   12.9772  27   0.9   100   0.9   0     0     990.4    NA       0.0000   9999     2430  3480  0    
2019/06/14  13:31:01  BASE  11.5072  27   12.9772  27   0.9   100   0.9   0     0     990.4    NA       0.0000   9999     2460  0     0    
2019/06/14  13:32:01  BASE  10.9662  26   12.9772  27   0.9   100   0.9   0     0     990.4    NA       0.0000   9999     2400  0     0    
2019/06/14  13:33:01  BASE  11.2837  25   13.3417  25   0.9   100   0.9   0     0     990.3    NA       0.0000   9999     2430  3380  0    
2019/06/14  13:34:01  BASE  11.5777  26   13.3417  25   1.0   100   1.0   0     0     990.3    NA       0.0000   9999     3480  0     0    
2019/06/14  13:35:01  BASE  11.2543  27   13.3417  25   0.9   100   0.9   0     0     990.3    NA       0.0000   9999     3380  0     0    
2019/06/14  13:36:01  BASE  11.6542  26   13.4005  26   1.0   100   1.0   0     0     990.2    NA       0.0000   9999     2490  3310  0    
2019/06/14  13:37:01  BASE  11.9129  25   13.4005  26   1.0   100   1.0   0     0     990.2    NA       0.0000   7000     390   0     0    
2019/06/14  13:38:00  BASE  11.7659  24   13.4005  26   1.0   100   1.0   0     0     990.1    NA       0.0000   -SN      4200  300   0    
2019/06/14  13:39:00  BASE  11.66    26   13.4005  26   1.0   100   1.0   0     0     990.2    NA       0.0000   -SN      BR    3600  300  
2019/06/14  13:40:00  BASE  11.5189  27   13.4005  26   1.0   100   1.0   0     0     990.1    NA       0.0000   -SN      BR    4800  0    
2019/06/14  13:41:00  BASE  11.025   27   13.4005  26   0.9   100   0.9   0     0     990.2    NA       0.0000   -SN      BR    9999  0    
2019/06/14  13:42:00  BASE  10.7898  25   13.4005  26   0.9   100   0.9   0     0     990.1    NA       0.0000   -SN      BR    9999  0    
2019/06/14  13:43:00  BASE  10.8016  24   13.4005  26   0.9   100   0.9   0     0     990.2    NA       0.0000   -SN      BR    9999  0    
2019/06/14  13:44:00  BASE  10.6957  24   13.4005  26   0.9   100   0.9   0     0     990.1    NA       0.0000   -SN      BR    9999  2560 
2019/06/14  13:45:00  BASE  10.5899  24   13.4005  26   0.9   100   0.9   0     0     990.2    NA       0.0000   -SN      BR    9999  2530 
2019/06/14  13:46:00  BASE  10.1665  26   12.7949  16   0.9   100   0.9   0     0     990.2    NA       0.0000   -SN      BR    9999  2430 
2019/06/14  13:47:00  BASE  9.96072  26   12.7949  16   0.9   100   0.9   0     0     990.2    NA       0.0000   -SN      BR    9999  0    
2019/06/14  13:48:00  BASE  10.6546  26   12.7067  29   0.9   100   0.9   0     0     990.1    NA       0.0000   -SN      BR    9999  0    
2019/06/14  13:49:00  BASE  10.8427  26   12.7067  29   0.9   100   0.9   0     0     990.1    NA       0.0000   -SN      9999  2360  0    
2019/06/14  13:50:00  BASE  10.8368  25   12.642   26   0.9   100   0.9   0     0     990.0    NA       0.0000   -SN      9999  2360  0    
2019/06/14  13:51:00  BASE  11.1896  26   12.642   26   0.9   100   0.9   0     0     990.0    NA       0.0000   -SN      9999  2490  0    
2019/06/14  13:52:00  BASE  10.9838  26   12.642   26   0.9   100   0.9   0     0     990.0    NA       0.2540   -SN      9999  0     0    
2019/06/14  13:53:00  BASE  10.6193  26   12.642   26   0.9   100   0.9   0     0     990.0    NA       0.0000   -SN      9999  0     0    
2019/06/14  13:54:00  BASE  10.9427  24   12.642   26   0.9   100   0.9   0     0     989.9    NA       0.0000   -SN      9999  0     0    
2019/06/14  13:55:00  BASE  11.1955  24   12.642   26   0.9   100   0.9   0     0     990.0    NA       0.0000   -SN      9999  0     0    
2019/06/14  13:56:00  BASE  10.437   25   12.642   26   0.9   100   0.9   0     0     990.0    NA       0.0000   -SN      9999  0     0    
2019/06/14  13:57:00  BASE  10.143   26   12.642   26   0.9   100   0.9   0     0     990.0    NA       0.0000   -SN      9999  0     0    
2019/06/14  13:58:00  BASE  10.7545  26   12.642   26   0.9   100   0.9   0     0     989.9    NA       0.0000   -SN      9999  0     0    
2019/06/14  13:59:00  BASE  11.1308  25   12.889   22   0.8   100   0.8   0     0     989.9    NA       0.0000   9999     0     0     0    
2019/06/14  14:00:00  BASE  11.1367  24   12.889   22   0.8   100   0.8   1     0     989.8    NA       0.0000   9999     1440  0     0    
2019/06/14  14:01:00  BASE  10.9897  25   12.889   22   0.8   100   0.8   1     0     989.8    NA       0.0000   9999     1640  0     0    
2019/06/14  14:02:00  BASE  10.9309  26   12.889   22   0.8   100   0.8   1     0     989.8    NA       0.0000   9999     2490  0     0    
2019/06/14  14:03:00  BASE  10.7604  27   12.889   22   0.8   100   0.8   1     0     989.8    NA       0.0000   9999     0     0     0    
2019/06/14  14:04:00  BASE  10.8192  29   12.889   22   0.8   100   0.8   1     0     989.7    NA       0.0000   9999     2790  0     0    
2019/06/14  14:05:01  BASE  11.2367  31   12.889   22   0.8   100   0.8   1     0     989.7    NA       0.0000   9999     2300  0     0    
2019/06/14  14:06:00  BASE  11.1073  30   12.889   22   0.9   100   0.9   1     0     989.7    NA       0.0000   9999     2690  0     0    
2019/06/14  14:07:00  BASE  11.0426  29   12.889   22   0.9   100   0.9   1     0     989.7    NA       0.0000   9999     3450  0     0    
2019/06/14  14:08:00  BASE  11.0426  28   12.889   22   0.9   100   0.9   1     0     989.6    NA       0.0000   9999     3350  0     0    
2019/06/14  14:09:00  BASE  11.1191  28   12.8243  28   0.9   100   0.9   1     0     989.6    NA       0.0000   9999     3380  0     0    
2019/06/14  14:10:00  BASE  10.8486  29   12.8243  28   0.9   100   0.9   1     0     989.6    NA       0.0000   9999     3350  0     0    
2019/06/14  14:11:00  BASE  10.6487  28   12.8243  28   0.9   100   0.9   1     0     989.6    NA       0.0000   9999     3310  0     0    
2019/06/14  14:12:00  BASE  10.8898  26   12.8243  28   0.9   100   0.9   1     0     989.5    NA       0.0000   9999     3180  0     0    
2019/06/14  14:13:00  BASE  11.1308  25   12.8243  28   0.9   100   0.9   1     0     989.4    NA       0.0000   9999     4100  0     0    
2019/06/14  14:14:00  BASE  11.6306  26   12.9772  30   0.9   100   0.9   1     0     989.4    NA       0.0000   9999     3250  0     0    
2019/06/14  14:15:00  BASE  11.3719  25   12.9772  30   0.9   100   0.9   1     0     989.5    NA       0.0000   9999     3310  0     0    
2019/06/14  14:16:00  BASE  11.2014  24   13.036   19   1.0   100   1.0   1     0     989.5    NA       0.0000   9999     3180  0     0    
2019/06/14  14:17:00  BASE  11.5483  24   13.036   19   1.0   100   1.0   1     0     989.4    NA       0.0000   9999     2360  3120  0    
2019/06/14  14:18:00  BASE  11.7424  24   13.036   19   1.0   100   1.0   1     0     989.4    NA       0.0000   9999     3080  0     0    
2019/06/14  14:19:00  BASE  12.2069  26   13.5534  22   1.0   100   1.0   1     0     989.4    NA       0.0000   9999     2990  0     0    
2019/06/14  14:20:00  BASE  12.448   24   13.5534  22   1.0   100   1.0   1     0     989.3    NA       0.2540   9999     2230  0     0    
2019/06/14  14:21:00  BASE  12.4774  23   13.6416  22   1.0   100   1.0   1     0     989.4    NA       0.0000   9999     2400  0     0    
2019/06/14  14:22:00  BASE  12.6773  23   13.6416  22   1.0   100   0.9   1     0     989.3    NA       0.0000   9999     3080  0     0    
2019/06/14  14:23:00  BASE  12.5244  22   13.6416  22   1.0   99    0.9   1     0     989.3    NA       0.0000   9999     3050  0     0    
2019/06/14  14:24:00  BASE  12.448   23   13.7651  23   1.0   99    0.9   1     0     989.3    NA       0.0000   9999     2330  3080  0    
2019/06/14  14:25:00  BASE  12.3539  23   13.7651  23   1.0   99    0.9   1     0     989.3    NA       0.0000   9999     3540  0     0    
2019/06/14  14:26:00  BASE  12.1481  22   13.7651  23   1.0   99    0.9   1     0     989.3    NA       0.0000   9999     3740  0     0    
2019/06/14  14:27:00  BASE  12.0834  22   13.7651  23   1.0   99    0.9   2     0     989.3    NA       0.0000   9999     0     0     0    
2019/06/14  14:28:00  BASE  11.7894  22   13.7651  23   1.0   99    0.8   2     0     989.3    NA       0.0000   9999     0     0     0    
2019/06/14  14:29:00  BASE  11.6718  23   13.7651  23   1.0   99    0.8   2     0     989.2    NA       0.0000   9999     0     0     0    
2019/06/14  14:30:00  BASE  11.9952  24   13.7651  23   1.0   99    0.9   2     0     989.2    NA       0.0000   9999     0     0     0    
2019/06/14  14:31:00  BASE  11.8012  24   13.7651  23   1.0   99    0.9   2     0     989.2    NA       0.0000   9999     0     0     0    
2019/06/14  14:32:00  BASE  11.4248  24   13.7651  23   1.0   99    0.9   2     0     989.2    NA       0.0000   9999     0     0     0    
2019/06/14  14:33:00  BASE  11.76    24   13.7651  23   1.0   99    0.9   2     0     989.2    NA       0.0000   9999     0     0     0    
2019/06/14  14:34:00  BASE  12.0775  24   13.4299  24   1.0   99    0.9   2     0     989.1    NA       0.0000   9999     0     0     0    
2019/06/14  14:35:00  BASE  12.2892  24   13.4299  24   1.0   99    0.9   2     0     989.1    NA       0.0000   9999     0     0     0    
2019/06/14  14:36:00  BASE  12.2245  25   13.4299  24   1.0   99    0.9   2     0     989.1    NA       0.0000   9999     0     0     0    
2019/06/14  14:37:00  BASE  11.5836  27   13.4299  24   1.0   99    0.9   2     0     989.1    NA       0.0000   9999     3940  0     0    
2019/06/14  14:38:01  BASE  11.2896  27   13.4299  24   1.0   99    0.9   3     0     989.1    NA       0.0000   9999     3840  0     0    
2019/06/14  14:39:01  BASE  11.7894  27   13.4299  24   1.0   99    0.9   3     0     989.1    NA       0.0000   UP       9999  0     0    
2019/06/14  14:40:01  BASE  11.3014  28   13.4299  24   1.0   99    0.9   3     0     989.1    NA       0.0000   UP       9999  0     0    
2019/06/14  14:41:01  BASE  10.4017  27   13.4299  24   1.0   99    0.9   3     0     989.2    NA       0.0000   UP       9999  0     0    
2019/06/14  14:42:01  BASE  10.731   28   13.4299  24   1.0   99    0.9   4     0     989.1    NA       0.0000   UP       9999  0     0    
2019/06/14  14:43:01  BASE  11.0368  27   13.4299  24   1.0   99    0.9   4     0     989.1    NA       0.0000   UP       9999  0     0    
2019/06/14  14:44:01  BASE  10.6722  25   13.3417  22   1.0   100   0.9   4     0     989.0    NA       0.0000   UP       9999  0     0    
2019/06/14  14:45:00  BASE  10.2194  26   13.036   26   1.0   100   1.0   4     0     989.0    NA       0.0000   UP       9999  0     0    
2019/06/14  14:46:00  BASE  9.83724  26   12.9772  27   1.0   100   1.0   4     0     989.1    NA       0.0000   UP       9999  0     0    
2019/06/14  14:47:00  BASE  9.94308  26   12.9772  27   1.0   100   0.9   4     0     989.0    NA       0.0000   UP       9999  0     0    
2019/06/14  14:48:00  BASE  10.4488  27   12.9772  27   1.0   100   0.9   4     0     989.0    NA       0.0000   UP       9999  0     0    
2019/06/14  14:49:00  BASE  10.2253  26   12.889   26   1.0   100   0.9   4     0     989.0    NA       0.0000   UP       8000  0     0    
2019/06/14  14:50:00  BASE  9.35508  26   12.889   26   1.0   99    0.9   4     0     989.1    NA       0.0000   UP       7000  3450  0    
2019/06/14  14:51:00  BASE  8.89644  27   12.889   26   0.9   100   0.9   4     0     989.0    NA       0.0000   UP       9999  2330  0    
2019/06/14  14:52:00  BASE  8.86704  25   12.889   26   0.9   100   0.9   4     0     989.0    NA       0.0000   UP       9999  2260  0    
2019/06/14  14:53:00  BASE  9.29628  25   12.889   26   0.9   100   0.9   4     0     988.9    NA       0.0000   UP       9999  2330  0    
2019/06/14  14:54:00  BASE  9.66084  26   11.6777  25   0.9   100   0.9   4     0     988.9    NA       0.0000   UP       9999  2260  2950 
2019/06/14  14:55:00  BASE  9.71964  26   11.6777  25   0.9   100   0.9   4     0     988.9    NA       0.0000   UP       9999  3610  0    
2019/06/14  14:56:00  BASE  9.8196   26   11.6777  25   0.9   100   0.9   4     0     988.9    NA       0.0000   UP       9999  2530  4230 
2019/06/14  14:57:00  BASE  10.143   25   11.4954  25   0.9   100   0.9   4     0     988.8    NA       0.0000   UP       9999  2820  4130 
2019/06/14  14:58:00  BASE  10.5076  23   11.3131  20   1.0   100   0.9   4     0     988.8    NA       0.0000   UP       9999  2950  3540 
2019/06/14  14:59:00  BASE  10.2665  23   11.3131  20   1.0   100   0.9   4     0     988.8    NA       0.0000   UP       9999  2660  3810 
2019/06/14  15:00:00  BASE  9.97836  23   11.3131  20   1.0   99    0.9   4     0     988.8    NA       0.0000   UP       9999  3480  0    
2019/06/14  15:01:00  BASE  10.2136  23   11.3131  20   1.0   99    0.9   4     0     988.7    NA       0.0000   UP       9999  2660  0    
2019/06/14  15:02:00  BASE  9.96072  22   11.3131  20   1.0   99    0.9   4     0     988.8    NA       0.0000   UP       9999  4040  0    
2019/06/14  15:03:00  BASE  9.996    20   11.3131  20   1.0   99    0.9   4     0     988.6    NA       0.0000   9999     2760  0     0    
2019/06/14  15:04:00  BASE  10.4076  19   11.3131  20   1.0   99    0.9   4     0     988.7    NA       0.0000   9999     3970  0     0    
2019/06/14  15:05:00  BASE  10.043   18   11.3131  20   1.0   99    0.9   4     0     988.7    NA       0.0000   9999     720   2620  0    
2019/06/14  15:06:00  BASE  9.97248  17   11.4366  26   1.0   99    0.9   4     0     988.7    NA       0.0000   9999     980   0     0    
2019/06/14  15:07:00  BASE  10.043   19   11.4366  26   1.0   99    0.9   5     0     988.7    NA       0.0000   9999     720   0     0    
2019/06/14  15:08:00  BASE  9.6138   18   11.4366  26   1.0   99    0.8   5     0     988.7    NA       0.0000   9999     1210  0     0    
2019/06/14  15:09:00  BASE  9.51972  16   11.4366  26   1.0   99    0.8   5     0     988.7    NA       0.0000   9999     660   0     0    
2019/06/14  15:10:00  BASE  9.71376  15   11.4366  26   1.0   98    0.8   5     0     988.7    NA       0.0000   9999     0     0     0    
2019/06/14  15:11:00  BASE  9.5844   15   11.4366  26   1.0   98    0.7   5     0     988.6    NA       0.0000   9999     0     0     0    
2019/06/14  15:12:00  BASE  9.69024  16   11.4366  26   1.0   98    0.7   5     0     988.6    NA       0.0000   9999     0     0     0    
2019/06/14  15:13:00  BASE  9.60792  16   11.4366  26   1.0   98    0.7   6     0     988.6    NA       0.0000   9999     460   0     0    
2019/06/14  15:14:00  BASE  9.27276  16   11.4366  26   1.0   98    0.7   6     0     988.7    NA       0.0000   UP       9999  430   0    
2019/06/14  15:15:00  BASE  9.5844   15   11.4366  26   1.0   98    0.7   6     0     988.6    NA       0.0000   UP       9999  620   0    
2019/06/14  15:16:00  BASE  9.71376  13   10.8016  22   1.0   98    0.7   6     0     988.6    NA       0.0000   UP       9999  620   0    
2019/06/14  15:17:00  BASE  9.14928  12   10.7369  17   1.0   98    0.7   6     0     988.6    NA       0.0000   UP       9999  1870  0    
2019/06/14  15:18:00  BASE  9.38448  12   10.7369  17   1.0   98    0.7   5     0     988.5    NA       0.0000   UP       9999  430   0    
2019/06/14  15:19:00  BASE  9.51972  12   10.7369  17   1.0   98    0.8   5     0     988.6    NA       0.0000   UP       9999  1770  0    
2019/06/14  15:20:00  BASE  9.44328  13   10.7369  17   1.0   99    0.8   5     0     988.6    NA       0.0000   UP       9999  2030  0    
2019/06/14  15:21:00  BASE  9.91368  11   10.7369  17   1.0   99    0.8   5     0     988.5    NA       0.0000   UP       9999  1900  0    
2019/06/14  15:22:00  BASE  9.77256  10   10.7369  17   1.0   99    0.8   5     0     988.5    NA       0.0000   UP       9999  1740  0    
2019/06/14  15:23:00  BASE  9.09636  11   10.7369  17   1.0   99    0.8   5     0     988.6    NA       0.0000   UP       9999  1840  0    
2019/06/14  15:24:00  BASE  9.09636  10   10.7369  17   0.9   99    0.8   5     0     988.5    NA       0.0000   UP       9999  2530  0    
2019/06/14  15:25:00  BASE  9.53148  9    10.6193  17   0.9   99    0.8   5     0     988.4    NA       0.0000   UP       9999  1800  2590 
2019/06/14  15:26:00  BASE  9.48444  10   10.6193  17   0.9   99    0.8   5     0     988.4    NA       0.0000   UP       9999  1840  2660 
2019/06/14  15:27:00  BASE  9.51384  10   10.6193  17   0.9   99    0.8   5     0     988.4    NA       0.0000   UP       9999  1900  2590 
2019/06/14  15:28:00  BASE  9.7902   11   10.6193  17   0.9   100   0.8   5     0     988.3    NA       0.0000   UP       9999  1740  0    
2019/06/14  15:29:00  BASE  9.89604  13   11.9188  13   0.9   100   0.9   5     0     988.3    NA       0.0000   UP       9999  1870  0    
2019/06/14  15:30:00  BASE  9.91368  14   11.9188  13   0.9   100   0.9   5     0     988.3    NA       0.0000   UP       9999  2300  0    
2019/06/14  15:31:00  BASE  9.77256  13   11.9188  13   0.9   100   0.9   5     0     988.3    NA       0.0000   9999     0     0     0    
2019/06/14  15:32:00  BASE  9.702    12   11.9188  13   0.9   100   0.9   5     0     988.3    NA       0.0000   9999     0     0     0    
2019/06/14  15:33:00  BASE  10.0666  10   11.9188  13   0.9   100   0.9   6     0     988.2    NA       0.0000   9999     0     0     0    
2019/06/14  15:34:00  BASE  10.3664  12   11.9188  13   0.9   100   0.9   6     0     988.2    NA       0.0000   9999     1940  0     0    
2019/06/14  15:35:00  BASE  10.4488  12   11.9188  13   0.9   100   0.9   6     0     988.1    NA       0.0000   9999     0     0     0    
2019/06/14  15:36:00  BASE  10.3488  10   11.9188  13   0.9   100   0.9   6     0     988.2    NA       0.0000   9999     0     0     0    
2019/06/14  15:37:00  BASE  10.096   9    11.9188  13   0.9   100   0.9   6     0     988.2    NA       0.0000   9999     1120  0     0    
2019/06/14  15:38:00  BASE  9.82548  8    11.9188  13   0.9   100   0.9   6     0     988.2    NA       0.0000   9999     2130  0     0    
2019/06/14  15:39:00  BASE  9.91368  3    11.4366  3    0.9   100   0.9   6     0     988.1    NA       0.0000   9999     2170  0     0    
2019/06/14  15:40:00  BASE  9.46092  1    11.4366  3    0.9   100   0.9   7     0     988.1    NA       0.0000   9999     0     0     0    
2019/06/14  15:41:00  BASE  9.20808  3    11.4366  3    0.9   100   0.9   7     0     988.1    NA       0.0000   9999     2820  0     0    
2019/06/14  15:42:00  BASE  9.67848  4    11.4366  3    0.9   100   0.9   7     0     988.1    NA       0.0000   9999     2030  0     0    
2019/06/14  15:43:00  BASE  9.7314   4    11.4366  3    0.9   100   0.9   8     0     988.1    NA       0.0000   9999     1940  0     0    
2019/06/14  15:44:00  BASE  10.1254  4    11.4366  1    0.9   100   0.9   8     0     988.0    NA       0.0000   9999     2360  0     0    
2019/06/14  15:45:01  BASE  10.1195  360  11.4366  1    0.9   100   0.9   8     0     988.0    NA       0.0000   9999     2230  0     0    
2019/06/14  15:46:01  BASE  9.39624  359  11.4366  1    0.9   100   0.9   7     0     988.1    NA       0.0000   9999     0     0     0    
2019/06/14  15:47:01  BASE  9.57852  3    11.4366  1    0.9   100   0.9   7     0     988.1    NA       0.0000   9999     0     0     0    
2019/06/14  15:48:01  BASE  9.89016  3    11.4366  1    0.8   100   0.8   6     0     988.0    NA       0.0000   9999     330   0     0    
2019/06/14  15:49:01  BASE  9.73728  1    11.4366  1    0.8   100   0.8   6     0     988.0    NA       0.0000   9999     300   0     0    
2019/06/14  15:50:01  BASE  9.69612  5    11.4366  1    0.8   100   0.8   6     0     988.1    NA       0.0000   9999     330   0     0    
2019/06/14  15:51:01  BASE  9.3786   7    11.4366  1    0.8   100   0.7   5     0     988.1    NA       0.0000   9999     390   0     0    
2019/06/14  15:52:01  BASE  9.44328  4    11.4366  1    0.7   100   0.7   5     0     988.1    NA       0.0000   9999     0     0     0    
2019/06/14  15:53:00  BASE  9.80784  3    11.4366  1    0.7   100   0.7   5     0     988.0    NA       0.0000   9999     0     0     0    
2019/06/14  15:54:00  BASE  9.56088  5    11.2543  5    0.7   100   0.7   5     0     988.0    NA       0.0000   9999     0     0     0    
2019/06/14  15:55:00  BASE  9.04932  3    11.2543  5    0.7   100   0.7   5     0     988.0    NA       0.0000   9999     0     0     0    
2019/06/14  15:56:00  BASE  9.44328  360  11.2543  5    0.7   100   0.7   5     0     987.9    NA       0.0000   9999     0     0     0    
2019/06/14  15:57:00  BASE  9.849    2    10.6781  5    0.7   100   0.7   5     0     987.9    NA       0.0000   9999     0     0     0    
2019/06/14  15:58:00  BASE  9.51972  4    10.6781  5    0.7   100   0.7   5     0     987.9    NA       0.0000   9999     0     0     0    
2019/06/14  15:59:00  BASE  9.6432   358  10.6781  5    0.7   100   0.7   5     0     987.9    NA       0.0000   9999     0     0     0    
2019/06/14  16:00:00  BASE  10.1371  358  11.0426  360  0.7   100   0.7   6     0     987.8    NA       0.0000   9999     0     0     0    
2019/06/14  16:01:00  BASE  10.3018  2    11.0426  2    0.7   100   0.7   6     0     987.9    NA       0.0000   9999     0     0     0    
2019/06/14  16:02:00  BASE  10.484   1    11.3425  287  0.7   100   0.7   6     0     987.8    NA       0.0000   9999     0     0     0    
2019/06/14  16:03:00  BASE  10.5252  0    11.3425  287  0.7   100   0.7   6     0     987.8    NA       0.0000   9999     0     0     0    
2019/06/14  16:04:00  BASE  10.1489  4    11.3425  287  0.7   100   0.7   6     0     987.8    NA       0.0000   9999     0     0     0    
2019/06/14  16:05:00  BASE  9.87252  4    11.3425  287  0.7   100   0.7   6     0     987.8    NA       0.0000   9999     0     0     0    
2019/06/14  16:06:00  BASE  10.0078  3    11.3719  12   0.7   100   0.7   6     0     987.8    NA       0.0000   9999     0     0     0    
2019/06/14  16:07:00  BASE  10.7251  4    12.0364  3    0.7   100   0.7   6     0     987.6    NA       0.0000   9999     0     0     0    
2019/06/14  16:08:00  BASE  10.9721  5    12.0364  3    0.7   100   0.7   6     0     987.7    NA       0.0000   9999     0     0     0    
2019/06/14  16:09:00  BASE  10.6781  6    12.0364  3    0.7   100   0.7   6     0     987.7    NA       0.0000   9999     0     0     0    
2019/06/14  16:10:00  BASE  10.8545  6    12.0364  3    0.7   100   0.7   6     0     987.7    NA       0.0000   9999     0     0     0    
2019/06/14  16:11:00  BASE  11.1779  5    12.0364  3    0.7   100   0.7   6     0     987.7    NA       0.0000   9999     0     0     0    
2019/06/14  16:12:00  BASE  11.1838  5    12.0364  3    0.7   100   0.7   5     0     987.6    NA       0.0000   9999     0     0     0    
2019/06/14  16:13:00  BASE  10.8662  4    12.0364  3    0.7   100   0.7   5     0     987.7    NA       0.0000   UP       9999  0     0    
2019/06/14  16:14:00  BASE  10.4076  4    12.0364  3    0.7   100   0.7   5     0     987.8    NA       0.0000   UP       9999  0     0    
2019/06/14  16:15:00  BASE  10.0489  5    12.0364  3    0.7   100   0.7   4     0     987.8    NA       0.0000   UP       9999  0     0    
2019/06/14  16:16:00  BASE  10.4546  5    12.0364  3    0.7   100   0.7   4     0     987.7    NA       0.0000   UP       9999  0     0    
2019/06/14  16:17:00  BASE  11.2484  6    12.6126  3    0.7   100   0.7   4     0     987.5    NA       0.0000   UP       9999  0     0    
2019/06/14  16:18:00  BASE  11.1426  6    12.6126  3    0.7   100   0.7   3     0     987.5    NA       0.0000   UP       9999  0     0    
2019/06/14  16:19:00  BASE  10.9603  8    12.6126  3    0.7   100   0.7   3     0     987.6    NA       0.0000   UP       9999  0     0    
2019/06/14  16:20:00  BASE  11.3425  12   12.6126  3    0.7   100   0.7   3     0     987.6    NA       0.0000   UP       9999  0     0    
2019/06/14  16:21:00  BASE  11.4778  12   12.7655  9    0.7   100   0.7   3     0     987.5    NA       0.0000   UP       5000  0     0    
2019/06/14  16:22:00  BASE  11.4954  8    12.7655  9    0.7   100   0.7   3     0     987.5    NA       0.2540   UP       BR    3000  0    
2019/06/14  16:23:00  BASE  11.2602  8    12.7655  9    0.7   100   0.7   3     0     987.6    NA       0.0000   -SN      BR    2700  0    
2019/06/14  16:24:00  BASE  11.1602  10   12.7655  9    0.6   100   0.6   3     0     987.7    NA       0.0000   -SN      BR    2500  0    
2019/06/14  16:25:00  BASE  11.1838  11   12.7655  9    0.6   100   0.6   3     0     987.7    NA       0.0000   -SN      BR    3000  0    
2019/06/14  16:26:00  BASE  10.4958  11   12.7655  9    0.6   100   0.6   3     0     987.7    NA       0.0000   -SN      BR    2700  0    
2019/06/14  16:27:00  BASE  10.4017  14   12.7655  9    0.6   100   0.6   3     0     987.7    NA       0.0000   -SN      BR    2600  0    
2019/06/14  16:28:00  BASE  10.4605  13   12.7655  9    0.6   100   0.6   3     0     987.7    NA       0.0000   -SN      BR    3800  0    
2019/06/14  16:29:00  BASE  10.4488  13   12.7655  9    0.5   100   0.5   3     0     987.7    NA       0.0000   -SN      BR    9000  0    
2019/06/14  16:30:00  BASE  10.3429  14   12.7655  9    0.5   100   0.5   3     0     987.7    NA       0.0000   -SN      BR    9999  0    
2019/06/14  16:31:00  BASE  10.1195  13   12.5832  5    0.5   100   0.5   2     0     987.7    NA       0.0000   -SN      BR    6000  0    
2019/06/14  16:32:00  BASE  10.2488  13   12.5832  5    0.5   100   0.5   2     0     987.7    NA       0.0000   -SN      BR    3500  0    
2019/06/14  16:33:00  BASE  10.2018  14   12.1304  15   0.5   100   0.5   2     0     987.7    NA       0.0000   -SN      BR    2500  0    
2019/06/14  16:34:00  BASE  10.3253  14   11.7953  7    0.5   100   0.5   2     0     987.8    NA       0.0000   -SN      BR    2100  0    
2019/06/14  16:35:00  BASE  9.83724  12   11.7071  17   0.5   100   0.5   2     0     987.8    NA       0.0000   -SN      BR    1700  0    
2019/06/14  16:36:00  BASE  9.57852  13   11.7071  17   0.5   100   0.5   2     0     987.7    NA       0.0000   -SN      BR    1800  0    
2019/06/14  16:37:00  BASE  9.48444  14   11.5836  13   0.5   100   0.5   3     0     987.8    NA       0.0000   -SN      BR    2300  0    
2019/06/14  16:38:00  BASE  9.114    13   11.5836  13   0.5   100   0.5   3     0     987.8    NA       0.0000   -SN      BR    2100  0    
2019/06/14  16:39:00  BASE  9.1728   13   11.5836  13   0.5   100   0.5   3     0     987.8    NA       0.0000   -SN      BR    2500  0    
2019/06/14  16:40:00  BASE  9.59616  14   11.5836  13   0.4   100   0.4   3     0     987.7    NA       0.0000   -SN      BR    5000  0    
2019/06/14  16:41:00  BASE  10.0783  16   11.4013  13   0.5   100   0.5   3     0     987.6    NA       0.0000   -SN      BR    9999  0    
2019/06/14  16:42:00  BASE  10.0136  16   11.4013  13   0.5   100   0.5   3     0     987.7    NA       0.0000   -SN      BR    9999  0    
2019/06/14  16:43:00  BASE  9.65496  13   11.4013  13   0.5   100   0.5   3     0     987.7    NA       0.0000   -SN      BR    9999  0    
2019/06/14  16:44:00  BASE  9.43152  12   11.4013  13   0.5   100   0.5   3     0     987.7    NA       0.0000   -SN      BR    9999  0    
2019/06/14  16:45:00  BASE  9.50208  14   11.4013  13   0.5   100   0.5   3     0     987.7    NA       0.0000   -SN      BR    9999  0    
2019/06/14  16:46:00  BASE  9.57852  12   11.2837  12   0.5   100   0.5   3     0     987.6    NA       0.0000   -SN      BR    9999  0    
2019/06/14  16:47:00  BASE  8.89056  10   11.2837  12   0.5   100   0.5   3     0     987.7    NA       0.0000   -SN      BR    9999  0    
2019/06/14  16:48:00  BASE  8.54364  10   11.2837  12   0.5   100   0.5   3     0     987.6    NA       0.0000   -SN      BR    9999  0    
2019/06/14  16:49:00  BASE  8.95524  11   11.2837  12   0.5   100   0.5   3     0     987.6    NA       0.0000   -SN      9999  0     0    
2019/06/14  16:50:00  BASE  9.13752  11   11.2837  12   0.5   100   0.5   3     0     987.5    NA       0.0000   -SN      9999  0     0    
2019/06/14  16:51:00  BASE  9.01404  12   11.2837  12   0.5   100   0.5   3     0     987.5    NA       0.0000   -SN      9999  0     0    
2019/06/14  16:52:00  BASE  8.83764  13   11.2837  12   0.5   100   0.5   3     0     987.5    NA       0.0000   -SN      9999  0     0    
2019/06/14  16:53:00  BASE  8.91996  14   11.2837  12   0.5   100   0.5   3     0     987.5    NA       0.0000   -SN      9999  0     0    
2019/06/14  16:54:00  BASE  8.89056  15   11.2837  12   0.5   100   0.5   3     0     987.5    NA       0.0000   -SN      9999  0     0    
2019/06/14  16:55:00  BASE  8.98464  16   11.2837  12   0.5   100   0.5   3     0     987.4    NA       0.0000   -SN      9000  0     0    
2019/06/14  16:56:00  BASE  9.07872  14   10.2547  7    0.5   100   0.5   3     0     987.4    NA       0.0000   -SN      9000  0     0    
2019/06/14  16:57:00  BASE  8.94936  13   10.2547  7    0.5   100   0.5   3     0     987.4    NA       0.0000   -SN      9999  0     0    
2019/06/14  16:58:00  BASE  8.9376   15   10.2547  7    0.6   100   0.6   3     0     987.4    NA       0.0000   -SN      9999  0     0    
2019/06/14  16:59:00  BASE  8.89056  15   10.2547  7    0.6   100   0.6   3     0     987.4    NA       0.0000   -SN      9999  0     0    
2019/06/14  17:00:00  BASE  8.87292  16   9.86076  20   0.6   100   0.6   3     0     987.4    NA       0.0000   -SN      9999  0     0    
2019/06/14  17:01:00  BASE  8.89056  17   10.0724  18   0.6   100   0.6   3     0     987.3    NA       0.0000   -SN      9999  0     0    
2019/06/14  17:02:00  BASE  8.86116  17   10.0724  18   0.6   100   0.6   3     0     987.3    NA       0.0000   -SN      9000  0     0    
2019/06/14  17:03:00  BASE  9.20808  18   10.1959  25   0.6   100   0.6   3     0     987.3    NA       0.0000   -SN      9000  0     0    
2019/06/14  17:04:00  BASE  9.3492   16   10.1959  25   0.6   100   0.6   3     0     987.2    NA       0.0000   -SN      9999  0     0    
2019/06/14  17:05:00  BASE  9.01404  15   10.1959  25   0.6   100   0.6   3     0     987.3    NA       0.2540   -SN      9999  0     0    
2019/06/14  17:06:00  BASE  8.97288  15   10.1959  25   0.6   100   0.6   2     0     987.2    NA       0.0000   -SN      9999  0     0    
2019/06/14  17:07:00  BASE  9.14928  13   10.1959  25   0.6   100   0.6   2     0     987.2    NA       0.0000   -SN      9999  0     0    
2019/06/14  17:08:00  BASE  9.21984  12   10.1959  25   0.6   100   0.6   2     0     987.2    NA       0.0000   -SN      9999  0     0    
2019/06/14  17:09:00  BASE  8.967    13   10.1959  25   0.6   100   0.6   2     0     987.2    NA       0.0000   -SN      9999  0     0    
2019/06/14  17:10:00  BASE  9.21984  12   10.7075  11   0.6   100   0.6   2     0     987.1    NA       0.0000   -SN      9999  0     0    
2019/06/14  17:11:00  BASE  9.70788  10   11.1308  18   0.6   100   0.6   2     0     987.1    NA       0.0000   -SN      9999  390   0    
2019/06/14  17:12:00  BASE  9.85488  11   11.1308  18   0.6   100   0.6   2     0     987.1    NA       0.0000   -SN      9999  0     0    
2019/06/14  17:13:00  BASE  9.99012  11   11.1308  18   0.6   100   0.6   2     0     987.1    NA       0.0000   -SN      9999  460   0    
2019/06/14  17:14:00  BASE  10.1254  11   11.1308  18   0.6   100   0.6   2     0     987.1    NA       0.0000   -SN      9999  330   0    
2019/06/14  17:15:01  BASE  10.2488  11   11.4366  12   0.6   100   0.6   2     0     987.1    NA       0.0000   -SN      9999  300   0    
2019/06/14  17:16:00  BASE  10.2253  11   11.4366  12   0.6   100   0.6   1     0     987.0    NA       0.0000   -SN      9000  300   0    
2019/06/14  17:17:00  BASE  10.2724  11   11.4366  12   0.6   100   0.6   1     0     987.0    NA       0.0000   -SN      9000  300   0    
2019/06/14  17:18:00  BASE  10.1312  9    11.4366  12   0.6   100   0.6   1     0     987.0    NA       0.0000   -SN      9999  260   0    
2019/06/14  17:19:00  BASE  10.1195  6    11.4366  12   0.6   100   0.6   1     0     987.0    NA       0.0000   -SN      9999  230   0    
2019/06/14  17:20:00  BASE  10.4958  2    11.6483  360  0.6   100   0.6   2     0     986.9    NA       0.0000   -SN      9999  260   0    
2019/06/14  17:21:00  BASE  10.3312  358  11.6483  360  0.5   100   0.5   2     0     986.9    NA       0.0000   -SN      9999  260   0    
2019/06/14  17:22:00  BASE  10.0666  1    11.6483  360  0.5   100   0.5   2     0     987.0    NA       0.0000   -SN      9999  0     0    
2019/06/14  17:23:00  BASE  10.4546  2    11.6483  360  0.5   100   0.5   2     0     986.9    NA       0.0000   -SN      9999  0     0    
2019/06/14  17:24:00  BASE  10.3312  357  11.6483  360  0.5   100   0.5   2     0     986.9    NA       0.0000   -SN      9999  0     0    
2019/06/14  17:25:00  BASE  9.77844  358  11.6483  360  0.4   100   0.4   2     0     987.0    NA       0.0000   -SN      9999  0     0    
2019/06/14  17:26:00  BASE  9.63144  3    11.6483  360  0.4   100   0.4   2     0     987.0    NA       0.0000   -SN      9999  0     0    
2019/06/14  17:27:00  BASE  9.7608   3    11.6483  360  0.4   100   0.4   2     0     987.0    NA       0.0000   -SN      7000  0     0    
2019/06/14  17:28:00  BASE  10.0136  5    11.6483  360  0.3   100   0.3   2     0     987.0    NA       0.0000   -SN      BR    3700  0    
2019/06/14  17:29:00  BASE  10.2841  8    11.6483  360  0.3   100   0.3   2     0     987.0    NA       0.0000   -SN      BR    3100  0    
2019/06/14  17:30:00  BASE  10.4311  11   11.5248  9    0.3   100   0.3   3     0     987.0    NA       0.0000   -SN      BR    3800  0    
2019/06/14  17:31:00  BASE  10.3723  14   11.5248  9    0.3   100   0.2   3     0     986.9    NA       0.0000   -SN      BR    2500  0    
2019/06/14  17:32:00  BASE  10.4076  12   11.5248  9    0.2   100   0.2   3     0     986.9    NA       0.0000   -SN      BR    2400  0    
2019/06/14  17:33:00  BASE  10.3841  11   12.007   14   0.2   100   0.2   3     0     986.9    NA       0.0000   -SN      BR    2800  0    
2019/06/14  17:34:00  BASE  11.2543  12   12.9184  15   0.2   100   0.2   3     0     986.7    NA       0.0000   -SN      BR    3400  0    
2019/06/14  17:35:00  BASE  11.8129  12   12.9184  15   0.2   100   0.2   3     0     986.8    NA       0.0000   -SN      BR    2800  0    
2019/06/14  17:36:00  BASE  11.0897  10   12.9184  15   0.2   100   0.2   3     0     986.8    NA       0.0000   -SN      BR    2900  0    
2019/06/14  17:37:00  BASE  11.0426  9    12.9184  15   0.2   100   0.2   2     0     986.9    NA       0.0000   -SN      BR    4400  0    
2019/06/14  17:38:00  BASE  11.319   11   12.9184  15   0.2   100   0.2   2     0     986.9    NA       0.0000   -SN      BR    3800  0    
2019/06/14  17:39:00  BASE  11.3014  11   12.9184  15   0.2   100   0.2   2     0     986.9    NA       0.0000   -SN      BR    4100  0    
2019/06/14  17:40:00  BASE  11.2367  11   12.9184  15   0.2   100   0.2   2     0     986.9    NA       0.0000   -SN      BR    6000  0    
2019/06/14  17:41:00  BASE  11.1544  10   12.9184  15   0.2   100   0.2   2     0     986.9    NA       0.0000   -SN      BR    8000  0    
2019/06/14  17:42:00  BASE  10.9897  9    12.9184  15   0.2   100   0.2   1     0     986.9    NA       0.0000   -SN      BR    8000  0    
2019/06/14  17:43:00  BASE  10.6898  9    12.9184  15   0.2   100   0.2   1     0     987.0    NA       0.0000   -SN      BR    8000  0    
2019/06/14  17:44:00  BASE  10.7428  10   12.3715  11   0.2   100   0.2   1     0     987.0    NA       0.0000   -SN      BR    9999  0    
2019/06/14  17:45:00  BASE  11.0074  10   12.3715  11   0.2   100   0.2   1     0     986.9    NA       0.0000   -SN      BR    7000  0    
2019/06/14  17:46:00  BASE  11.2543  9    12.3715  11   0.2   100   0.2   1     0     986.9    NA       0.0000   -SN      BR    7000  230  
2019/06/14  17:47:00  BASE  11.1485  9    12.1598  12   0.2   100   0.2   1     0     987.0    NA       0.0000   -SN      BR    9999  0    
2019/06/14  17:48:00  BASE  10.5664  9    12.1598  12   0.2   100   0.2   1     0     987.0    NA       0.0000   -SN      BR    9000  0    
2019/06/14  17:49:00  BASE  10.4252  8    12.101   7    0.2   100   0.2   1     0     986.9    NA       0.0000   -SN      BR    5000  0    
2019/06/14  17:50:00  BASE  10.4252  7    12.101   7    0.2   100   0.2   1     0     987.0    NA       0.0000   -SN      BR    7000  0    
2019/06/14  17:51:00  BASE  9.80196  6    11.9776  5    0.2   100   0.2   1     0     987.1    NA       0.0000   -SN      BR    9999  0    
2019/06/14  17:52:00  BASE  9.01404  3    11.8247  8    0.2   100   0.2   1     0     987.1    NA       0.0000   -SN      BR    9999  0    
2019/06/14  17:53:00  BASE  8.97876  2    11.8247  8    0.2   100   0.2   1     0     987.1    NA       0.0000   -SN      BR    9999  0    
2019/06/14  17:54:00  BASE  9.47268  4    11.8247  8    0.2   100   0.2   1     0     987.2    NA       0.0000   -SN      BR    9999  0    
2019/06/14  17:55:00  BASE  9.90192  5    11.8247  8    0.2   100   0.2   1     0     987.2    NA       0.0000   -SN      9999  0     0    
2019/06/14  17:56:00  BASE  10.19    4    11.7365  8    0.2   100   0.2   1     0     987.1    NA       0.0000   -SN      8000  0     0    
2019/06/14  17:57:00  BASE  10.0254  1    11.2249  5    0.2   100   0.2   1     0     987.2    NA       0.0000   -SN      9999  0     0    
2019/06/14  17:58:00  BASE  9.49032  359  11.2249  5    0.2   100   0.2   1     0     987.2    NA       0.0000   -SN      9999  0     0    
2019/06/14  17:59:00  BASE  9.41388  1    11.2249  5    0.2   100   0.2   1     0     987.2    NA       0.0000   -SN      8000  0     0    
2019/06/14  18:00:00  BASE  9.6432   2    11.2249  5    0.1   100   0.1   1     0     987.1    NA       0.0000   -SN      9999  0     0    
2019/06/14  18:01:00  BASE  8.99052  359  11.2249  5    0.1   100   0.1   1     0     987.2    NA       0.0000   -SN      9999  0     0    
2019/06/14  18:02:00  BASE  8.16732  358  11.2249  5    0.1   100   0.1   1     0     987.3    NA       0.0000   -SN      9999  0     0    
2019/06/14  18:03:00  BASE  7.97328  358  11.2249  5    0.1   100   0.1   1     0     987.3    NA       0.0000   -SN      8000  0     0    
2019/06/14  18:04:00  BASE  8.085    351  11.2249  5    0.1   100   0.1   1     0     987.3    NA       0.0000   -SN      BR    7000  0    
2019/06/14  18:05:00  BASE  7.83804  354  11.2249  5    0.0   100   0.0   1     0     987.3    NA       0.0000   -SN      9999  0     0    
2019/06/14  18:06:00  BASE  7.72632  357  10.4076  1    0.0   100   -0.0  1     0     987.3    NA       0.0000   -SN      9999  0     0    
2019/06/14  18:07:00  BASE  8.1144   349  10.4076  1    -0.0  100   -0.0  1     0     987.3    NA       0.0000   -SN      9999  0     0    
2019/06/14  18:08:00  BASE  8.06148  353  10.4076  1    -0.1  100   -0.1  1     0     987.3    NA       0.0000   -SN      9999  0     0    
2019/06/14  18:09:00  BASE  7.63224  352  10.2841  360  -0.1  100   -0.1  1     0     987.4    NA       0.0000   -SN      9999  0     0    
2019/06/14  18:10:00  BASE  7.497    343  9.10224  350  -0.1  100   -0.1  1     0     987.4    NA       0.0000   -SN      9999  0     0    
2019/06/14  18:11:00  BASE  7.79688  348  8.98464  3    -0.1  100   -0.1  1     0     987.3    NA       0.0000   -SN      9999  0     0    
2019/06/14  18:12:00  BASE  7.83804  355  8.98464  3    -0.1  100   -0.1  1     0     987.3    NA       0.0000   -SN      9999  0     0    
2019/06/14  18:13:00  BASE  7.7322   355  8.98464  3    -0.1  100   -0.1  1     0     987.4    NA       0.0000   -SN      9999  0     0    
2019/06/14  18:14:00  BASE  8.085    354  9.4374   349  -0.1  100   -0.1  1     0     987.3    NA       0.0000   -SN      9999  0     0    
2019/06/14  18:15:00  BASE  8.64948  354  9.77256  352  -0.1  100   -0.1  1     0     987.3    NA       0.0000   -SN      9999  0     0    
2019/06/14  18:16:00  BASE  8.24376  358  9.77256  352  -0.1  100   -0.1  1     0     987.3    NA       0.0000   -SN      9999  0     0    
2019/06/14  18:17:00  BASE  7.38528  357  9.77256  352  -0.2  100   -0.2  1     0     987.4    NA       0.0000   -SN      9999  0     0    
2019/06/14  18:18:00  BASE  7.497    351  9.77256  352  -0.2  100   -0.2  1     0     987.4    NA       0.0000   -SN      9999  0     0    
2019/06/14  18:19:00  BASE  7.7616   351  9.77256  352  -0.2  100   -0.2  0     0     987.4    NA       0.0000   -SN      9999  0     0    
2019/06/14  18:20:00  BASE  7.63224  352  9.77256  352  -0.2  100   -0.2  0     0     987.5    NA       0.0000   -SN      9999  0     0    
2019/06/14  18:21:00  BASE  7.26768  354  9.77256  352  -0.2  100   -0.2  0     0     987.5    NA       0.0000   -SN      9999  0     0    
2019/06/14  18:22:00  BASE  7.25004  356  9.77256  352  -0.2  100   -0.2  0     0     987.5    NA       0.0000   -SN      9999  0     0    
2019/06/14  18:23:00  BASE  7.31472  351  9.77256  352  -0.2  100   -0.2  0     0     987.5    NA       0.0000   -SN      9999  0     0    
2019/06/14  18:24:00  BASE  6.7914   348  9.77256  352  -0.2  100   -0.2  0     0     987.6    NA       0.0000   -SN      9999  0     0    
2019/06/14  18:25:00  BASE  6.53856  349  8.4378   354  -0.2  100   -0.2  0     0     987.6    NA       0.0000   -SN      9999  0     0    
2019/06/14  18:26:00  BASE  6.762    349  8.4378   354  -0.2  100   -0.2  0     0     987.5    NA       0.0000   -SN      9999  0     0    
2019/06/14  18:27:00  BASE  7.1442   348  8.4378   354  -0.3  100   -0.3  0     0     987.5    NA       0.0000   -SN      9999  0     0    
2019/06/14  18:28:00  BASE  7.00308  350  8.4378   354  -0.3  100   -0.3  0     0     987.5    NA       0.0000   -SN      9999  0     0    
2019/06/14  18:29:00  BASE  6.66792  353  8.4378   354  -0.3  100   -0.3  0     0     987.6    NA       0.0000   -SN      9999  0     0    
2019/06/14  18:30:00  BASE  6.78552  352  8.10852  350  -0.3  100   -0.3  0     0     987.5    NA       0.0000   -SN      9999  0     0    
2019/06/14  18:31:00  BASE  6.65616  348  8.10852  350  -0.3  100   -0.3  0     0     987.6    NA       0.0000   -SN      9999  0     0    
2019/06/14  18:32:00  BASE  6.5268   346  8.10852  350  -0.3  100   -0.3  0     0     987.5    NA       0.0000   -SN      9999  0     0    
2019/06/14  18:33:00  BASE  6.42096  349  8.10852  350  -0.3  100   -0.3  0     0     987.6    NA       0.0000   -SN      9999  0     0    
2019/06/14  18:34:00  BASE  6.77964  350  8.10852  350  -0.4  100   -0.4  0     0     987.5    NA       0.0000   -SN      9999  0     0    
2019/06/14  18:35:00  BASE  7.1736   348  8.10852  350  -0.4  100   -0.4  0     0     987.5    NA       0.0000   -SN      9999  0     0    
2019/06/14  18:36:00  BASE  7.1736   347  8.07912  343  -0.4  100   -0.4  0     0     987.5    NA       0.0000   -SN      9999  0     0    
2019/06/14  18:37:00  BASE  7.06188  350  8.07912  343  -0.4  100   -0.4  0     0     987.5    NA       0.0000   -SN      9999  0     0    
2019/06/14  18:38:00  BASE  6.62676  351  8.07912  343  -0.4  100   -0.4  0     0     987.6    NA       0.0000   -SN      9999  0     0    
2019/06/14  18:39:00  BASE  6.22104  347  8.07912  343  -0.4  100   -0.4  0     0     987.6    NA       0.0000   -SN      9999  0     0    
2019/06/14  18:40:00  BASE  6.06228  344  8.07912  343  -0.4  100   -0.4  0     0     987.6    NA       0.0000   -SN      9999  0     0    
2019/06/14  18:41:00  BASE  6.44448  345  8.07912  343  -0.4  100   -0.4  0     0     987.6    NA       0.0000   -SN      8000  0     0    
2019/06/14  18:42:00  BASE  6.70908  347  8.07912  343  -0.5  100   -0.5  0     0     987.6    NA       0.0000   -SN      9000  0     0    
2019/06/14  18:43:00  BASE  6.55032  349  8.07912  343  -0.5  100   -0.5  0     0     987.6    NA       0.0000   -SN      9000  0     0    
2019/06/14  18:44:00  BASE  6.48564  350  8.07912  343  -0.5  100   -0.5  0     0     987.6    NA       0.0000   -SN      8000  0     0    
2019/06/14  18:45:00  BASE  6.5562   350  8.07912  343  -0.5  100   -0.5  0     0     987.6    NA       0.0000   -SN      8000  0     0    
2019/06/14  18:46:00  BASE  6.73848  349  7.80276  2    -0.5  100   -0.5  0     0     987.6    NA       0.0000   -SN      BR    9999  0    
2019/06/14  18:47:00  BASE  7.203    349  7.92624  347  -0.5  100   -0.5  0     0     987.6    NA       0.0000   -SN      BR    9999  0    
2019/06/14  18:48:00  BASE  7.5264   346  7.98504  344  -0.5  100   -0.5  0     0     987.6    NA       0.0000   -SN      BR    9999  0    
2019/06/14  18:49:00  BASE  7.4382   343  7.98504  344  -0.5  100   -0.5  0     0     987.6    NA       0.0000   -SN      BR    9999  0    
2019/06/14  18:50:00  BASE  7.17948  341  7.98504  344  -0.5  100   -0.5  0     0     987.6    NA       0.0000   -SN      BR    9999  0    
2019/06/14  18:51:00  BASE  7.06188  341  7.98504  344  -0.5  100   -0.5  0     0     987.7    NA       0.0000   -SN      BR    9999  0    
2019/06/14  18:52:00  BASE  7.35     344  8.04384  343  -0.6  100   -0.6  0     0     987.6    NA       0.0000   -SN      9999  0     0    
2019/06/14  18:53:00  BASE  7.34412  344  8.04384  343  -0.6  100   -0.6  0     0     987.6    NA       0.0000   -SN      9999  0     0    
2019/06/14  18:54:00  BASE  7.44408  342  8.67888  339  -0.6  100   -0.6  0     0     987.6    NA       0.0000   -SN      9999  0     0    
2019/06/14  18:55:00  BASE  7.87332  340  8.67888  339  -0.6  100   -0.6  0     0     987.6    NA       0.0000   -SN      9999  0     0    
2019/06/14  18:56:00  BASE  7.81452  338  8.67888  339  -0.6  100   -0.6  0     0     987.7    NA       0.0000   9000     0     0     0    
2019/06/14  18:57:00  BASE  7.18536  338  8.67888  339  -0.6  100   -0.6  0     0     987.7    NA       0.0000   -SN      9000  0     0    
2019/06/14  18:58:00  BASE  6.90312  339  8.67888  339  -0.6  100   -0.6  0     0     987.6    NA       0.0000   -SN      9999  0     0    
2019/06/14  18:59:00  BASE  7.27356  339  8.67888  339  -0.6  100   -0.6  0     0     987.7    NA       0.0000   -SN      9999  0     0    
2019/06/14  19:00:00  BASE  7.20888  339  8.67888  339  -0.6  100   -0.6  0     0     987.8    NA       0.0000   -SN      9000  0     0    
2019/06/14  19:01:00  BASE  6.84432  339  8.67888  339  -0.6  100   -0.6  0     0     987.8    NA       0.0000   -SN      BR    9000  0    
2019/06/14  19:02:00  BASE  6.83844  339  8.67888  339  -0.6  100   -0.6  0     0     987.7    NA       0.0000   -SN      BR    9999  0    
2019/06/14  19:03:00  BASE  6.97956  338  8.67888  339  -0.6  100   -0.6  0     0     987.8    NA       0.0000   -SN      BR    9999  0    
2019/06/14  19:04:00  BASE  7.00896  338  8.53188  344  -0.7  100   -0.7  0     0     987.8    NA       0.0000   -SN      BR    9999  0    
2019/06/14  19:05:00  BASE  7.10892  339  8.4378   341  -0.7  100   -0.7  0     0     987.8    NA       0.0000   -SN      BR    9000  0    
2019/06/14  19:06:00  BASE  7.05012  338  7.95564  338  -0.7  100   -0.7  0     0     987.8    NA       0.0000   -SN      BR    9000  0    
2019/06/14  19:07:01  BASE  6.9678   337  7.95564  338  -0.7  100   -0.7  0     0     987.8    NA       0.0000   -SN      BR    9000  0    
2019/06/14  19:08:01  BASE  7.05012  337  7.95564  338  -0.7  100   -0.7  0     0     987.8    NA       0.0000   -SN      BR    9000  0    
2019/06/14  19:09:01  BASE  7.07364  337  7.86744  338  -0.7  100   -0.7  0     0     987.8    NA       0.0000   -SN      BR    9000  0    
2019/06/14  19:10:00  BASE  6.94428  337  7.86744  338  -0.7  100   -0.7  0     0     987.9    NA       0.0000   -SN      BR    9000  0    
2019/06/14  19:11:01  BASE  6.5268   335  7.86744  338  -0.7  100   -0.7  0     0     987.9    NA       0.0000   -SN      BR    9000  0    
2019/06/14  19:12:01  BASE  6.3504   335  7.86744  338  -0.7  100   -0.7  0     0     987.9    NA       0.0000   -SN      BR    9000  0    
2019/06/14  19:13:01  BASE  6.75024  336  7.86744  338  -0.8  100   -0.8  0     0     987.9    NA       0.0000   -SN      BR    9000  0    
2019/06/14  19:14:01  BASE  7.06188  337  7.86744  338  -0.8  100   -0.8  0     0     987.8    NA       0.0000   -SN      BR    9000  0    
2019/06/14  19:15:01  BASE  7.18536  338  7.80276  338  -0.8  100   -0.8  0     0     987.8    NA       0.0000   -SN      BR    9000  0    
2019/06/14  19:16:01  BASE  7.056    339  7.80276  338  -0.8  100   -0.8  0     0     987.9    NA       0.0000   -SN      BR    9000  0    
2019/06/14  19:17:01  BASE  6.81492  340  7.80276  338  -0.8  100   -0.8  0     0     987.9    NA       0.0000   -SN      BR    9000  0    
2019/06/14  19:18:01  BASE  6.75024  341  7.80276  338  -0.8  100   -0.8  0     0     987.9    NA       0.0000   -SN      BR    7000  0    
2019/06/14  19:19:01  BASE  6.59148  341  7.80276  338  -0.8  100   -0.8  0     0     987.9    NA       0.0000   -SN      BR    6000  0    
2019/06/14  19:20:01  BASE  6.55032  339  7.80276  338  -0.8  100   -0.8  0     0     987.9    NA       0.0000   -SN      BR    6000  0    
2019/06/14  19:21:01  BASE  6.92664  340  8.13792  336  -0.8  100   -0.8  0     0     987.9    NA       0.0000   -SN      BR    6000  0    
2019/06/14  19:22:01  BASE  7.09128  340  8.13792  336  -0.8  100   -0.8  0     0     987.9    NA       0.0000   -SN      BR    6000  0    
2019/06/14  19:23:01  BASE  6.72672  339  8.13792  336  -0.8  100   -0.8  0     0     988.0    NA       0.0000   -SN      BR    6000  0    
2019/06/14  19:24:01  BASE  6.33864  336  8.13792  336  -0.8  100   -0.8  0     0     988.0    NA       0.0000   -SN      BR    6000  0    
2019/06/14  19:25:01  BASE  6.26808  337  8.13792  336  -0.8  100   -0.8  0     0     988.0    NA       0.0000   -SN      BR    6000  0    
2019/06/14  19:26:01  BASE  6.25044  338  8.13792  336  -0.8  100   -0.8  0     0     988.0    NA       0.0000   -SN      BR    6000  0    
2019/06/14  19:27:01  BASE  6.23868  336  8.13792  336  -0.9  100   -0.9  0     0     988.0    NA       0.0000   -SN      BR    6000  0    
2019/06/14  19:28:01  BASE  6.25632  336  8.13792  336  -0.9  100   -0.9  0     0     988.0    NA       0.0000   -SN      BR    5000  0    
2019/06/14  19:29:01  BASE  6.33276  336  8.13792  336  -0.9  100   -0.9  0     0     988.0    NA       0.0000   -SN      BR    4900  0    
2019/06/14  19:30:01  BASE  6.3504   337  8.13792  336  -0.9  100   -0.9  0     0     988.0    NA       0.0000   -SN      BR    5000  0    
2019/06/14  19:31:01  BASE  6.16812  338  7.47348  338  -0.9  100   -0.9  0     0     988.0    NA       0.0000   -SN      BR    5000  0    
2019/06/14  19:32:01  BASE  6.12108  340  7.16772  341  -0.9  100   -0.9  0     0     988.0    NA       0.0000   -SN      BR    5000  0    
2019/06/14  19:33:01  BASE  6.31512  343  7.16772  341  -0.9  100   -0.9  0     0     988.0    NA       0.0000   -SN      BR    5000  0    
2019/06/14  19:34:01  BASE  6.60912  343  7.16772  341  -0.9  100   -0.9  0     0     988.0    NA       0.0000   -SN      BR    5000  0    
2019/06/14  19:35:01  BASE  6.65028  342  7.16772  341  -0.9  100   -0.9  0     0     988.0    NA       0.0000   -SN      BR    4900  0    
2019/06/14  19:36:01  BASE  6.33864  342  7.16772  341  -0.9  100   -0.9  0     0     988.0    NA       0.0000   -SN      BR    4900  0    
2019/06/14  19:37:01  BASE  6.32688  342  7.10892  343  -0.9  100   -0.9  0     0     988.0    NA       0.0000   -SN      BR    4900  0    
2019/06/14  19:38:01  BASE  6.5856   340  7.10892  343  -0.9  100   -0.9  0     0     988.0    NA       0.0000   -SN      BR    4800  0    
2019/06/14  19:39:01  BASE  6.39744  341  7.10892  343  -0.9  100   -0.9  0     0     988.0    NA       0.0000   BR       4800  0     0    
2019/06/14  19:40:01  BASE  6.21516  343  7.10892  343  -0.9  100   -0.9  0     0     988.0    NA       0.0000   BR       4800  0     0    
2019/06/14  19:41:01  BASE  6.2622   344  7.10892  343  -0.9  100   -0.9  0     0     988.0    NA       0.0000   BR       4800  0     0    
2019/06/14  19:42:01  BASE  6.42096  344  7.10892  343  -0.9  100   -0.9  0     0     988.0    NA       0.2540   BR       4800  0     0    
2019/06/14  19:43:01  BASE  6.56796  343  7.19712  341  -1.0  100   -1.0  0     0     988.0    NA       0.0000   BR       4700  0     0    
2019/06/14  19:44:01  BASE  6.86784  343  7.77336  341  -1.0  100   -1.0  0     0     988.0    NA       0.0000   BR       4700  0     0    
2019/06/14  19:45:01  BASE  7.1736   342  7.77336  341  -1.0  100   -1.0  0     0     988.0    NA       0.0000   BR       4700  0     0    
2019/06/14  19:46:01  BASE  6.9384   342  7.77336  341  -1.0  100   -1.0  0     0     988.1    NA       0.0000   BR       4700  0     0    
2019/06/14  19:47:01  BASE  6.69144  342  7.77336  341  -1.0  100   -1.0  0     0     988.0    NA       0.0000   BR       4600  0     0    
2019/06/14  19:48:01  BASE  6.86196  341  7.77336  341  -1.0  100   -1.0  0     0     988.0    NA       0.0000   BR       4600  0     0    
2019/06/14  19:49:01  BASE  6.77964  340  7.77336  341  -1.0  100   -1.0  0     0     988.0    NA       0.0000   -SN      BR    4600  0    
2019/06/14  19:50:01  BASE  6.52092  340  7.77336  341  -1.0  100   -1.0  0     0     988.1    NA       0.0000   -SN      BR    4700  0    
2019/06/14  19:51:01  BASE  6.6738   341  7.77336  341  -1.1  100   -1.1  0     0     988.1    NA       0.0000   -SN      BR    4600  0    
2019/06/14  19:52:01  BASE  6.95016  340  7.77336  341  -1.1  100   -1.1  0     0     988.0    NA       0.0000   -SN      BR    4600  0    
2019/06/14  19:53:01  BASE  7.13244  339  7.77336  341  -1.1  100   -1.1  0     0     988.0    NA       0.0000   -SN      BR    4600  0    
2019/06/14  19:54:01  BASE  6.9384   338  7.62048  347  -1.1  100   -1.1  0     0     988.1    NA       0.0000   -SN      BR    4600  0    
2019/06/14  19:55:01  BASE  6.68556  338  7.59108  342  -1.1  100   -1.1  0     0     988.1    NA       0.0000   -SN      BR    5000  0    
2019/06/14  19:56:01  BASE  6.63264  338  7.59108  342  -1.1  100   -1.1  0     0     988.1    NA       0.0000   -SN      BR    5000  0    
2019/06/14  19:57:00  BASE  6.87372  338  7.59108  342  -1.1  100   -1.1  0     0     988.0    NA       0.0000   -SN      BR    5000  0    
2019/06/14  19:58:01  BASE  6.83844  340  7.56168  336  -1.1  100   -1.1  0     0     988.0    NA       0.0000   -SN      BR    5000  0    
2019/06/14  19:59:01  BASE  6.35628  342  7.56168  336  -1.1  100   -1.1  0     0     988.1    NA       0.0000   -SN      BR    6000  0    
2019/06/14  20:00:01  BASE  6.12696  343  7.56168  336  -1.1  100   -1.1  0     0     988.1    NA       0.0000   -SN      BR    6000  0    
2019/06/14  20:01:00  BASE  6.2622   342  7.56168  336  -1.1  100   -1.1  0     0     988.1    NA       0.0000   -SN      BR    7000  0    
2019/06/14  20:02:00  BASE  6.4386   340  7.56168  336  -1.1  100   -1.1  0     0     988.1    NA       0.0000   -SN      BR    7000  0    
2019/06/14  20:03:00  BASE  6.47388  338  7.44408  336  -1.1  100   -1.1  0     0     988.2    NA       0.0000   -SN      BR    7000  0    
2019/06/14  20:04:00  BASE  6.53856  338  7.44408  336  -1.1  100   -1.1  0     0     988.1    NA       0.0000   -SN      BR    7000  0    
2019/06/14  20:05:01  BASE  6.762    338  7.44408  336  -1.1  100   -1.1  0     0     988.1    NA       0.0000   -SN      BR    7000  0    
2019/06/14  20:06:00  BASE  6.65616  339  7.44408  336  -1.1  100   -1.1  0     0     988.1    NA       0.0000   -SN      BR    7000  0    
2019/06/14  20:07:00  BASE  6.4974   340  7.19712  339  -1.1  100   -1.1  0     0     988.1    NA       0.0000   -SN      BR    7000  0    
2019/06/14  20:08:00  BASE  6.72672  340  7.19712  339  -1.1  100   -1.1  0     0     988.1    NA       0.0000   -SN      BR    7000  0    
2019/06/14  20:09:00  BASE  6.89724  340  7.68516  336  -1.1  100   -1.1  0     0     988.1    NA       0.0000   -SN      BR    7000  0    
2019/06/14  20:10:01  BASE  6.78552  340  7.68516  336  -1.2  100   -1.2  0     0     988.1    NA       0.0000   -SN      BR    7000  0    
2019/06/14  20:11:00  BASE  6.52092  340  7.68516  336  -1.2  100   -1.2  0     0     988.1    NA       0.0000   -SN      BR    7000  0    
2019/06/14  20:12:01  BASE  6.48564  341  7.68516  336  -1.2  100   -1.2  0     0     988.1    NA       0.0000   -SN      BR    7000  0    
2019/06/14  20:13:00  BASE  6.36804  342  7.68516  336  -1.2  100   -1.2  0     0     988.1    NA       0.0000   -SN      BR    7000  0    
2019/06/14  20:14:00  BASE  6.07404  342  7.68516  336  -1.2  100   -1.2  0     0     988.1    NA       0.0000   -SN      BR    7000  0    
2019/06/14  20:15:01  BASE  5.91528  342  7.68516  336  -1.2  100   -1.2  0     0     988.1    NA       0.0000   -SN      BR    6000  0    
2019/06/14  20:16:00  BASE  5.9094   343  7.68516  336  -1.2  100   -1.2  0     0     988.1    NA       0.0000   -SN      BR    6000  0    
2019/06/14  20:17:00  BASE  5.92704  344  7.68516  336  -1.2  100   -1.2  0     0     988.1    NA       0.0000   -SN      BR    6000  0    
2019/06/14  20:18:00  BASE  6.13284  343  7.68516  336  -1.2  100   -1.2  0     0     988.0    NA       0.0000   -SN      BR    6000  0    
2019/06/14  20:19:00  BASE  6.13872  343  7.13832  338  -1.2  100   -1.2  0     0     988.1    NA       0.0000   -SN      BR    6000  0    
2019/06/14  20:20:00  BASE  5.92704  342  7.13832  338  -1.2  100   -1.2  0     0     988.1    NA       0.0000   -SN      BR    6000  0    
2019/06/14  20:21:00  BASE  5.80356  342  6.86784  338  -1.2  100   -1.2  0     0     988.1    NA       0.0000   -SN      BR    6000  0    
2019/06/14  20:22:00  BASE  5.69184  342  6.74436  334  -1.2  100   -1.2  0     0     988.2    NA       0.0000   -SN      BR    6000  0    
2019/06/14  20:23:00  BASE  5.72124  344  6.74436  334  -1.2  100   -1.2  0     0     988.1    NA       0.0000   -SN      BR    5000  0    
2019/06/14  20:24:00  BASE  5.86236  345  6.74436  334  -1.2  100   -1.2  0     0     988.1    NA       0.0000   -SN      BR    5000  0    
2019/06/14  20:25:01  BASE  5.92116  344  6.74436  334  -1.2  100   -1.2  0     0     988.1    NA       0.0000   -SN      BR    5000  0    
2019/06/14  20:26:00  BASE  5.76828  345  6.74436  334  -1.2  100   -1.2  0     0     988.2    NA       0.0000   -SN      BR    5000  0    
2019/06/14  20:27:01  BASE  5.50956  344  6.74436  334  -1.2  100   -1.2  0     0     988.2    NA       0.0000   -SN      BR    5000  0    
2019/06/14  20:28:01  BASE  5.43312  345  6.74436  334  -1.2  100   -1.2  0     0     988.2    NA       0.0000   -SN      BR    6000  0    
2019/06/14  20:29:01  BASE  5.38608  344  6.2622   351  -1.2  100   -1.2  0     0     988.2    NA       0.0000   -SN      BR    8000  0    
2019/06/14  20:30:01  BASE  5.09796  343  6.2622   351  -1.2  100   -1.2  0     0     988.2    NA       0.0000   -SN      BR    8000  0    
2019/06/14  20:31:01  BASE  4.72752  344  6.2622   351  -1.2  100   -1.2  0     0     988.2    NA       0.0000   -SN      BR    8000  0    
2019/06/14  20:32:00  BASE  4.82748  346  6.2622   351  -1.2  100   -1.2  0     0     988.2    NA       0.0000   -SN      BR    8000  0    
2019/06/14  20:33:00  BASE  4.851    343  6.2622   351  -1.2  100   -1.2  0     0     988.2    NA       0.0000   -SN      BR    8000  0    
2019/06/14  20:34:00  BASE  4.63344  342  6.2622   351  -1.2  100   -1.2  0     0     988.2    NA       0.0000   -SN      BR    8000  0    
2019/06/14  20:35:00  BASE  4.57464  346  6.05052  345  -1.2  100   -1.2  0     0     988.2    NA       0.0000   -SN      BR    8000  0    
2019/06/14  20:36:00  BASE  4.48056  347  5.86824  345  -1.2  100   -1.2  0     0     988.2    NA       0.0000   -SN      BR    9000  0    
2019/06/14  20:37:00  BASE  4.66872  344  5.68596  342  -1.2  100   -1.2  0     0     988.2    NA       0.0000   -SN      BR    9999  0    
2019/06/14  20:38:00  BASE  4.998    343  5.68596  342  -1.2  100   -1.2  0     0     988.2    NA       0.0000   -SN      BR    9000  0    
2019/06/14  20:39:00  BASE  4.78044  344  5.59776  345  -1.2  100   -1.2  0     0     988.2    NA       0.0000   -SN      BR    9000  0    
2019/06/14  20:40:00  BASE  4.47468  347  5.59776  345  -1.2  100   -1.2  0     0     988.2    NA       0.0000   -SN      BR    9000  0    
2019/06/14  20:41:00  BASE  4.51584  346  5.59776  345  -1.2  100   -1.2  0     0     988.2    NA       0.0000   -SN      BR    9000  0    
2019/06/14  20:42:00  BASE  4.28064  345  5.59776  345  -1.2  100   -1.2  0     0     988.2    NA       0.0000   -SN      BR    9000  0    
2019/06/14  20:43:00  BASE  4.01604  347  5.59776  345  -1.2  100   -1.2  0     0     988.2    NA       0.0000   -SN      BR    9999  0    
2019/06/14  20:44:00  BASE  4.08072  346  5.59776  345  -1.2  100   -1.2  0     0     988.2    NA       0.0000   -SN      BR    9999  0    
2019/06/14  20:45:00  BASE  4.33944  344  5.59776  345  -1.2  100   -1.2  0     0     988.2    NA       0.0000   -SN      BR    9999  0    
2019/06/14  20:46:00  BASE  4.52172  343  5.59776  345  -1.2  100   -1.2  0     0     988.2    NA       0.0000   -SN      BR    9999  0    
2019/06/14  20:47:00  BASE  4.42764  344  5.59776  345  -1.2  100   -1.2  0     0     988.2    NA       0.0000   -SN      BR    9999  0    
2019/06/14  20:48:00  BASE  4.28652  346  4.89804  339  -1.2  100   -1.2  0     0     988.2    NA       0.0000   -SN      BR    9999  0    
2019/06/14  20:49:00  BASE  3.99252  347  4.89804  339  -1.2  100   -1.2  0     0     988.2    NA       0.0000   -SN      BR    9999  0    
2019/06/14  20:50:00  BASE  3.8514   346  4.89804  339  -1.2  100   -1.2  0     0     988.2    NA       0.0000   -SN      9999  0     0    
2019/06/14  20:51:00  BASE  3.90432  344  4.78044  345  -1.2  100   -1.2  0     0     988.2    NA       0.0000   -SN      9999  0     0    
2019/06/14  20:52:00  BASE  3.95136  345  4.78044  345  -1.2  100   -1.2  0     0     988.2    NA       0.0000   -SN      9999  0     0    
2019/06/14  20:53:00  BASE  4.19244  346  4.78044  345  -1.2  100   -1.2  0     0     988.2    NA       0.0000   -SN      9999  0     0    
2019/06/14  20:54:00  BASE  4.32768  345  4.78044  345  -1.2  100   -1.2  0     0     988.2    NA       0.0000   -SN      9999  0     0    
2019/06/14  20:55:00  BASE  4.41     345  4.86864  348  -1.2  100   -1.2  0     0     988.2    NA       0.0000   -SN      9999  0     0    
2019/06/14  20:56:00  BASE  4.53348  347  4.86864  348  -1.2  100   -1.2  0     0     988.2    NA       0.0000   -SN      9999  0     0    
2019/06/14  20:57:00  BASE  4.4394   346  4.86864  348  -1.2  100   -1.2  0     0     988.2    NA       0.0000   -SN      9999  0     0    
2019/06/14  20:58:00  BASE  4.41588  345  5.02152  342  -1.2  100   -1.2  0     0     988.2    NA       0.0000   -SN      9999  0     0    
2019/06/14  20:59:00  BASE  4.53348  345  5.02152  342  -1.2  100   -1.2  0     0     988.2    NA       0.0000   -SN      9999  0     0    
2019/06/14  21:00:00  BASE  4.60992  345  5.02152  342  -1.2  100   -1.2  0     0     988.2    NA       0.0000   -SN      9999  0     0    
2019/06/14  21:01:00  BASE  4.70988  345  5.02152  342  -1.2  100   -1.2  0     0     988.2    NA       0.0000   -SN      9999  0     0    
2019/06/14  21:02:00  BASE  4.83924  343  5.3214   345  -1.2  100   -1.2  0     0     988.2    NA       0.0000   -SN      9999  0     0    
2019/06/14  21:03:00  BASE  4.91568  342  5.3214   345  -1.2  100   -1.2  0     0     988.2    NA       0.0000   -SN      9999  0     0    
2019/06/14  21:04:00  BASE  4.75104  341  5.3214   345  -1.2  100   -1.2  0     0     988.2    NA       0.0000   -SN      9999  0     0    
2019/06/14  21:05:00  BASE  4.63932  340  5.3214   345  -1.2  100   -1.2  0     0     988.3    NA       0.0000   -SN      9999  0     0    
2019/06/14  21:06:01  BASE  4.62168  340  5.3214   345  -1.2  100   -1.2  0     0     988.3    NA       0.0000   -SN      9999  0     0    
2019/06/14  21:07:01  BASE  4.42764  341  5.3214   345  -1.2  100   -1.2  0     0     988.3    NA       0.0000   -SN      9999  0     0    
2019/06/14  21:08:00  BASE  4.4688   343  5.3214   345  -1.2  100   -1.2  0     0     988.3    NA       0.0000   -SN      9999  0     0    
2019/06/14  21:09:01  BASE  4.42764  345  5.3214   345  -1.2  100   -1.2  0     0     988.3    NA       0.0000   9999     0     0     0    
2019/06/14  21:10:01  BASE  4.263    346  5.3214   345  -1.2  100   -1.2  0     0     988.3    NA       0.0000   9999     0     0     0    
2019/06/14  21:11:01  BASE  4.263    345  5.3214   345  -1.2  100   -1.2  0     0     988.3    NA       0.0000   9999     0     0     0    
2019/06/14  21:12:01  BASE  4.06896  344  5.08032  334  -1.2  100   -1.2  0     0     988.3    NA       0.0000   9999     0     0     0    
2019/06/14  21:13:01  BASE  3.9396   344  5.08032  334  -1.2  100   -1.2  0     0     988.3    NA       0.0000   9999     0     0     0    
2019/06/14  21:14:01  BASE  3.95724  346  4.96272  346  -1.2  100   -1.2  0     0     988.3    NA       0.0000   9999     0     0     0    
2019/06/14  21:15:01  BASE  3.82788  346  4.93332  344  -1.2  100   -1.2  0     0     988.3    NA       0.0000   9999     0     0     0    
2019/06/14  21:16:01  BASE  3.6162   347  4.93332  344  -1.2  100   -1.2  0     0     988.3    NA       0.0000   9999     0     0     0    
2019/06/14  21:17:01  BASE  3.69852  347  4.93332  344  -1.2  100   -1.2  0     0     988.3    NA       0.0000   9999     0     0     0    
2019/06/14  21:18:01  BASE  3.7632   347  4.68636  344  -1.2  100   -1.2  0     0     988.3    NA       0.0000   9999     0     0     0    
2019/06/14  21:19:01  BASE  3.54564  347  4.59816  349  -1.2  100   -1.2  0     0     988.3    NA       0.0000   9999     0     0     0    
2019/06/14  21:20:01  BASE  3.28692  347  4.47468  348  -1.2  100   -1.2  0     0     988.3    NA       0.0000   9999     0     0     0    
2019/06/14  21:21:01  BASE  3.22224  348  4.263    350  -1.2  100   -1.2  0     0     988.3    NA       0.0000   -SN      9999  0     0    
2019/06/14  21:22:01  BASE  3.51036  346  4.263    350  -1.2  100   -1.2  0     0     988.3    NA       0.0000   -SN      9999  0     0    
2019/06/14  21:23:01  BASE  3.71616  346  4.263    350  -1.2  100   -1.2  0     0     988.3    NA       0.0000   -SN      9999  0     0    
2019/06/14  21:24:01  BASE  3.58092  348  4.08072  347  -1.2  100   -1.2  0     0     988.3    NA       0.0000   -SN      9999  0     0    
2019/06/14  21:25:01  BASE  3.5868   347  4.2336   349  -1.2  100   -1.2  0     0     988.3    NA       0.0000   -SN      9999  0     0    
2019/06/14  21:26:01  BASE  3.72204  345  4.2336   349  -1.2  100   -1.2  0     0     988.3    NA       0.0000   -SN      9999  0     0    
2019/06/14  21:27:01  BASE  3.69264  340  4.2336   349  -1.2  100   -1.2  0     0     988.3    NA       0.0000   -SN      9999  0     0    
2019/06/14  21:28:01  BASE  3.47508  337  4.2336   349  -1.2  100   -1.2  0     0     988.4    NA       0.0000   9999     0     0     0    
2019/06/14  21:29:01  BASE  3.48684  340  4.2336   349  -1.2  100   -1.2  0     0     988.4    NA       0.0000   9999     0     0     0    
2019/06/14  21:30:01  BASE  3.528    343  4.2336   349  -1.2  100   -1.2  0     0     988.4    NA       0.0000   9999     0     0     0    
2019/06/14  21:31:01  BASE  3.36336  344  4.2336   349  -1.2  100   -1.2  0     0     988.4    NA       0.0000   9999     0     0     0    
2019/06/14  21:32:01  BASE  3.25752  344  4.2336   349  -1.2  100   -1.2  0     0     988.4    NA       0.0000   9999     0     0     0    
2019/06/14  21:33:01  BASE  3.04584  345  4.2336   349  -1.2  100   -1.2  0     0     988.4    NA       0.0000   9999     0     0     0    
2019/06/14  21:34:01  BASE  2.8224   345  4.2336   349  -1.2  100   -1.2  0     0     988.4    NA       0.0000   9999     0     0     0    
2019/06/14  21:35:01  BASE  2.84004  346  3.86904  342  -1.2  100   -1.2  0     0     988.4    NA       0.0000   9999     0     0     0    
2019/06/14  21:36:01  BASE  3.09876  347  3.86904  342  -1.2  100   -1.2  0     0     988.4    NA       0.0000   9999     0     0     0    
2019/06/14  21:37:01  BASE  3.22812  348  3.86904  342  -1.2  100   -1.2  0     0     988.4    NA       0.0000   9999     0     0     0    
2019/06/14  21:38:01  BASE  3.34572  348  3.86904  342  -1.2  100   -1.2  0     0     988.4    NA       0.0000   9999     0     0     0    
2019/06/14  21:39:01  BASE  3.71028  348  4.263    343  -1.2  100   -1.2  0     0     988.4    NA       0.0000   9999     0     0     0    
2019/06/14  21:40:01  BASE  3.9396   346  4.263    343  -1.2  100   -1.2  0     0     988.4    NA       0.0000   9999     200   0     0    
2019/06/14  21:41:01  BASE  3.8514   344  4.263    343  -1.2  100   -1.2  0     0     988.4    NA       0.0000   9999     200   0     0    
2019/06/14  21:42:01  BASE  3.86904  344  4.263    343  -1.2  100   -1.2  0     0     988.4    NA       0.0000   9999     200   0     0    
2019/06/14  21:43:01  BASE  4.0572   346  4.56876  347  -1.2  100   -1.2  0     0     988.5    NA       0.0000   9999     230   0     0    
2019/06/14  21:44:01  BASE  4.4688   345  5.2332   338  -1.2  100   -1.2  0     0     988.4    NA       0.0000   9999     230   0     0    
2019/06/14  21:45:01  BASE  4.22184  347  5.2332   338  -1.2  100   -1.2  0     0     988.5    NA       0.0000   9999     230   0     0    
2019/06/14  21:46:01  BASE  3.61032  350  5.2332   338  -1.2  100   -1.2  0     0     988.5    NA       0.0000   9999     230   0     0    
2019/06/14  21:47:01  BASE  3.59268  349  5.2332   338  -1.1  100   -1.1  0     0     988.5    NA       0.0000   9999     200   0     0    
2019/06/14  21:48:01  BASE  3.84552  346  5.2332   338  -1.1  100   -1.1  0     0     988.5    NA       0.0000   9999     0     0     0    
2019/06/14  21:49:01  BASE  3.97488  345  5.2332   338  -1.1  100   -1.1  0     0     988.4    NA       0.0000   9999     0     0     0    
2019/06/14  21:50:01  BASE  3.89256  345  5.2332   338  -1.2  100   -1.2  0     0     988.5    NA       0.0000   9999     0     0     0    
2019/06/14  21:51:01  BASE  3.88668  343  5.2332   338  -1.2  100   -1.2  0     0     988.5    NA       0.0000   9999     0     0     0    
2019/06/14  21:52:01  BASE  4.03956  343  5.2332   338  -1.2  100   -1.2  0     0     988.5    NA       0.0000   9999     230   0     0    
2019/06/14  21:53:01  BASE  4.0278   342  5.2332   338  -1.2  100   -1.2  0     0     988.5    NA       0.0000   9999     0     0     0    
2019/06/14  21:54:01  BASE  3.88668  342  4.35708  343  -1.2  100   -1.2  0     0     988.5    NA       0.0000   9999     0     0     0    
2019/06/14  21:55:01  BASE  3.93372  343  4.35708  343  -1.2  100   -1.2  0     0     988.5    NA       0.0000   9999     0     0     0    
2019/06/14  21:56:01  BASE  4.23948  344  4.83924  346  -1.2  100   -1.2  0     0     988.5    NA       0.0000   9999     0     0     0    
2019/06/14  21:57:01  BASE  4.51584  345  4.83924  346  -1.2  100   -1.2  0     0     988.5    NA       0.0000   9999     0     0     0    
2019/06/14  21:58:01  BASE  4.5276   342  4.83924  346  -1.2  100   -1.2  0     0     988.5    NA       0.0000   9999     0     0     0    
2019/06/14  21:59:01  BASE  4.68048  341  5.08032  339  -1.2  100   -1.2  0     0     988.5    NA       0.0000   9999     0     0     0    
2019/06/14  22:00:01  BASE  4.74516  341  5.08032  339  -1.2  100   -1.2  0     0     988.5    NA       0.0000   9999     0     0     0    
2019/06/14  22:01:01  BASE  4.6746   341  5.08032  339  -1.2  100   -1.2  0     0     988.5    NA       0.0000   9999     0     0     0    
2019/06/14  22:02:01  BASE  4.74516  342  5.08032  339  -1.2  100   -1.2  0     0     988.5    NA       0.0000   9999     0     0     0    
2019/06/14  22:03:01  BASE  4.8804   343  5.2626   342  -1.1  100   -1.1  0     0     988.5    NA       0.0000   9999     0     0     0    
2019/06/14  22:04:01  BASE  5.05092  342  5.50368  342  -1.1  100   -1.1  0     0     988.5    NA       0.0000   9999     0     0     0    
2019/06/14  22:05:01  BASE  5.15676  341  5.50368  342  -1.1  100   -1.1  0     0     988.5    NA       0.0000   9999     0     0     0    
2019/06/14  22:06:01  BASE  5.23908  342  5.50368  342  -1.1  100   -1.1  0     0     988.5    NA       0.0000   9999     0     0     0    
2019/06/14  22:07:00  BASE  5.30964  342  5.62716  344  -1.1  100   -1.1  0     0     988.5    NA       0.0000   9999     0     0     0    
2019/06/14  22:08:01  BASE  5.26848  341  5.62716  344  -1.1  100   -1.1  0     0     988.5    NA       0.0000   9999     0     0     0    
2019/06/14  22:09:00  BASE  5.24496  341  5.62716  344  -1.1  100   -1.1  0     0     988.5    NA       0.0000   9999     0     0     0    
2019/06/14  22:10:01  BASE  5.292    341  5.62716  344  -1.1  100   -1.1  0     0     988.5    NA       0.0000   9999     0     0     0    
2019/06/14  22:11:00  BASE  5.16852  340  5.62716  344  -1.1  100   -1.1  0     0     988.5    NA       0.0000   9999     0     0     0    
2019/06/14  22:12:00  BASE  4.88628  340  5.62716  344  -1.1  100   -1.1  0     0     988.5    NA       0.0000   9999     0     0     0    
2019/06/14  22:13:01  BASE  4.86276  339  5.62716  344  -1.1  100   -1.1  0     0     988.5    NA       0.0000   9999     0     0     0    
2019/06/14  22:14:00  BASE  5.01564  338  5.62716  344  -1.1  100   -1.1  0     0     988.5    NA       0.0000   9999     0     0     0    
2019/06/14  22:15:01  BASE  4.998    338  5.62716  344  -1.1  100   -1.1  0     0     988.5    NA       0.0000   9999     0     0     0    
2019/06/14  22:16:00  BASE  5.00976  338  5.62716  344  -1.1  100   -1.1  0     0     988.5    NA       0.0000   9999     0     0     0    
2019/06/14  22:17:00  BASE  5.09208  338  5.59776  339  -1.1  100   -1.1  0     0     988.5    NA       0.0000   9999     0     0     0    
2019/06/14  22:18:01  BASE  4.9098   336  5.59776  339  -1.0  100   -1.0  0     0     988.5    NA       0.0000   9999     0     0     0    
2019/06/14  22:19:01  BASE  4.6158   336  5.53308  338  -1.0  100   -1.0  0     0     988.5    NA       0.0000   9999     0     0     0    
2019/06/14  22:20:00  BASE  4.6158   336  5.53308  338  -1.0  100   -1.0  0     0     988.5    NA       0.0000   9999     0     0     0    
2019/06/14  22:21:00  BASE  4.72752  337  5.53308  338  -1.0  100   -1.0  0     0     988.5    NA       0.0000   9999     0     0     0    
2019/06/14  22:22:01  BASE  4.69812  337  5.53308  338  -1.0  100   -1.0  0     0     988.5    NA       0.0000   9999     0     0     0    
2019/06/14  22:23:00  BASE  4.6158   336  5.53308  338  -1.0  100   -1.0  0     0     988.5    NA       0.0000   9999     0     0     0    
2019/06/14  22:24:00  BASE  4.57464  337  5.47428  337  -1.0  100   -1.0  0     0     988.5    NA       0.0000   9999     0     0     0    
2019/06/14  22:25:01  BASE  4.59816  338  5.47428  337  -1.0  100   -1.0  0     0     988.5    NA       0.0000   9999     0     0     0    
2019/06/14  22:26:00  BASE  4.50408  338  5.47428  337  -1.0  100   -1.0  0     0     988.5    NA       0.0000   9999     0     0     0    
2019/06/14  22:27:00  BASE  4.4982   340  5.08032  339  -1.0  100   -1.0  0     0     988.5    NA       0.0000   9999     0     0     0    
2019/06/14  22:28:00  BASE  4.4982   340  5.08032  339  -1.0  100   -1.0  0     0     988.6    NA       0.0000   9999     0     0     0    
2019/06/14  22:29:00  BASE  4.45704  339  5.08032  339  -1.0  100   -1.0  0     0     988.6    NA       0.0000   9999     160   0     0    
2019/06/14  22:30:00  BASE  4.45116  339  5.08032  339  -1.0  100   -1.0  0     0     988.6    NA       0.0000   9999     0     0     0    
2019/06/14  22:31:00  BASE  4.42176  339  5.02152  341  -1.0  100   -1.0  0     0     988.6    NA       0.0000   9999     0     0     0    
2019/06/14  22:32:00  BASE  4.63344  338  5.08032  341  -1.0  100   -1.0  0     0     988.6    NA       0.0000   9999     0     0     0    
2019/06/14  22:33:00  BASE  4.63344  337  5.08032  341  -1.0  100   -1.0  0     0     988.7    NA       0.0000   9999     0     0     0    
2019/06/14  22:34:00  BASE  4.40412  337  5.08032  341  -1.1  100   -1.1  0     0     988.6    NA       0.0000   9999     0     0     0    
2019/06/14  22:35:01  BASE  4.32768  339  5.08032  341  -1.1  100   -1.1  0     0     988.6    NA       0.0000   9999     0     0     0    
2019/06/14  22:36:00  BASE  4.27476  338  5.08032  341  -1.1  100   -1.1  0     0     988.6    NA       0.0000   9999     0     0     0    
2019/06/14  22:37:00  BASE  4.31592  339  5.08032  341  -1.1  100   -1.1  0     0     988.7    NA       0.0000   UP       9000  0     0    
2019/06/14  22:38:01  BASE  4.37472  339  5.08032  341  -1.0  100   -1.0  0     0     988.7    NA       0.0000   UP       9999  0     0    
2019/06/14  22:39:00  BASE  4.36296  339  5.08032  341  -1.0  100   -1.0  0     0     988.7    NA       0.0000   UP       9999  0     0    
2019/06/14  22:40:00  BASE  4.19244  338  5.08032  341  -1.0  100   -1.0  0     0     988.7    NA       0.0000   UP       9000  0     0    
2019/06/14  22:41:00  BASE  3.95724  339  5.08032  341  -1.0  100   -1.0  0     0     988.7    NA       0.0000   UP       8000  0     0    
2019/06/14  22:42:00  BASE  4.0572   340  4.65696  339  -1.0  100   -1.0  0     0     988.7    NA       0.0000   UP       BR    8000  0    
2019/06/14  22:43:00  BASE  4.40412  342  5.02152  343  -1.1  100   -1.1  0     0     988.6    NA       0.0000   UP       BR    8000  0    
2019/06/14  22:44:00  BASE  4.54524  341  5.02152  343  -1.1  100   -1.1  0     0     988.7    NA       0.0000   UP       BR    9000  0    
2019/06/14  22:45:01  BASE  4.5864   338  5.2332   336  -1.1  100   -1.1  0     0     988.7    NA       0.0000   UP       BR    9000  0    
2019/06/14  22:46:01  BASE  4.62168  336  5.2332   336  -1.1  100   -1.1  0     0     988.7    NA       0.0000   UP       BR    9000  0    
2019/06/14  22:47:01  BASE  4.63344  335  5.2332   336  -1.1  100   -1.1  0     0     988.7    NA       0.0000   UP       BR    9000  0    
2019/06/14  22:48:01  BASE  4.51584  333  5.2332   336  -1.1  100   -1.1  0     0     988.7    NA       0.0000   UP       BR    7000  0    
2019/06/14  22:49:01  BASE  4.43352  331  5.2332   336  -1.1  100   -1.1  0     0     988.7    NA       0.0000   UP       BR    6000  0    
2019/06/14  22:50:01  BASE  4.42176  332  5.2332   336  -1.1  100   -1.1  0     0     988.7    NA       0.0000   UP       BR    5000  0    
2019/06/14  22:51:01  BASE  4.36884  333  5.2332   336  -1.1  100   -1.1  0     0     988.7    NA       0.0000   UP       BR    6000  0    
2019/06/14  22:52:01  BASE  4.49232  333  5.2332   336  -1.1  100   -1.1  0     0     988.7    NA       0.0000   UP       BR    6000  0    
2019/06/14  22:53:01  BASE  4.58052  333  5.3214   330  -1.1  100   -1.1  0     0     988.7    NA       0.0000   UP       BR    7000  0    
2019/06/14  22:54:01  BASE  4.53348  334  5.3214   330  -1.1  100   -1.1  0     0     988.7    NA       0.0000   UP       BR    7000  0    
2019/06/14  22:55:01  BASE  4.53936  333  5.3214   330  -1.1  100   -1.1  0     0     988.7    NA       0.0000   UP       BR    8000  230  
2019/06/14  22:56:01  BASE  4.68636  332  5.3214   330  -1.1  100   -1.1  0     0     988.7    NA       0.0000   UP       BR    8000  200  
2019/06/14  22:57:01  BASE  4.7628   332  5.3214   330  -1.1  100   -1.1  0     0     988.7    NA       0.0000   UP       BR    6000  0    
2019/06/14  22:58:01  BASE  4.76868  331  5.3214   330  -1.1  100   -1.1  0     0     988.7    NA       0.0000   UP       BR    5000  0    
2019/06/14  22:59:01  BASE  4.75692  331  5.3214   330  -1.1  100   -1.1  0     0     988.8    NA       0.0000   UP       BR    5000  0    
2019/06/14  23:00:01  BASE  4.66284  334  5.3214   330  -1.1  100   -1.1  0     0     988.7    NA       0.0000   UP       BR    5000  0    
2019/06/14  23:01:01  BASE  4.704    334  5.3214   330  -1.1  100   -1.1  0     0     988.8    NA       0.0000   UP       BR    5000  0    
2019/06/14  23:02:01  BASE  4.704    333  5.3214   330  -1.1  100   -1.1  0     0     988.8    NA       0.0000   UP       BR    5000  0    
2019/06/14  23:03:01  BASE  4.68048  333  5.2038   333  -1.1  100   -1.1  0     0     988.8    NA       0.0000   UP       BR    5000  0    
2019/06/14  23:04:01  BASE  4.59816  335  5.2038   333  -1.1  100   -1.1  0     0     988.9    NA       0.0000   UP       BR    5000  0    
2019/06/14  23:05:01  BASE  4.33944  335  5.2038   333  -1.1  100   -1.1  0     0     988.9    NA       0.0000   UP       BR    5000  0    
2019/06/14  23:06:01  BASE  4.36884  333  5.2038   333  -1.1  100   -1.1  0     0     988.9    NA       0.0000   UP       BR    5000  0    
2019/06/14  23:07:01  BASE  4.52172  333  5.2038   333  -1.1  100   -1.1  0     0     988.9    NA       0.0000   UP       BR    5000  0    
2019/06/14  23:08:01  BASE  4.37472  335  5.2038   333  -1.1  100   -1.1  0     0     988.9    NA       0.0000   UP       BR    5000  0    
2019/06/14  23:09:01  BASE  4.31004  336  5.2038   333  -1.1  100   -1.1  0     0     988.9    NA       0.0000   UP       BR    6000  0    
2019/06/14  23:10:01  BASE  4.36296  334  5.2038   333  -1.1  100   -1.1  0     0     988.9    NA       0.0000   UP       BR    6000  0    
2019/06/14  23:11:01  BASE  4.27476  335  5.2038   333  -1.1  100   -1.1  0     0     989.0    NA       0.0000   UP       BR    6000  0    
2019/06/14  23:12:01  BASE  4.11012  335  5.2038   333  -1.1  100   -1.1  0     0     989.0    NA       0.0000   UP       BR    6000  0    
2019/06/14  23:13:01  BASE  4.116    334  4.86864  329  -1.1  100   -1.1  0     0     989.0    NA       0.0000   UP       BR    6000  0    
2019/06/14  23:14:01  BASE  4.39236  333  4.86864  329  -1.1  100   -1.1  0     0     989.0    NA       0.2540   UP       BR    6000  0    
2019/06/14  23:15:01  BASE  4.53936  332  4.86864  331  -1.1  100   -1.1  0     0     989.0    NA       0.0000   UP       BR    5000  0    
2019/06/14  23:16:01  BASE  4.37472  335  4.86864  331  -1.1  100   -1.1  0     0     989.0    NA       0.0000   UP       BR    5000  0    
2019/06/14  23:17:01  BASE  4.30416  335  4.86864  331  -1.1  100   -1.1  0     0     989.0    NA       0.0000   UP       BR    5000  0    
2019/06/14  23:18:01  BASE  4.31592  335  4.86864  331  -1.1  100   -1.1  0     0     989.1    NA       0.0000   UP       BR    5000  0    
2019/06/14  23:19:01  BASE  4.28652  335  4.86864  331  -1.1  100   -1.1  0     0     989.1    NA       0.0000   UP       BR    5000  0    
2019/06/14  23:20:01  BASE  4.28064  335  4.86864  331  -1.1  100   -1.1  0     0     989.1    NA       0.0000   UP       BR    5000  0    
2019/06/14  23:21:01  BASE  4.2924   335  4.86864  331  -1.1  100   -1.1  0     0     989.1    NA       0.0000   UP       BR    5000  0    
2019/06/14  23:22:01  BASE  4.50408  333  4.86864  331  -1.1  100   -1.1  0     0     989.1    NA       0.0000   UP       BR    5000  0    
2019/06/14  23:23:01  BASE  4.59816  332  5.02152  331  -1.1  100   -1.1  0     0     989.1    NA       0.0000   UP       BR    5000  0    
2019/06/14  23:24:01  BASE  4.63344  332  5.02152  331  -1.1  100   -1.1  0     0     989.1    NA       0.0000   UP       BR    5000  0    
2019/06/14  23:25:01  BASE  4.83336  332  5.78004  332  -1.1  100   -1.1  0     0     989.1    NA       0.0000   UP       BR    5000  0    
2019/06/14  23:26:01  BASE  4.83336  333  5.78004  332  -1.1  100   -1.1  0     0     989.1    NA       0.0000   UP       BR    5000  0    
2019/06/14  23:27:01  BASE  4.704    333  5.78004  332  -1.1  100   -1.1  0     0     989.2    NA       0.0000   UP       BR    5000  0    
2019/06/14  23:28:01  BASE  4.68636  334  5.78004  332  -1.1  100   -1.1  0     0     989.2    NA       0.0000   UP       BR    5000  0    
2019/06/14  23:29:01  BASE  4.75104  334  5.78004  332  -1.1  100   -1.1  0     0     989.2    NA       0.0000   UP       BR    5000  0    
2019/06/14  23:30:01  BASE  4.73928  334  5.78004  332  -1.1  100   -1.1  0     0     989.2    NA       0.0000   UP       BR    5000  0    
2019/06/14  23:31:01  BASE  4.70988  335  5.78004  332  -1.1  100   -1.1  0     0     989.2    NA       0.0000   UP       BR    5000  0    
2019/06/14  23:32:01  BASE  4.85688  332  5.78004  332  -1.1  100   -1.1  0     0     989.2    NA       0.0000   UP       BR    5000  0    
2019/06/14  23:33:01  BASE  4.9686   331  5.78004  332  -1.1  100   -1.1  0     0     989.2    NA       0.0000   UP       BR    5000  0    
2019/06/14  23:34:01  BASE  4.98624  332  5.78004  332  -1.1  100   -1.1  0     0     989.3    NA       0.0000   UP       BR    5000  0    
2019/06/14  23:35:01  BASE  4.98624  332  5.56836  331  -1.1  100   -1.1  0     0     989.3    NA       0.0000   UP       BR    5000  0    
2019/06/14  23:36:01  BASE  5.10972  330  5.56836  331  -1.1  100   -1.1  0     0     989.4    NA       0.0000   UP       BR    5000  0    
2019/06/14  23:37:01  BASE  5.02152  329  5.56836  331  -1.1  100   -1.1  0     0     989.4    NA       0.0000   UP       BR    5000  0    
2019/06/14  23:38:01  BASE  4.9098   330  5.56836  326  -1.1  100   -1.1  0     0     989.4    NA       0.0000   UP       BR    4900  0    
2019/06/14  23:39:01  BASE  5.05092  329  5.68596  323  -1.1  100   -1.1  0     0     989.4    NA       0.0000   UP       BR    4800  0    
2019/06/14  23:40:01  BASE  5.0862   328  5.68596  323  -1.1  100   -1.1  0     0     989.4    NA       0.0000   UP       BR    4800  200  
2019/06/14  23:41:01  BASE  5.0274   327  5.68596  323  -1.1  100   -1.1  0     0     989.4    NA       0.0000   UP       BR    4800  200  
2019/06/14  23:42:01  BASE  4.92156  328  5.68596  323  -1.1  100   -1.1  0     0     989.5    NA       0.0000   UP       BR    4800  0    
2019/06/14  23:43:01  BASE  4.80984  328  5.68596  323  -1.1  100   -1.1  0     0     989.4    NA       0.0000   UP       BR    4800  0    
2019/06/14  23:44:01  BASE  4.8216   328  5.71536  323  -1.1  100   -1.1  0     0     989.4    NA       0.0000   UP       BR    4800  0    
2019/06/14  23:45:01  BASE  4.704    327  5.71536  323  -1.1  100   -1.1  0     0     989.5    NA       0.0000   UP       BR    4800  0    
2019/06/14  23:46:01  BASE  4.63932  326  5.71536  323  -1.1  100   -1.1  0     0     989.5    NA       0.0000   UP       BR    4800  0    
2019/06/14  23:47:01  BASE  4.80984  324  5.71536  323  -1.1  100   -1.1  0     0     989.5    NA       0.0000   UP       BR    4900  0    
2019/06/14  23:48:01  BASE  4.7922   320  5.71536  323  -1.1  100   -1.1  0     0     989.5    NA       0.0000   UP       BR    4900  260  
2019/06/14  23:49:01  BASE  4.71576  317  5.71536  323  -1.1  100   -1.1  0     0     989.6    NA       0.0000   UP       BR    4900  230  
2019/06/14  23:50:01  BASE  4.75692  317  5.71536  323  -1.1  100   -1.1  0     0     989.6    NA       0.0000   UP       BR    4900  230  
2019/06/14  23:51:01  BASE  4.6452   319  5.71536  323  -1.1  100   -1.1  0     0     989.6    NA       0.0000   UP       BR    4900  260  
2019/06/14  23:52:01  BASE  4.55112  320  5.71536  323  -1.1  100   -1.1  0     0     989.6    NA       0.0000   UP       BR    4900  260  
2019/06/14  23:53:00  BASE  4.57464  317  5.71536  323  -1.1  100   -1.1  0     0     989.6    NA       0.0000   UP       BR    4900  230  
2019/06/14  23:54:00  BASE  4.40412  316  5.50368  309  -1.1  100   -1.1  0     0     989.6    NA       0.0000   UP       BR    4900  260  
2019/06/14  23:55:01  BASE  4.25712  314  5.50368  309  -1.1  100   -1.1  0     0     989.6    NA       0.0000   UP       BR    4900  330  
2019/06/14  23:56:00  BASE  4.3806   314  5.50368  309  -1.1  100   -1.1  0     0     989.6    NA       0.0000   UP       BR    4900  260  
2019/06/14  23:57:00  BASE  4.40412  314  5.50368  309  -1.1  100   -1.1  0     0     989.6    NA       0.0000   UP       BR    4900  230  
2019/06/14  23:58:00  BASE  4.33356  312  5.50368  309  -1.1  100   -1.1  0     0     989.7    NA       0.0000   UP       BR    4900  300  
2019/06/14  23:59:00  BASE  4.34532  309  5.08032  306  -1.1  100   -1.1  0     0     989.7    NA       0.0000   UP       BR    4900  300